<?xml version="1.0" encoding="UTF-8" standalone="no" ?>
<gpx xmlns="http://www.topografix.com/GPX/1/1" xmlns:xsi="http://www.w3.org/2001/XMLSchema-instance" xsi:schemaLocation="http://www.topografix.com/GPX/1/1 http://www.topografix.com/GPX/1/1/gpx.xsd" version="1.1" creator="VisuGPX - https://www.visugpx.com">
  <metadata>
    <name>2021-05-29 depuis Sainte Marie</name>
  </metadata>
  <trk>
    <name><![CDATA[2021-05-29 depuis Sainte Marie]]></name>
    <extensions>
      <line xmlns="http://www.topografix.com/GPX/gpx_style/0/2">
        <color>0000FF</color>
        <opacity>0.59</opacity>
        <width>6.0</width>
      </line>
    </extensions>
    <trkseg>
      <trkpt lat="48.2438" lon="7.18013">
        <ele>383.2</ele>
        <time>2021-05-29T07:33:11.000Z</time>
      </trkpt>
      <trkpt lat="48.24371" lon="7.18005">
        <ele>383.2</ele>
        <time>2021-05-29T07:33:27.000Z</time>
      </trkpt>
      <trkpt lat="48.24362" lon="7.18001">
        <ele>383</ele>
        <time>2021-05-29T07:33:34.000Z</time>
      </trkpt>
      <trkpt lat="48.24353" lon="7.17996">
        <ele>382.8</ele>
        <time>2021-05-29T07:33:41.000Z</time>
      </trkpt>
      <trkpt lat="48.24344" lon="7.17993">
        <ele>382.5</ele>
        <time>2021-05-29T07:33:50.000Z</time>
      </trkpt>
      <trkpt lat="48.24334" lon="7.17992">
        <ele>382.1</ele>
        <time>2021-05-29T07:33:58.000Z</time>
      </trkpt>
      <trkpt lat="48.24325" lon="7.17989">
        <ele>382.2</ele>
        <time>2021-05-29T07:34:06.000Z</time>
      </trkpt>
      <trkpt lat="48.24315" lon="7.1799">
        <ele>382.3</ele>
        <time>2021-05-29T07:34:17.000Z</time>
      </trkpt>
      <trkpt lat="48.24307" lon="7.17985">
        <ele>382.4</ele>
        <time>2021-05-29T07:34:23.000Z</time>
      </trkpt>
      <trkpt lat="48.24299" lon="7.17978">
        <ele>382.6</ele>
        <time>2021-05-29T07:34:29.000Z</time>
      </trkpt>
      <trkpt lat="48.24289" lon="7.17975">
        <ele>382.7</ele>
        <time>2021-05-29T07:34:36.000Z</time>
      </trkpt>
      <trkpt lat="48.2428" lon="7.17971">
        <ele>382.8</ele>
        <time>2021-05-29T07:34:44.000Z</time>
      </trkpt>
      <trkpt lat="48.24269" lon="7.17968">
        <ele>382.9</ele>
        <time>2021-05-29T07:34:52.000Z</time>
      </trkpt>
      <trkpt lat="48.24262" lon="7.17977">
        <ele>382.9</ele>
        <time>2021-05-29T07:35:02.000Z</time>
      </trkpt>
      <trkpt lat="48.24252" lon="7.17983">
        <ele>383</ele>
        <time>2021-05-29T07:35:15.000Z</time>
      </trkpt>
      <trkpt lat="48.24242" lon="7.17983">
        <ele>383.1</ele>
        <time>2021-05-29T07:35:20.000Z</time>
      </trkpt>
      <trkpt lat="48.24233" lon="7.17984">
        <ele>383.2</ele>
        <time>2021-05-29T07:35:27.000Z</time>
      </trkpt>
      <trkpt lat="48.24224" lon="7.17984">
        <ele>383.3</ele>
        <time>2021-05-29T07:35:35.000Z</time>
      </trkpt>
      <trkpt lat="48.24214" lon="7.17979">
        <ele>383.4</ele>
        <time>2021-05-29T07:35:44.000Z</time>
      </trkpt>
      <trkpt lat="48.24207" lon="7.17971">
        <ele>383.5</ele>
        <time>2021-05-29T07:35:52.000Z</time>
      </trkpt>
      <trkpt lat="48.24197" lon="7.1797">
        <ele>383.6</ele>
        <time>2021-05-29T07:35:58.000Z</time>
      </trkpt>
      <trkpt lat="48.24186" lon="7.17974">
        <ele>383.8</ele>
        <time>2021-05-29T07:36:05.000Z</time>
      </trkpt>
      <trkpt lat="48.24175" lon="7.17977">
        <ele>383.9</ele>
        <time>2021-05-29T07:36:10.000Z</time>
      </trkpt>
      <trkpt lat="48.24165" lon="7.17975">
        <ele>384.1</ele>
        <time>2021-05-29T07:36:18.000Z</time>
      </trkpt>
      <trkpt lat="48.24156" lon="7.17969">
        <ele>384.4</ele>
        <time>2021-05-29T07:36:25.000Z</time>
      </trkpt>
      <trkpt lat="48.24151" lon="7.17957">
        <ele>384.6</ele>
        <time>2021-05-29T07:36:31.000Z</time>
      </trkpt>
      <trkpt lat="48.24142" lon="7.17952">
        <ele>384.9</ele>
        <time>2021-05-29T07:36:37.000Z</time>
      </trkpt>
      <trkpt lat="48.24133" lon="7.1795">
        <ele>385.2</ele>
        <time>2021-05-29T07:36:43.000Z</time>
      </trkpt>
      <trkpt lat="48.24123" lon="7.17944">
        <ele>385.6</ele>
        <time>2021-05-29T07:36:50.000Z</time>
      </trkpt>
      <trkpt lat="48.24114" lon="7.17936">
        <ele>385.9</ele>
        <time>2021-05-29T07:36:58.000Z</time>
      </trkpt>
      <trkpt lat="48.24105" lon="7.1793">
        <ele>386.2</ele>
        <time>2021-05-29T07:37:06.000Z</time>
      </trkpt>
      <trkpt lat="48.24109" lon="7.17917">
        <ele>386.1</ele>
        <time>2021-05-29T07:37:13.000Z</time>
      </trkpt>
      <trkpt lat="48.24118" lon="7.17908">
        <ele>386.1</ele>
        <time>2021-05-29T07:37:19.000Z</time>
      </trkpt>
      <trkpt lat="48.24124" lon="7.17896">
        <ele>386.4</ele>
        <time>2021-05-29T07:37:24.000Z</time>
      </trkpt>
      <trkpt lat="48.24132" lon="7.17887">
        <ele>386.6</ele>
        <time>2021-05-29T07:37:30.000Z</time>
      </trkpt>
      <trkpt lat="48.24138" lon="7.17878">
        <ele>387</ele>
        <time>2021-05-29T07:37:37.000Z</time>
      </trkpt>
      <trkpt lat="48.24143" lon="7.17866">
        <ele>387.6</ele>
        <time>2021-05-29T07:37:43.000Z</time>
      </trkpt>
      <trkpt lat="48.24151" lon="7.17858">
        <ele>388.1</ele>
        <time>2021-05-29T07:37:52.000Z</time>
      </trkpt>
      <trkpt lat="48.2416" lon="7.17856">
        <ele>388.3</ele>
        <time>2021-05-29T07:38:02.000Z</time>
      </trkpt>
      <trkpt lat="48.24169" lon="7.17856">
        <ele>388.3</ele>
        <time>2021-05-29T07:38:11.000Z</time>
      </trkpt>
      <trkpt lat="48.24179" lon="7.17854">
        <ele>388.2</ele>
        <time>2021-05-29T07:38:20.000Z</time>
      </trkpt>
      <trkpt lat="48.24188" lon="7.17854">
        <ele>387.9</ele>
        <time>2021-05-29T07:38:30.000Z</time>
      </trkpt>
      <trkpt lat="48.24198" lon="7.17851">
        <ele>387.8</ele>
        <time>2021-05-29T07:38:38.000Z</time>
      </trkpt>
      <trkpt lat="48.24207" lon="7.17849">
        <ele>387.6</ele>
        <time>2021-05-29T07:38:43.000Z</time>
      </trkpt>
      <trkpt lat="48.24215" lon="7.17839">
        <ele>387.9</ele>
        <time>2021-05-29T07:38:55.000Z</time>
      </trkpt>
      <trkpt lat="48.24221" lon="7.17829">
        <ele>388.4</ele>
        <time>2021-05-29T07:39:03.000Z</time>
      </trkpt>
      <trkpt lat="48.24221" lon="7.17814">
        <ele>389.6</ele>
        <time>2021-05-29T07:39:12.000Z</time>
      </trkpt>
      <trkpt lat="48.24224" lon="7.178">
        <ele>390.6</ele>
        <time>2021-05-29T07:39:18.000Z</time>
      </trkpt>
      <trkpt lat="48.24215" lon="7.17792">
        <ele>392.1</ele>
        <time>2021-05-29T07:39:37.000Z</time>
      </trkpt>
      <trkpt lat="48.24205" lon="7.17791">
        <ele>393.2</ele>
        <time>2021-05-29T07:39:47.000Z</time>
      </trkpt>
      <trkpt lat="48.24196" lon="7.17789">
        <ele>394.4</ele>
        <time>2021-05-29T07:39:57.000Z</time>
      </trkpt>
      <trkpt lat="48.24187" lon="7.17783">
        <ele>396.1</ele>
        <time>2021-05-29T07:40:10.000Z</time>
      </trkpt>
      <trkpt lat="48.24181" lon="7.17773">
        <ele>398.3</ele>
        <time>2021-05-29T07:40:26.000Z</time>
      </trkpt>
      <trkpt lat="48.24172" lon="7.17767">
        <ele>400.4</ele>
        <time>2021-05-29T07:40:36.000Z</time>
      </trkpt>
      <trkpt lat="48.24166" lon="7.17757">
        <ele>402.8</ele>
        <time>2021-05-29T07:40:49.000Z</time>
      </trkpt>
      <trkpt lat="48.2416" lon="7.17747">
        <ele>404.1</ele>
        <time>2021-05-29T07:41:00.000Z</time>
      </trkpt>
      <trkpt lat="48.24155" lon="7.17735">
        <ele>404.9</ele>
        <time>2021-05-29T07:41:12.000Z</time>
      </trkpt>
      <trkpt lat="48.24146" lon="7.1773">
        <ele>405.8</ele>
        <time>2021-05-29T07:41:23.000Z</time>
      </trkpt>
      <trkpt lat="48.24139" lon="7.1772">
        <ele>407.2</ele>
        <time>2021-05-29T07:41:33.000Z</time>
      </trkpt>
      <trkpt lat="48.24131" lon="7.17712">
        <ele>409</ele>
        <time>2021-05-29T07:41:45.000Z</time>
      </trkpt>
      <trkpt lat="48.24124" lon="7.17704">
        <ele>411.1</ele>
        <time>2021-05-29T07:42:00.000Z</time>
      </trkpt>
      <trkpt lat="48.24116" lon="7.17696">
        <ele>413.5</ele>
        <time>2021-05-29T07:42:13.000Z</time>
      </trkpt>
      <trkpt lat="48.24111" lon="7.17686">
        <ele>416.5</ele>
        <time>2021-05-29T07:42:28.000Z</time>
      </trkpt>
      <trkpt lat="48.24104" lon="7.17676">
        <ele>419.8</ele>
        <time>2021-05-29T07:42:40.000Z</time>
      </trkpt>
      <trkpt lat="48.24095" lon="7.1767">
        <ele>423.1</ele>
        <time>2021-05-29T07:42:58.000Z</time>
      </trkpt>
      <trkpt lat="48.24088" lon="7.17661">
        <ele>426.3</ele>
        <time>2021-05-29T07:43:13.000Z</time>
      </trkpt>
      <trkpt lat="48.24081" lon="7.17653">
        <ele>428.1</ele>
        <time>2021-05-29T07:43:25.000Z</time>
      </trkpt>
      <trkpt lat="48.24075" lon="7.17642">
        <ele>428.9</ele>
        <time>2021-05-29T07:43:37.000Z</time>
      </trkpt>
      <trkpt lat="48.24068" lon="7.17632">
        <ele>429.9</ele>
        <time>2021-05-29T07:43:50.000Z</time>
      </trkpt>
      <trkpt lat="48.24062" lon="7.17622">
        <ele>431.4</ele>
        <time>2021-05-29T07:44:03.000Z</time>
      </trkpt>
      <trkpt lat="48.24051" lon="7.17604">
        <ele>434.8</ele>
        <time>2021-05-29T07:44:17.000Z</time>
      </trkpt>
      <trkpt lat="48.24056" lon="7.17591">
        <ele>436.9</ele>
        <time>2021-05-29T07:44:39.000Z</time>
      </trkpt>
      <trkpt lat="48.24061" lon="7.1758">
        <ele>437.9</ele>
        <time>2021-05-29T07:44:50.000Z</time>
      </trkpt>
      <trkpt lat="48.24057" lon="7.17567">
        <ele>439.7</ele>
        <time>2021-05-29T07:44:59.000Z</time>
      </trkpt>
      <trkpt lat="48.2405" lon="7.17558">
        <ele>442</ele>
        <time>2021-05-29T07:45:12.000Z</time>
      </trkpt>
      <trkpt lat="48.24042" lon="7.17548">
        <ele>444.8</ele>
        <time>2021-05-29T07:45:22.000Z</time>
      </trkpt>
      <trkpt lat="48.24033" lon="7.17551">
        <ele>446.2</ele>
        <time>2021-05-29T07:45:39.000Z</time>
      </trkpt>
      <trkpt lat="48.24029" lon="7.17538">
        <ele>449.3</ele>
        <time>2021-05-29T07:45:53.000Z</time>
      </trkpt>
      <trkpt lat="48.24026" lon="7.17525">
        <ele>452.6</ele>
        <time>2021-05-29T07:46:05.000Z</time>
      </trkpt>
      <trkpt lat="48.2402" lon="7.17513">
        <ele>456.5</ele>
        <time>2021-05-29T07:46:17.000Z</time>
      </trkpt>
      <trkpt lat="48.24015" lon="7.17501">
        <ele>460.6</ele>
        <time>2021-05-29T07:46:30.000Z</time>
      </trkpt>
      <trkpt lat="48.24012" lon="7.17488">
        <ele>462.5</ele>
        <time>2021-05-29T07:46:44.000Z</time>
      </trkpt>
      <trkpt lat="48.24009" lon="7.17475">
        <ele>464.6</ele>
        <time>2021-05-29T07:46:57.000Z</time>
      </trkpt>
      <trkpt lat="48.24009" lon="7.17461">
        <ele>465.6</ele>
        <time>2021-05-29T07:47:08.000Z</time>
      </trkpt>
      <trkpt lat="48.24007" lon="7.17446">
        <ele>467.5</ele>
        <time>2021-05-29T07:47:17.000Z</time>
      </trkpt>
      <trkpt lat="48.24002" lon="7.17435">
        <ele>470.7</ele>
        <time>2021-05-29T07:47:26.000Z</time>
      </trkpt>
      <trkpt lat="48.23998" lon="7.17422">
        <ele>472.3</ele>
        <time>2021-05-29T07:47:37.000Z</time>
      </trkpt>
      <trkpt lat="48.23997" lon="7.17409">
        <ele>473</ele>
        <time>2021-05-29T07:47:46.000Z</time>
      </trkpt>
      <trkpt lat="48.23994" lon="7.17394">
        <ele>473.5</ele>
        <time>2021-05-29T07:47:56.000Z</time>
      </trkpt>
      <trkpt lat="48.2399" lon="7.17381">
        <ele>474.1</ele>
        <time>2021-05-29T07:48:05.000Z</time>
      </trkpt>
      <trkpt lat="48.23987" lon="7.17368">
        <ele>474.9</ele>
        <time>2021-05-29T07:48:14.000Z</time>
      </trkpt>
      <trkpt lat="48.23986" lon="7.17355">
        <ele>475.9</ele>
        <time>2021-05-29T07:48:24.000Z</time>
      </trkpt>
      <trkpt lat="48.23984" lon="7.1734">
        <ele>477.1</ele>
        <time>2021-05-29T07:48:35.000Z</time>
      </trkpt>
      <trkpt lat="48.2398" lon="7.17326">
        <ele>478.6</ele>
        <time>2021-05-29T07:48:41.000Z</time>
      </trkpt>
      <trkpt lat="48.23981" lon="7.17312">
        <ele>479.8</ele>
        <time>2021-05-29T07:48:47.000Z</time>
      </trkpt>
      <trkpt lat="48.23983" lon="7.17299">
        <ele>480.8</ele>
        <time>2021-05-29T07:48:54.000Z</time>
      </trkpt>
      <trkpt lat="48.23984" lon="7.17285">
        <ele>481.9</ele>
        <time>2021-05-29T07:49:01.000Z</time>
      </trkpt>
      <trkpt lat="48.23984" lon="7.17271">
        <ele>483.1</ele>
        <time>2021-05-29T07:49:08.000Z</time>
      </trkpt>
      <trkpt lat="48.23987" lon="7.17255">
        <ele>483.7</ele>
        <time>2021-05-29T07:49:19.000Z</time>
      </trkpt>
      <trkpt lat="48.23988" lon="7.17241">
        <ele>483.8</ele>
        <time>2021-05-29T07:49:28.000Z</time>
      </trkpt>
      <trkpt lat="48.23988" lon="7.17226">
        <ele>483.3</ele>
        <time>2021-05-29T07:49:38.000Z</time>
      </trkpt>
      <trkpt lat="48.23987" lon="7.17211">
        <ele>483.6</ele>
        <time>2021-05-29T07:49:48.000Z</time>
      </trkpt>
      <trkpt lat="48.23986" lon="7.17196">
        <ele>483.5</ele>
        <time>2021-05-29T07:49:57.000Z</time>
      </trkpt>
      <trkpt lat="48.23987" lon="7.17182">
        <ele>482.9</ele>
        <time>2021-05-29T07:50:03.000Z</time>
      </trkpt>
      <trkpt lat="48.23989" lon="7.17168">
        <ele>481.6</ele>
        <time>2021-05-29T07:50:12.000Z</time>
      </trkpt>
      <trkpt lat="48.23992" lon="7.17155">
        <ele>480.7</ele>
        <time>2021-05-29T07:50:20.000Z</time>
      </trkpt>
      <trkpt lat="48.23992" lon="7.1714">
        <ele>481.2</ele>
        <time>2021-05-29T07:50:30.000Z</time>
      </trkpt>
      <trkpt lat="48.23992" lon="7.17125">
        <ele>481.7</ele>
        <time>2021-05-29T07:50:39.000Z</time>
      </trkpt>
      <trkpt lat="48.23991" lon="7.17112">
        <ele>482.4</ele>
        <time>2021-05-29T07:50:47.000Z</time>
      </trkpt>
      <trkpt lat="48.2399" lon="7.17098">
        <ele>483.4</ele>
        <time>2021-05-29T07:50:54.000Z</time>
      </trkpt>
      <trkpt lat="48.23987" lon="7.17084">
        <ele>484.9</ele>
        <time>2021-05-29T07:51:02.000Z</time>
      </trkpt>
      <trkpt lat="48.23986" lon="7.1707">
        <ele>485.1</ele>
        <time>2021-05-29T07:51:12.000Z</time>
      </trkpt>
      <trkpt lat="48.23982" lon="7.17057">
        <ele>486.1</ele>
        <time>2021-05-29T07:51:20.000Z</time>
      </trkpt>
      <trkpt lat="48.23979" lon="7.17043">
        <ele>486.9</ele>
        <time>2021-05-29T07:51:28.000Z</time>
      </trkpt>
      <trkpt lat="48.23977" lon="7.1703">
        <ele>487.1</ele>
        <time>2021-05-29T07:51:37.000Z</time>
      </trkpt>
      <trkpt lat="48.23978" lon="7.17015">
        <ele>486.6</ele>
        <time>2021-05-29T07:51:47.000Z</time>
      </trkpt>
      <trkpt lat="48.23973" lon="7.17002">
        <ele>488.1</ele>
        <time>2021-05-29T07:51:55.000Z</time>
      </trkpt>
      <trkpt lat="48.23969" lon="7.16988">
        <ele>489.7</ele>
        <time>2021-05-29T07:52:06.000Z</time>
      </trkpt>
      <trkpt lat="48.23964" lon="7.16974">
        <ele>491.6</ele>
        <time>2021-05-29T07:52:13.000Z</time>
      </trkpt>
      <trkpt lat="48.2396" lon="7.16962">
        <ele>493.5</ele>
        <time>2021-05-29T07:52:20.000Z</time>
      </trkpt>
      <trkpt lat="48.23955" lon="7.16951">
        <ele>495.4</ele>
        <time>2021-05-29T07:52:26.000Z</time>
      </trkpt>
      <trkpt lat="48.23951" lon="7.16938">
        <ele>497.1</ele>
        <time>2021-05-29T07:52:33.000Z</time>
      </trkpt>
      <trkpt lat="48.23946" lon="7.16925">
        <ele>498.6</ele>
        <time>2021-05-29T07:52:39.000Z</time>
      </trkpt>
      <trkpt lat="48.23944" lon="7.16912">
        <ele>500.2</ele>
        <time>2021-05-29T07:52:47.000Z</time>
      </trkpt>
      <trkpt lat="48.23943" lon="7.16898">
        <ele>502.2</ele>
        <time>2021-05-29T07:53:00.000Z</time>
      </trkpt>
      <trkpt lat="48.23942" lon="7.16883">
        <ele>504.5</ele>
        <time>2021-05-29T07:53:07.000Z</time>
      </trkpt>
      <trkpt lat="48.23943" lon="7.16869">
        <ele>505.6</ele>
        <time>2021-05-29T07:53:14.000Z</time>
      </trkpt>
      <trkpt lat="48.23946" lon="7.16856">
        <ele>506.1</ele>
        <time>2021-05-29T07:53:25.000Z</time>
      </trkpt>
      <trkpt lat="48.2395" lon="7.16843">
        <ele>505.4</ele>
        <time>2021-05-29T07:53:39.000Z</time>
      </trkpt>
      <trkpt lat="48.23955" lon="7.16831">
        <ele>504.4</ele>
        <time>2021-05-29T07:53:51.000Z</time>
      </trkpt>
      <trkpt lat="48.23958" lon="7.16818">
        <ele>503.7</ele>
        <time>2021-05-29T07:54:05.000Z</time>
      </trkpt>
      <trkpt lat="48.23957" lon="7.16803">
        <ele>505.7</ele>
        <time>2021-05-29T07:54:18.000Z</time>
      </trkpt>
      <trkpt lat="48.23953" lon="7.1679">
        <ele>508.4</ele>
        <time>2021-05-29T07:54:28.000Z</time>
      </trkpt>
      <trkpt lat="48.23954" lon="7.16777">
        <ele>509</ele>
        <time>2021-05-29T07:54:39.000Z</time>
      </trkpt>
      <trkpt lat="48.23953" lon="7.16762">
        <ele>510.4</ele>
        <time>2021-05-29T07:54:49.000Z</time>
      </trkpt>
      <trkpt lat="48.23951" lon="7.16748">
        <ele>512.5</ele>
        <time>2021-05-29T07:55:00.000Z</time>
      </trkpt>
      <trkpt lat="48.23946" lon="7.16735">
        <ele>515.2</ele>
        <time>2021-05-29T07:55:10.000Z</time>
      </trkpt>
      <trkpt lat="48.2394" lon="7.16724">
        <ele>518.6</ele>
        <time>2021-05-29T07:55:18.000Z</time>
      </trkpt>
      <trkpt lat="48.23939" lon="7.16709">
        <ele>519.9</ele>
        <time>2021-05-29T07:55:27.000Z</time>
      </trkpt>
      <trkpt lat="48.2394" lon="7.16695">
        <ele>519.8</ele>
        <time>2021-05-29T07:55:37.000Z</time>
      </trkpt>
      <trkpt lat="48.23935" lon="7.16678">
        <ele>523.8</ele>
        <time>2021-05-29T07:56:22.000Z</time>
      </trkpt>
      <trkpt lat="48.23928" lon="7.16668">
        <ele>528.1</ele>
        <time>2021-05-29T07:57:16.000Z</time>
      </trkpt>
      <trkpt lat="48.23931" lon="7.16655">
        <ele>527.3</ele>
        <time>2021-05-29T07:57:24.000Z</time>
      </trkpt>
      <trkpt lat="48.23934" lon="7.16641">
        <ele>526.4</ele>
        <time>2021-05-29T07:57:33.000Z</time>
      </trkpt>
      <trkpt lat="48.23938" lon="7.16627">
        <ele>525.4</ele>
        <time>2021-05-29T07:57:42.000Z</time>
      </trkpt>
      <trkpt lat="48.23938" lon="7.16612">
        <ele>526.3</ele>
        <time>2021-05-29T07:57:49.000Z</time>
      </trkpt>
      <trkpt lat="48.2394" lon="7.16598">
        <ele>526.2</ele>
        <time>2021-05-29T07:57:58.000Z</time>
      </trkpt>
      <trkpt lat="48.23943" lon="7.16584">
        <ele>525.6</ele>
        <time>2021-05-29T07:58:04.000Z</time>
      </trkpt>
      <trkpt lat="48.2394" lon="7.1657">
        <ele>526.3</ele>
        <time>2021-05-29T07:58:17.000Z</time>
      </trkpt>
      <trkpt lat="48.23937" lon="7.16556">
        <ele>527.2</ele>
        <time>2021-05-29T07:58:27.000Z</time>
      </trkpt>
      <trkpt lat="48.23936" lon="7.16542">
        <ele>526.9</ele>
        <time>2021-05-29T07:58:34.000Z</time>
      </trkpt>
      <trkpt lat="48.23939" lon="7.16529">
        <ele>525.1</ele>
        <time>2021-05-29T07:58:43.000Z</time>
      </trkpt>
      <trkpt lat="48.2393" lon="7.16528">
        <ele>529.4</ele>
        <time>2021-05-29T07:58:51.000Z</time>
      </trkpt>
      <trkpt lat="48.23917" lon="7.16518">
        <ele>535.1</ele>
        <time>2021-05-29T07:58:59.000Z</time>
      </trkpt>
      <trkpt lat="48.23918" lon="7.16505">
        <ele>533.9</ele>
        <time>2021-05-29T07:59:19.000Z</time>
      </trkpt>
      <trkpt lat="48.23931" lon="7.16495">
        <ele>526.4</ele>
        <time>2021-05-29T07:59:24.000Z</time>
      </trkpt>
      <trkpt lat="48.23929" lon="7.1648">
        <ele>524.6</ele>
        <time>2021-05-29T07:59:31.000Z</time>
      </trkpt>
      <trkpt lat="48.23923" lon="7.1647">
        <ele>525.8</ele>
        <time>2021-05-29T07:59:38.000Z</time>
      </trkpt>
      <trkpt lat="48.23916" lon="7.16459">
        <ele>527</ele>
        <time>2021-05-29T07:59:46.000Z</time>
      </trkpt>
      <trkpt lat="48.2391" lon="7.16448">
        <ele>526.6</ele>
        <time>2021-05-29T07:59:54.000Z</time>
      </trkpt>
      <trkpt lat="48.23905" lon="7.16437">
        <ele>526.5</ele>
        <time>2021-05-29T08:00:01.000Z</time>
      </trkpt>
      <trkpt lat="48.23897" lon="7.16431">
        <ele>528.1</ele>
        <time>2021-05-29T08:00:10.000Z</time>
      </trkpt>
      <trkpt lat="48.23887" lon="7.16424">
        <ele>530</ele>
        <time>2021-05-29T08:00:20.000Z</time>
      </trkpt>
      <trkpt lat="48.23878" lon="7.1642">
        <ele>532.6</ele>
        <time>2021-05-29T08:00:29.000Z</time>
      </trkpt>
      <trkpt lat="48.23868" lon="7.16415">
        <ele>535.1</ele>
        <time>2021-05-29T08:00:39.000Z</time>
      </trkpt>
      <trkpt lat="48.2386" lon="7.16411">
        <ele>537</ele>
        <time>2021-05-29T08:00:47.000Z</time>
      </trkpt>
      <trkpt lat="48.23851" lon="7.16404">
        <ele>538.5</ele>
        <time>2021-05-29T08:00:56.000Z</time>
      </trkpt>
      <trkpt lat="48.23847" lon="7.1639">
        <ele>537.6</ele>
        <time>2021-05-29T08:01:02.000Z</time>
      </trkpt>
      <trkpt lat="48.23837" lon="7.16386">
        <ele>540.1</ele>
        <time>2021-05-29T08:01:09.000Z</time>
      </trkpt>
      <trkpt lat="48.23834" lon="7.16368">
        <ele>537.9</ele>
        <time>2021-05-29T08:01:14.000Z</time>
      </trkpt>
      <trkpt lat="48.23829" lon="7.16356">
        <ele>536.2</ele>
        <time>2021-05-29T08:01:20.000Z</time>
      </trkpt>
      <trkpt lat="48.23827" lon="7.16342">
        <ele>534</ele>
        <time>2021-05-29T08:01:29.000Z</time>
      </trkpt>
      <trkpt lat="48.23827" lon="7.16328">
        <ele>532</ele>
        <time>2021-05-29T08:01:34.000Z</time>
      </trkpt>
      <trkpt lat="48.23827" lon="7.16313">
        <ele>530.5</ele>
        <time>2021-05-29T08:01:43.000Z</time>
      </trkpt>
      <trkpt lat="48.23826" lon="7.16298">
        <ele>529.2</ele>
        <time>2021-05-29T08:01:50.000Z</time>
      </trkpt>
      <trkpt lat="48.23823" lon="7.16285">
        <ele>528.3</ele>
        <time>2021-05-29T08:01:57.000Z</time>
      </trkpt>
      <trkpt lat="48.23817" lon="7.16273">
        <ele>528.1</ele>
        <time>2021-05-29T08:02:05.000Z</time>
      </trkpt>
      <trkpt lat="48.2381" lon="7.16263">
        <ele>528.5</ele>
        <time>2021-05-29T08:02:12.000Z</time>
      </trkpt>
      <trkpt lat="48.23802" lon="7.16253">
        <ele>529.2</ele>
        <time>2021-05-29T08:02:19.000Z</time>
      </trkpt>
      <trkpt lat="48.23795" lon="7.16242">
        <ele>530.4</ele>
        <time>2021-05-29T08:02:26.000Z</time>
      </trkpt>
      <trkpt lat="48.23788" lon="7.16232">
        <ele>531.5</ele>
        <time>2021-05-29T08:02:35.000Z</time>
      </trkpt>
      <trkpt lat="48.23782" lon="7.16222">
        <ele>532.2</ele>
        <time>2021-05-29T08:02:42.000Z</time>
      </trkpt>
      <trkpt lat="48.23773" lon="7.16214">
        <ele>533</ele>
        <time>2021-05-29T08:02:51.000Z</time>
      </trkpt>
      <trkpt lat="48.23768" lon="7.162">
        <ele>532.8</ele>
        <time>2021-05-29T08:02:58.000Z</time>
      </trkpt>
      <trkpt lat="48.23761" lon="7.16191">
        <ele>532.7</ele>
        <time>2021-05-29T08:03:05.000Z</time>
      </trkpt>
      <trkpt lat="48.23758" lon="7.16174">
        <ele>531.6</ele>
        <time>2021-05-29T08:03:14.000Z</time>
      </trkpt>
      <trkpt lat="48.23756" lon="7.16161">
        <ele>530.7</ele>
        <time>2021-05-29T08:03:19.000Z</time>
      </trkpt>
      <trkpt lat="48.23757" lon="7.16147">
        <ele>530.1</ele>
        <time>2021-05-29T08:03:29.000Z</time>
      </trkpt>
      <trkpt lat="48.23761" lon="7.16134">
        <ele>530</ele>
        <time>2021-05-29T08:03:36.000Z</time>
      </trkpt>
      <trkpt lat="48.23767" lon="7.16122">
        <ele>530.5</ele>
        <time>2021-05-29T08:03:45.000Z</time>
      </trkpt>
      <trkpt lat="48.23774" lon="7.16111">
        <ele>531.7</ele>
        <time>2021-05-29T08:03:52.000Z</time>
      </trkpt>
      <trkpt lat="48.23782" lon="7.16104">
        <ele>533.6</ele>
        <time>2021-05-29T08:04:00.000Z</time>
      </trkpt>
      <trkpt lat="48.2379" lon="7.16099">
        <ele>535.9</ele>
        <time>2021-05-29T08:04:08.000Z</time>
      </trkpt>
      <trkpt lat="48.23799" lon="7.16099">
        <ele>538.1</ele>
        <time>2021-05-29T08:04:18.000Z</time>
      </trkpt>
      <trkpt lat="48.23809" lon="7.161">
        <ele>540.4</ele>
        <time>2021-05-29T08:04:27.000Z</time>
      </trkpt>
      <trkpt lat="48.23818" lon="7.16103">
        <ele>542</ele>
        <time>2021-05-29T08:04:35.000Z</time>
      </trkpt>
      <trkpt lat="48.23827" lon="7.16102">
        <ele>544.3</ele>
        <time>2021-05-29T08:04:45.000Z</time>
      </trkpt>
      <trkpt lat="48.23837" lon="7.16101">
        <ele>546.4</ele>
        <time>2021-05-29T08:04:52.000Z</time>
      </trkpt>
      <trkpt lat="48.23846" lon="7.16101">
        <ele>547.3</ele>
        <time>2021-05-29T08:04:59.000Z</time>
      </trkpt>
      <trkpt lat="48.23856" lon="7.16102">
        <ele>548</ele>
        <time>2021-05-29T08:05:08.000Z</time>
      </trkpt>
      <trkpt lat="48.23866" lon="7.16104">
        <ele>548.5</ele>
        <time>2021-05-29T08:05:16.000Z</time>
      </trkpt>
      <trkpt lat="48.23876" lon="7.161">
        <ele>550.7</ele>
        <time>2021-05-29T08:05:25.000Z</time>
      </trkpt>
      <trkpt lat="48.23885" lon="7.16095">
        <ele>553</ele>
        <time>2021-05-29T08:05:33.000Z</time>
      </trkpt>
      <trkpt lat="48.23894" lon="7.16091">
        <ele>555.3</ele>
        <time>2021-05-29T08:05:40.000Z</time>
      </trkpt>
      <trkpt lat="48.23903" lon="7.16088">
        <ele>557.5</ele>
        <time>2021-05-29T08:05:47.000Z</time>
      </trkpt>
      <trkpt lat="48.23912" lon="7.16092">
        <ele>557.1</ele>
        <time>2021-05-29T08:05:56.000Z</time>
      </trkpt>
      <trkpt lat="48.23921" lon="7.16098">
        <ele>556.1</ele>
        <time>2021-05-29T08:06:05.000Z</time>
      </trkpt>
      <trkpt lat="48.23931" lon="7.161">
        <ele>556.8</ele>
        <time>2021-05-29T08:06:12.000Z</time>
      </trkpt>
      <trkpt lat="48.2394" lon="7.16091">
        <ele>561.4</ele>
        <time>2021-05-29T08:06:23.000Z</time>
      </trkpt>
      <trkpt lat="48.23937" lon="7.16078">
        <ele>566.2</ele>
        <time>2021-05-29T08:06:42.000Z</time>
      </trkpt>
      <trkpt lat="48.23936" lon="7.16064">
        <ele>571.1</ele>
        <time>2021-05-29T08:06:55.000Z</time>
      </trkpt>
      <trkpt lat="48.2393" lon="7.16054">
        <ele>574.3</ele>
        <time>2021-05-29T08:07:05.000Z</time>
      </trkpt>
      <trkpt lat="48.23923" lon="7.16044">
        <ele>577.4</ele>
        <time>2021-05-29T08:07:15.000Z</time>
      </trkpt>
      <trkpt lat="48.23915" lon="7.16039">
        <ele>578</ele>
        <time>2021-05-29T08:07:28.000Z</time>
      </trkpt>
      <trkpt lat="48.23907" lon="7.16031">
        <ele>579.6</ele>
        <time>2021-05-29T08:07:43.000Z</time>
      </trkpt>
      <trkpt lat="48.23899" lon="7.16027">
        <ele>579.4</ele>
        <time>2021-05-29T08:07:54.000Z</time>
      </trkpt>
      <trkpt lat="48.23893" lon="7.16014">
        <ele>582.8</ele>
        <time>2021-05-29T08:08:04.000Z</time>
      </trkpt>
      <trkpt lat="48.23885" lon="7.16008">
        <ele>583</ele>
        <time>2021-05-29T08:08:15.000Z</time>
      </trkpt>
      <trkpt lat="48.23878" lon="7.15999">
        <ele>584</ele>
        <time>2021-05-29T08:08:28.000Z</time>
      </trkpt>
      <trkpt lat="48.23869" lon="7.15992">
        <ele>584</ele>
        <time>2021-05-29T08:08:41.000Z</time>
      </trkpt>
      <trkpt lat="48.23863" lon="7.15982">
        <ele>585.2</ele>
        <time>2021-05-29T08:08:54.000Z</time>
      </trkpt>
      <trkpt lat="48.23856" lon="7.15973">
        <ele>585.9</ele>
        <time>2021-05-29T08:09:09.000Z</time>
      </trkpt>
      <trkpt lat="48.23848" lon="7.15964">
        <ele>586.4</ele>
        <time>2021-05-29T08:09:25.000Z</time>
      </trkpt>
      <trkpt lat="48.23842" lon="7.15953">
        <ele>587.5</ele>
        <time>2021-05-29T08:09:40.000Z</time>
      </trkpt>
      <trkpt lat="48.23838" lon="7.15941">
        <ele>589.7</ele>
        <time>2021-05-29T08:09:53.000Z</time>
      </trkpt>
      <trkpt lat="48.23837" lon="7.15927">
        <ele>593.2</ele>
        <time>2021-05-29T08:10:13.000Z</time>
      </trkpt>
      <trkpt lat="48.23833" lon="7.15914">
        <ele>595.8</ele>
        <time>2021-05-29T08:10:26.000Z</time>
      </trkpt>
      <trkpt lat="48.23833" lon="7.159">
        <ele>600.4</ele>
        <time>2021-05-29T08:10:36.000Z</time>
      </trkpt>
      <trkpt lat="48.2383" lon="7.15886">
        <ele>604.6</ele>
        <time>2021-05-29T08:10:49.000Z</time>
      </trkpt>
      <trkpt lat="48.23829" lon="7.15872">
        <ele>609.3</ele>
        <time>2021-05-29T08:11:00.000Z</time>
      </trkpt>
      <trkpt lat="48.23829" lon="7.15858">
        <ele>613.9</ele>
        <time>2021-05-29T08:11:14.000Z</time>
      </trkpt>
      <trkpt lat="48.23827" lon="7.15844">
        <ele>618.4</ele>
        <time>2021-05-29T08:11:26.000Z</time>
      </trkpt>
      <trkpt lat="48.23825" lon="7.15831">
        <ele>622.2</ele>
        <time>2021-05-29T08:11:40.000Z</time>
      </trkpt>
      <trkpt lat="48.23825" lon="7.15816">
        <ele>625.6</ele>
        <time>2021-05-29T08:11:54.000Z</time>
      </trkpt>
      <trkpt lat="48.23829" lon="7.15803">
        <ele>629.1</ele>
        <time>2021-05-29T08:12:04.000Z</time>
      </trkpt>
      <trkpt lat="48.23819" lon="7.15804">
        <ele>627.3</ele>
        <time>2021-05-29T08:13:13.000Z</time>
      </trkpt>
      <trkpt lat="48.23815" lon="7.15791">
        <ele>629.9</ele>
        <time>2021-05-29T08:13:50.000Z</time>
      </trkpt>
      <trkpt lat="48.23809" lon="7.1578">
        <ele>631.6</ele>
        <time>2021-05-29T08:13:58.000Z</time>
      </trkpt>
      <trkpt lat="48.238" lon="7.15774">
        <ele>632</ele>
        <time>2021-05-29T08:14:06.000Z</time>
      </trkpt>
      <trkpt lat="48.23791" lon="7.1577">
        <ele>631.9</ele>
        <time>2021-05-29T08:14:15.000Z</time>
      </trkpt>
      <trkpt lat="48.23781" lon="7.15768">
        <ele>631.1</ele>
        <time>2021-05-29T08:14:23.000Z</time>
      </trkpt>
      <trkpt lat="48.23771" lon="7.15768">
        <ele>629.7</ele>
        <time>2021-05-29T08:14:30.000Z</time>
      </trkpt>
      <trkpt lat="48.23761" lon="7.15767">
        <ele>628.6</ele>
        <time>2021-05-29T08:14:37.000Z</time>
      </trkpt>
      <trkpt lat="48.23751" lon="7.15769">
        <ele>626.6</ele>
        <time>2021-05-29T08:14:46.000Z</time>
      </trkpt>
      <trkpt lat="48.23742" lon="7.15775">
        <ele>623.5</ele>
        <time>2021-05-29T08:14:54.000Z</time>
      </trkpt>
      <trkpt lat="48.23734" lon="7.15784">
        <ele>619.8</ele>
        <time>2021-05-29T08:15:01.000Z</time>
      </trkpt>
      <trkpt lat="48.23725" lon="7.15789">
        <ele>617</ele>
        <time>2021-05-29T08:15:10.000Z</time>
      </trkpt>
      <trkpt lat="48.23715" lon="7.15785">
        <ele>616.6</ele>
        <time>2021-05-29T08:15:19.000Z</time>
      </trkpt>
      <trkpt lat="48.23706" lon="7.15779">
        <ele>616.7</ele>
        <time>2021-05-29T08:15:30.000Z</time>
      </trkpt>
      <trkpt lat="48.23698" lon="7.15771">
        <ele>617.8</ele>
        <time>2021-05-29T08:15:39.000Z</time>
      </trkpt>
      <trkpt lat="48.2369" lon="7.15763">
        <ele>618.8</ele>
        <time>2021-05-29T08:15:48.000Z</time>
      </trkpt>
      <trkpt lat="48.23684" lon="7.15752">
        <ele>621</ele>
        <time>2021-05-29T08:15:56.000Z</time>
      </trkpt>
      <trkpt lat="48.23677" lon="7.15743">
        <ele>622.4</ele>
        <time>2021-05-29T08:16:05.000Z</time>
      </trkpt>
      <trkpt lat="48.23669" lon="7.15733">
        <ele>623.5</ele>
        <time>2021-05-29T08:16:14.000Z</time>
      </trkpt>
      <trkpt lat="48.23664" lon="7.15722">
        <ele>624.8</ele>
        <time>2021-05-29T08:16:22.000Z</time>
      </trkpt>
      <trkpt lat="48.23657" lon="7.15712">
        <ele>625.1</ele>
        <time>2021-05-29T08:16:30.000Z</time>
      </trkpt>
      <trkpt lat="48.23652" lon="7.15699">
        <ele>627.1</ele>
        <time>2021-05-29T08:16:37.000Z</time>
      </trkpt>
      <trkpt lat="48.23648" lon="7.15686">
        <ele>629.3</ele>
        <time>2021-05-29T08:16:48.000Z</time>
      </trkpt>
      <trkpt lat="48.23644" lon="7.15672">
        <ele>632.2</ele>
        <time>2021-05-29T08:16:58.000Z</time>
      </trkpt>
      <trkpt lat="48.23638" lon="7.15661">
        <ele>633.3</ele>
        <time>2021-05-29T08:17:06.000Z</time>
      </trkpt>
      <trkpt lat="48.23631" lon="7.15651">
        <ele>634.2</ele>
        <time>2021-05-29T08:17:17.000Z</time>
      </trkpt>
      <trkpt lat="48.23625" lon="7.1564">
        <ele>635.3</ele>
        <time>2021-05-29T08:17:26.000Z</time>
      </trkpt>
      <trkpt lat="48.23618" lon="7.1563">
        <ele>636.2</ele>
        <time>2021-05-29T08:17:36.000Z</time>
      </trkpt>
      <trkpt lat="48.23611" lon="7.15621">
        <ele>637</ele>
        <time>2021-05-29T08:17:44.000Z</time>
      </trkpt>
      <trkpt lat="48.23604" lon="7.15611">
        <ele>637.7</ele>
        <time>2021-05-29T08:17:53.000Z</time>
      </trkpt>
      <trkpt lat="48.23598" lon="7.156">
        <ele>638.9</ele>
        <time>2021-05-29T08:18:01.000Z</time>
      </trkpt>
      <trkpt lat="48.23592" lon="7.15588">
        <ele>640.7</ele>
        <time>2021-05-29T08:18:08.000Z</time>
      </trkpt>
      <trkpt lat="48.23586" lon="7.15579">
        <ele>641.3</ele>
        <time>2021-05-29T08:18:16.000Z</time>
      </trkpt>
      <trkpt lat="48.23581" lon="7.15566">
        <ele>642.9</ele>
        <time>2021-05-29T08:18:27.000Z</time>
      </trkpt>
      <trkpt lat="48.23576" lon="7.15553">
        <ele>644.6</ele>
        <time>2021-05-29T08:18:35.000Z</time>
      </trkpt>
      <trkpt lat="48.23572" lon="7.15541">
        <ele>646.1</ele>
        <time>2021-05-29T08:18:42.000Z</time>
      </trkpt>
      <trkpt lat="48.23566" lon="7.15529">
        <ele>647.2</ele>
        <time>2021-05-29T08:18:50.000Z</time>
      </trkpt>
      <trkpt lat="48.2356" lon="7.15518">
        <ele>648</ele>
        <time>2021-05-29T08:18:59.000Z</time>
      </trkpt>
      <trkpt lat="48.23553" lon="7.15505">
        <ele>648.8</ele>
        <time>2021-05-29T08:19:08.000Z</time>
      </trkpt>
      <trkpt lat="48.23547" lon="7.15494">
        <ele>649.3</ele>
        <time>2021-05-29T08:19:16.000Z</time>
      </trkpt>
      <trkpt lat="48.23541" lon="7.15482">
        <ele>649.6</ele>
        <time>2021-05-29T08:19:24.000Z</time>
      </trkpt>
      <trkpt lat="48.23535" lon="7.15472">
        <ele>649.5</ele>
        <time>2021-05-29T08:19:33.000Z</time>
      </trkpt>
      <trkpt lat="48.23529" lon="7.15461">
        <ele>649.7</ele>
        <time>2021-05-29T08:19:42.000Z</time>
      </trkpt>
      <trkpt lat="48.23524" lon="7.1545">
        <ele>649.8</ele>
        <time>2021-05-29T08:19:50.000Z</time>
      </trkpt>
      <trkpt lat="48.2352" lon="7.15437">
        <ele>650.4</ele>
        <time>2021-05-29T08:19:59.000Z</time>
      </trkpt>
      <trkpt lat="48.23515" lon="7.15424">
        <ele>650.7</ele>
        <time>2021-05-29T08:20:09.000Z</time>
      </trkpt>
      <trkpt lat="48.23511" lon="7.15412">
        <ele>651.2</ele>
        <time>2021-05-29T08:20:16.000Z</time>
      </trkpt>
      <trkpt lat="48.23507" lon="7.15399">
        <ele>652.4</ele>
        <time>2021-05-29T08:20:24.000Z</time>
      </trkpt>
      <trkpt lat="48.23501" lon="7.15388">
        <ele>652.8</ele>
        <time>2021-05-29T08:20:33.000Z</time>
      </trkpt>
      <trkpt lat="48.23498" lon="7.15374">
        <ele>654</ele>
        <time>2021-05-29T08:20:41.000Z</time>
      </trkpt>
      <trkpt lat="48.23494" lon="7.15362">
        <ele>655</ele>
        <time>2021-05-29T08:20:47.000Z</time>
      </trkpt>
      <trkpt lat="48.23488" lon="7.15351">
        <ele>655.5</ele>
        <time>2021-05-29T08:20:55.000Z</time>
      </trkpt>
      <trkpt lat="48.23483" lon="7.15338">
        <ele>656.2</ele>
        <time>2021-05-29T08:21:02.000Z</time>
      </trkpt>
      <trkpt lat="48.23478" lon="7.15326">
        <ele>656.9</ele>
        <time>2021-05-29T08:21:10.000Z</time>
      </trkpt>
      <trkpt lat="48.23472" lon="7.15313">
        <ele>657.6</ele>
        <time>2021-05-29T08:21:19.000Z</time>
      </trkpt>
      <trkpt lat="48.23467" lon="7.15301">
        <ele>658.4</ele>
        <time>2021-05-29T08:21:27.000Z</time>
      </trkpt>
      <trkpt lat="48.2346" lon="7.1529">
        <ele>658.5</ele>
        <time>2021-05-29T08:21:35.000Z</time>
      </trkpt>
      <trkpt lat="48.23456" lon="7.15276">
        <ele>659.6</ele>
        <time>2021-05-29T08:21:44.000Z</time>
      </trkpt>
      <trkpt lat="48.23451" lon="7.15265">
        <ele>660.2</ele>
        <time>2021-05-29T08:21:51.000Z</time>
      </trkpt>
      <trkpt lat="48.23446" lon="7.15252">
        <ele>661</ele>
        <time>2021-05-29T08:21:59.000Z</time>
      </trkpt>
      <trkpt lat="48.2344" lon="7.1524">
        <ele>661.7</ele>
        <time>2021-05-29T08:22:07.000Z</time>
      </trkpt>
      <trkpt lat="48.23435" lon="7.15228">
        <ele>662.2</ele>
        <time>2021-05-29T08:22:15.000Z</time>
      </trkpt>
      <trkpt lat="48.2343" lon="7.15215">
        <ele>663</ele>
        <time>2021-05-29T08:22:22.000Z</time>
      </trkpt>
      <trkpt lat="48.23425" lon="7.15203">
        <ele>663.5</ele>
        <time>2021-05-29T08:22:30.000Z</time>
      </trkpt>
      <trkpt lat="48.23419" lon="7.15191">
        <ele>663.8</ele>
        <time>2021-05-29T08:22:39.000Z</time>
      </trkpt>
      <trkpt lat="48.23414" lon="7.15179">
        <ele>664.2</ele>
        <time>2021-05-29T08:22:46.000Z</time>
      </trkpt>
      <trkpt lat="48.23408" lon="7.15167">
        <ele>664.4</ele>
        <time>2021-05-29T08:22:55.000Z</time>
      </trkpt>
      <trkpt lat="48.23403" lon="7.15155">
        <ele>664.8</ele>
        <time>2021-05-29T08:23:03.000Z</time>
      </trkpt>
      <trkpt lat="48.23399" lon="7.15142">
        <ele>665.3</ele>
        <time>2021-05-29T08:23:11.000Z</time>
      </trkpt>
      <trkpt lat="48.23394" lon="7.15129">
        <ele>665.6</ele>
        <time>2021-05-29T08:23:18.000Z</time>
      </trkpt>
      <trkpt lat="48.23391" lon="7.15116">
        <ele>666.2</ele>
        <time>2021-05-29T08:23:27.000Z</time>
      </trkpt>
      <trkpt lat="48.23386" lon="7.15103">
        <ele>666.5</ele>
        <time>2021-05-29T08:23:35.000Z</time>
      </trkpt>
      <trkpt lat="48.2338" lon="7.15092">
        <ele>666.1</ele>
        <time>2021-05-29T08:23:43.000Z</time>
      </trkpt>
      <trkpt lat="48.23378" lon="7.15078">
        <ele>667.4</ele>
        <time>2021-05-29T08:23:50.000Z</time>
      </trkpt>
      <trkpt lat="48.23376" lon="7.15064">
        <ele>668.5</ele>
        <time>2021-05-29T08:23:58.000Z</time>
      </trkpt>
      <trkpt lat="48.23372" lon="7.15052">
        <ele>668.9</ele>
        <time>2021-05-29T08:24:06.000Z</time>
      </trkpt>
      <trkpt lat="48.23367" lon="7.1504">
        <ele>669.1</ele>
        <time>2021-05-29T08:24:13.000Z</time>
      </trkpt>
      <trkpt lat="48.23363" lon="7.15027">
        <ele>669.8</ele>
        <time>2021-05-29T08:24:20.000Z</time>
      </trkpt>
      <trkpt lat="48.2336" lon="7.15014">
        <ele>670.6</ele>
        <time>2021-05-29T08:24:28.000Z</time>
      </trkpt>
      <trkpt lat="48.23354" lon="7.15003">
        <ele>670.2</ele>
        <time>2021-05-29T08:24:37.000Z</time>
      </trkpt>
      <trkpt lat="48.23351" lon="7.1499">
        <ele>672.6</ele>
        <time>2021-05-29T08:24:44.000Z</time>
      </trkpt>
      <trkpt lat="48.23344" lon="7.1498">
        <ele>673.1</ele>
        <time>2021-05-29T08:24:55.000Z</time>
      </trkpt>
      <trkpt lat="48.23338" lon="7.14969">
        <ele>674.4</ele>
        <time>2021-05-29T08:25:02.000Z</time>
      </trkpt>
      <trkpt lat="48.23331" lon="7.14957">
        <ele>675.9</ele>
        <time>2021-05-29T08:25:13.000Z</time>
      </trkpt>
      <trkpt lat="48.23324" lon="7.14948">
        <ele>676.8</ele>
        <time>2021-05-29T08:25:20.000Z</time>
      </trkpt>
      <trkpt lat="48.23318" lon="7.14936">
        <ele>678.4</ele>
        <time>2021-05-29T08:25:30.000Z</time>
      </trkpt>
      <trkpt lat="48.23311" lon="7.14928">
        <ele>678.7</ele>
        <time>2021-05-29T08:25:41.000Z</time>
      </trkpt>
      <trkpt lat="48.23302" lon="7.14922">
        <ele>678.1</ele>
        <time>2021-05-29T08:25:52.000Z</time>
      </trkpt>
      <trkpt lat="48.23295" lon="7.14914">
        <ele>677.8</ele>
        <time>2021-05-29T08:25:58.000Z</time>
      </trkpt>
      <trkpt lat="48.23288" lon="7.14903">
        <ele>678.5</ele>
        <time>2021-05-29T08:26:08.000Z</time>
      </trkpt>
      <trkpt lat="48.23284" lon="7.14891">
        <ele>680.2</ele>
        <time>2021-05-29T08:26:18.000Z</time>
      </trkpt>
      <trkpt lat="48.23277" lon="7.14881">
        <ele>680.5</ele>
        <time>2021-05-29T08:26:27.000Z</time>
      </trkpt>
      <trkpt lat="48.23269" lon="7.1487">
        <ele>680.6</ele>
        <time>2021-05-29T08:26:35.000Z</time>
      </trkpt>
      <trkpt lat="48.23264" lon="7.14859">
        <ele>681.7</ele>
        <time>2021-05-29T08:26:43.000Z</time>
      </trkpt>
      <trkpt lat="48.23257" lon="7.1485">
        <ele>681.6</ele>
        <time>2021-05-29T08:26:54.000Z</time>
      </trkpt>
      <trkpt lat="48.2325" lon="7.14842">
        <ele>681.2</ele>
        <time>2021-05-29T08:27:02.000Z</time>
      </trkpt>
      <trkpt lat="48.23243" lon="7.14831">
        <ele>681.6</ele>
        <time>2021-05-29T08:27:11.000Z</time>
      </trkpt>
      <trkpt lat="48.23238" lon="7.14819">
        <ele>682.6</ele>
        <time>2021-05-29T08:27:19.000Z</time>
      </trkpt>
      <trkpt lat="48.23231" lon="7.14809">
        <ele>683.1</ele>
        <time>2021-05-29T08:27:26.000Z</time>
      </trkpt>
      <trkpt lat="48.23224" lon="7.148">
        <ele>683.3</ele>
        <time>2021-05-29T08:27:34.000Z</time>
      </trkpt>
      <trkpt lat="48.23218" lon="7.14787">
        <ele>684.4</ele>
        <time>2021-05-29T08:27:41.000Z</time>
      </trkpt>
      <trkpt lat="48.23212" lon="7.14776">
        <ele>685.3</ele>
        <time>2021-05-29T08:27:50.000Z</time>
      </trkpt>
      <trkpt lat="48.23205" lon="7.14765">
        <ele>685.7</ele>
        <time>2021-05-29T08:27:57.000Z</time>
      </trkpt>
      <trkpt lat="48.23198" lon="7.14756">
        <ele>685.7</ele>
        <time>2021-05-29T08:28:04.000Z</time>
      </trkpt>
      <trkpt lat="48.23193" lon="7.14744">
        <ele>687.2</ele>
        <time>2021-05-29T08:28:11.000Z</time>
      </trkpt>
      <trkpt lat="48.23186" lon="7.14734">
        <ele>687.3</ele>
        <time>2021-05-29T08:28:20.000Z</time>
      </trkpt>
      <trkpt lat="48.23178" lon="7.14724">
        <ele>687.1</ele>
        <time>2021-05-29T08:28:29.000Z</time>
      </trkpt>
      <trkpt lat="48.23171" lon="7.14716">
        <ele>686.6</ele>
        <time>2021-05-29T08:28:36.000Z</time>
      </trkpt>
      <trkpt lat="48.23162" lon="7.14708">
        <ele>686.3</ele>
        <time>2021-05-29T08:28:44.000Z</time>
      </trkpt>
      <trkpt lat="48.23155" lon="7.14699">
        <ele>687</ele>
        <time>2021-05-29T08:28:53.000Z</time>
      </trkpt>
      <trkpt lat="48.23147" lon="7.14691">
        <ele>687.3</ele>
        <time>2021-05-29T08:29:00.000Z</time>
      </trkpt>
      <trkpt lat="48.23139" lon="7.14681">
        <ele>688.3</ele>
        <time>2021-05-29T08:29:09.000Z</time>
      </trkpt>
      <trkpt lat="48.23133" lon="7.14669">
        <ele>690.2</ele>
        <time>2021-05-29T08:29:19.000Z</time>
      </trkpt>
      <trkpt lat="48.23126" lon="7.14661">
        <ele>690.7</ele>
        <time>2021-05-29T08:29:26.000Z</time>
      </trkpt>
      <trkpt lat="48.23119" lon="7.14652">
        <ele>691.7</ele>
        <time>2021-05-29T08:29:33.000Z</time>
      </trkpt>
      <trkpt lat="48.23112" lon="7.14641">
        <ele>693</ele>
        <time>2021-05-29T08:29:41.000Z</time>
      </trkpt>
      <trkpt lat="48.23105" lon="7.14632">
        <ele>694.1</ele>
        <time>2021-05-29T08:29:50.000Z</time>
      </trkpt>
      <trkpt lat="48.23097" lon="7.14624">
        <ele>694.7</ele>
        <time>2021-05-29T08:30:00.000Z</time>
      </trkpt>
      <trkpt lat="48.2309" lon="7.14615">
        <ele>695.8</ele>
        <time>2021-05-29T08:30:08.000Z</time>
      </trkpt>
      <trkpt lat="48.23082" lon="7.14606">
        <ele>697.1</ele>
        <time>2021-05-29T08:30:15.000Z</time>
      </trkpt>
      <trkpt lat="48.23073" lon="7.14601">
        <ele>698.5</ele>
        <time>2021-05-29T08:30:23.000Z</time>
      </trkpt>
      <trkpt lat="48.23063" lon="7.14601">
        <ele>698.7</ele>
        <time>2021-05-29T08:30:30.000Z</time>
      </trkpt>
      <trkpt lat="48.23054" lon="7.14603">
        <ele>698.5</ele>
        <time>2021-05-29T08:30:38.000Z</time>
      </trkpt>
      <trkpt lat="48.23045" lon="7.14606">
        <ele>698.2</ele>
        <time>2021-05-29T08:30:47.000Z</time>
      </trkpt>
      <trkpt lat="48.23035" lon="7.14611">
        <ele>697.2</ele>
        <time>2021-05-29T08:30:54.000Z</time>
      </trkpt>
      <trkpt lat="48.23027" lon="7.14616">
        <ele>696.2</ele>
        <time>2021-05-29T08:31:31.000Z</time>
      </trkpt>
      <trkpt lat="48.23017" lon="7.14616">
        <ele>696.4</ele>
        <time>2021-05-29T08:31:43.000Z</time>
      </trkpt>
      <trkpt lat="48.23007" lon="7.14618">
        <ele>696.1</ele>
        <time>2021-05-29T08:31:52.000Z</time>
      </trkpt>
      <trkpt lat="48.22998" lon="7.14623">
        <ele>694.7</ele>
        <time>2021-05-29T08:31:59.000Z</time>
      </trkpt>
      <trkpt lat="48.22988" lon="7.14624">
        <ele>693.1</ele>
        <time>2021-05-29T08:32:05.000Z</time>
      </trkpt>
      <trkpt lat="48.2298" lon="7.14619">
        <ele>692.9</ele>
        <time>2021-05-29T08:32:12.000Z</time>
      </trkpt>
      <trkpt lat="48.22972" lon="7.1461">
        <ele>693.7</ele>
        <time>2021-05-29T08:32:20.000Z</time>
      </trkpt>
      <trkpt lat="48.22965" lon="7.14598">
        <ele>695.2</ele>
        <time>2021-05-29T08:32:27.000Z</time>
      </trkpt>
      <trkpt lat="48.2296" lon="7.14585">
        <ele>697</ele>
        <time>2021-05-29T08:32:34.000Z</time>
      </trkpt>
      <trkpt lat="48.22955" lon="7.14574">
        <ele>698.1</ele>
        <time>2021-05-29T08:32:42.000Z</time>
      </trkpt>
      <trkpt lat="48.22948" lon="7.14565">
        <ele>698.3</ele>
        <time>2021-05-29T08:32:49.000Z</time>
      </trkpt>
      <trkpt lat="48.22941" lon="7.14556">
        <ele>698.1</ele>
        <time>2021-05-29T08:32:56.000Z</time>
      </trkpt>
      <trkpt lat="48.22933" lon="7.14547">
        <ele>698.1</ele>
        <time>2021-05-29T08:33:04.000Z</time>
      </trkpt>
      <trkpt lat="48.22929" lon="7.14535">
        <ele>698.8</ele>
        <time>2021-05-29T08:33:11.000Z</time>
      </trkpt>
      <trkpt lat="48.22922" lon="7.14526">
        <ele>698.5</ele>
        <time>2021-05-29T08:33:19.000Z</time>
      </trkpt>
      <trkpt lat="48.22916" lon="7.14514">
        <ele>698.8</ele>
        <time>2021-05-29T08:33:26.000Z</time>
      </trkpt>
      <trkpt lat="48.22911" lon="7.14502">
        <ele>698.8</ele>
        <time>2021-05-29T08:33:34.000Z</time>
      </trkpt>
      <trkpt lat="48.22905" lon="7.14493">
        <ele>698.5</ele>
        <time>2021-05-29T08:33:46.000Z</time>
      </trkpt>
      <trkpt lat="48.22899" lon="7.14481">
        <ele>698.7</ele>
        <time>2021-05-29T08:34:10.000Z</time>
      </trkpt>
      <trkpt lat="48.22894" lon="7.14468">
        <ele>699.9</ele>
        <time>2021-05-29T08:34:18.000Z</time>
      </trkpt>
      <trkpt lat="48.22889" lon="7.14455">
        <ele>700.7</ele>
        <time>2021-05-29T08:34:25.000Z</time>
      </trkpt>
      <trkpt lat="48.22884" lon="7.14444">
        <ele>701.5</ele>
        <time>2021-05-29T08:34:32.000Z</time>
      </trkpt>
      <trkpt lat="48.22877" lon="7.14432">
        <ele>701.6</ele>
        <time>2021-05-29T08:34:41.000Z</time>
      </trkpt>
      <trkpt lat="48.22872" lon="7.1442">
        <ele>702.4</ele>
        <time>2021-05-29T08:34:51.000Z</time>
      </trkpt>
      <trkpt lat="48.22867" lon="7.14409">
        <ele>703.8</ele>
        <time>2021-05-29T08:34:58.000Z</time>
      </trkpt>
      <trkpt lat="48.22859" lon="7.144">
        <ele>704.3</ele>
        <time>2021-05-29T08:35:05.000Z</time>
      </trkpt>
      <trkpt lat="48.22852" lon="7.14389">
        <ele>705.1</ele>
        <time>2021-05-29T08:35:12.000Z</time>
      </trkpt>
      <trkpt lat="48.22846" lon="7.1438">
        <ele>705.9</ele>
        <time>2021-05-29T08:35:23.000Z</time>
      </trkpt>
      <trkpt lat="48.22842" lon="7.14366">
        <ele>708.4</ele>
        <time>2021-05-29T08:35:41.000Z</time>
      </trkpt>
      <trkpt lat="48.22836" lon="7.14356">
        <ele>709.4</ele>
        <time>2021-05-29T08:36:01.000Z</time>
      </trkpt>
      <trkpt lat="48.2283" lon="7.14344">
        <ele>710.6</ele>
        <time>2021-05-29T08:36:07.000Z</time>
      </trkpt>
      <trkpt lat="48.22823" lon="7.14333">
        <ele>711.4</ele>
        <time>2021-05-29T08:36:14.000Z</time>
      </trkpt>
      <trkpt lat="48.22816" lon="7.14322">
        <ele>711.4</ele>
        <time>2021-05-29T08:36:20.000Z</time>
      </trkpt>
      <trkpt lat="48.22809" lon="7.14311">
        <ele>711.1</ele>
        <time>2021-05-29T08:36:28.000Z</time>
      </trkpt>
      <trkpt lat="48.22802" lon="7.14299">
        <ele>711.6</ele>
        <time>2021-05-29T08:36:35.000Z</time>
      </trkpt>
      <trkpt lat="48.22795" lon="7.14288">
        <ele>711.7</ele>
        <time>2021-05-29T08:36:42.000Z</time>
      </trkpt>
      <trkpt lat="48.22787" lon="7.14281">
        <ele>710.7</ele>
        <time>2021-05-29T08:36:49.000Z</time>
      </trkpt>
      <trkpt lat="48.22781" lon="7.14271">
        <ele>710.8</ele>
        <time>2021-05-29T08:36:55.000Z</time>
      </trkpt>
      <trkpt lat="48.22774" lon="7.14261">
        <ele>710.9</ele>
        <time>2021-05-29T08:37:02.000Z</time>
      </trkpt>
      <trkpt lat="48.22767" lon="7.1425">
        <ele>711.4</ele>
        <time>2021-05-29T08:37:10.000Z</time>
      </trkpt>
      <trkpt lat="48.22759" lon="7.1424">
        <ele>710.8</ele>
        <time>2021-05-29T08:37:17.000Z</time>
      </trkpt>
      <trkpt lat="48.22752" lon="7.1423">
        <ele>710.6</ele>
        <time>2021-05-29T08:37:23.000Z</time>
      </trkpt>
      <trkpt lat="48.22744" lon="7.14221">
        <ele>711.4</ele>
        <time>2021-05-29T08:37:31.000Z</time>
      </trkpt>
      <trkpt lat="48.22735" lon="7.14218">
        <ele>711.1</ele>
        <time>2021-05-29T08:37:38.000Z</time>
      </trkpt>
      <trkpt lat="48.22725" lon="7.14216">
        <ele>710.6</ele>
        <time>2021-05-29T08:37:45.000Z</time>
      </trkpt>
      <trkpt lat="48.22716" lon="7.14217">
        <ele>709.6</ele>
        <time>2021-05-29T08:37:52.000Z</time>
      </trkpt>
      <trkpt lat="48.22707" lon="7.14217">
        <ele>708.7</ele>
        <time>2021-05-29T08:38:02.000Z</time>
      </trkpt>
      <trkpt lat="48.22698" lon="7.14214">
        <ele>708.5</ele>
        <time>2021-05-29T08:38:10.000Z</time>
      </trkpt>
      <trkpt lat="48.2269" lon="7.14206">
        <ele>709.3</ele>
        <time>2021-05-29T08:38:20.000Z</time>
      </trkpt>
      <trkpt lat="48.22682" lon="7.14198">
        <ele>710.2</ele>
        <time>2021-05-29T08:38:30.000Z</time>
      </trkpt>
      <trkpt lat="48.22675" lon="7.1419">
        <ele>711.2</ele>
        <time>2021-05-29T08:38:38.000Z</time>
      </trkpt>
      <trkpt lat="48.22669" lon="7.14179">
        <ele>712.6</ele>
        <time>2021-05-29T08:38:47.000Z</time>
      </trkpt>
      <trkpt lat="48.22663" lon="7.14168">
        <ele>713.7</ele>
        <time>2021-05-29T08:38:56.000Z</time>
      </trkpt>
      <trkpt lat="48.2266" lon="7.14155">
        <ele>717.1</ele>
        <time>2021-05-29T08:39:06.000Z</time>
      </trkpt>
      <trkpt lat="48.22652" lon="7.14145">
        <ele>718.4</ele>
        <time>2021-05-29T08:39:15.000Z</time>
      </trkpt>
      <trkpt lat="48.22645" lon="7.14137">
        <ele>719.2</ele>
        <time>2021-05-29T08:39:26.000Z</time>
      </trkpt>
      <trkpt lat="48.22639" lon="7.14125">
        <ele>721.3</ele>
        <time>2021-05-29T08:39:34.000Z</time>
      </trkpt>
      <trkpt lat="48.22634" lon="7.14112">
        <ele>724.4</ele>
        <time>2021-05-29T08:39:45.000Z</time>
      </trkpt>
      <trkpt lat="48.2263" lon="7.141">
        <ele>727.6</ele>
        <time>2021-05-29T08:39:53.000Z</time>
      </trkpt>
      <trkpt lat="48.22622" lon="7.14093">
        <ele>727.3</ele>
        <time>2021-05-29T08:40:04.000Z</time>
      </trkpt>
      <trkpt lat="48.22614" lon="7.14085">
        <ele>727.8</ele>
        <time>2021-05-29T08:40:12.000Z</time>
      </trkpt>
      <trkpt lat="48.22605" lon="7.14078">
        <ele>728.2</ele>
        <time>2021-05-29T08:40:21.000Z</time>
      </trkpt>
      <trkpt lat="48.22597" lon="7.14072">
        <ele>728.1</ele>
        <time>2021-05-29T08:40:30.000Z</time>
      </trkpt>
      <trkpt lat="48.22587" lon="7.14068">
        <ele>727.2</ele>
        <time>2021-05-29T08:40:39.000Z</time>
      </trkpt>
      <trkpt lat="48.22578" lon="7.14066">
        <ele>725.5</ele>
        <time>2021-05-29T08:40:48.000Z</time>
      </trkpt>
      <trkpt lat="48.2257" lon="7.14057">
        <ele>726.8</ele>
        <time>2021-05-29T08:40:56.000Z</time>
      </trkpt>
      <trkpt lat="48.22563" lon="7.14047">
        <ele>728.3</ele>
        <time>2021-05-29T08:41:02.000Z</time>
      </trkpt>
      <trkpt lat="48.22556" lon="7.14037">
        <ele>730.3</ele>
        <time>2021-05-29T08:41:09.000Z</time>
      </trkpt>
      <trkpt lat="48.2255" lon="7.14026">
        <ele>732.5</ele>
        <time>2021-05-29T08:41:16.000Z</time>
      </trkpt>
      <trkpt lat="48.22541" lon="7.1402">
        <ele>732.1</ele>
        <time>2021-05-29T08:41:23.000Z</time>
      </trkpt>
      <trkpt lat="48.22535" lon="7.1401">
        <ele>733.7</ele>
        <time>2021-05-29T08:41:31.000Z</time>
      </trkpt>
      <trkpt lat="48.22533" lon="7.13991">
        <ele>740.3</ele>
        <time>2021-05-29T08:42:09.000Z</time>
      </trkpt>
      <trkpt lat="48.22527" lon="7.13978">
        <ele>743.8</ele>
        <time>2021-05-29T08:42:23.000Z</time>
      </trkpt>
      <trkpt lat="48.22521" lon="7.13967">
        <ele>746.9</ele>
        <time>2021-05-29T08:42:31.000Z</time>
      </trkpt>
      <trkpt lat="48.22514" lon="7.13958">
        <ele>748.4</ele>
        <time>2021-05-29T08:42:41.000Z</time>
      </trkpt>
      <trkpt lat="48.22508" lon="7.13947">
        <ele>750.8</ele>
        <time>2021-05-29T08:42:49.000Z</time>
      </trkpt>
      <trkpt lat="48.22503" lon="7.13936">
        <ele>753.9</ele>
        <time>2021-05-29T08:42:57.000Z</time>
      </trkpt>
      <trkpt lat="48.22495" lon="7.13928">
        <ele>754.4</ele>
        <time>2021-05-29T08:43:08.000Z</time>
      </trkpt>
      <trkpt lat="48.22488" lon="7.13916">
        <ele>756.3</ele>
        <time>2021-05-29T08:43:17.000Z</time>
      </trkpt>
      <trkpt lat="48.22481" lon="7.13906">
        <ele>756.3</ele>
        <time>2021-05-29T08:43:24.000Z</time>
      </trkpt>
      <trkpt lat="48.22476" lon="7.13894">
        <ele>757.7</ele>
        <time>2021-05-29T08:43:32.000Z</time>
      </trkpt>
      <trkpt lat="48.22471" lon="7.13882">
        <ele>758.9</ele>
        <time>2021-05-29T08:43:41.000Z</time>
      </trkpt>
      <trkpt lat="48.22466" lon="7.1387">
        <ele>759.8</ele>
        <time>2021-05-29T08:43:49.000Z</time>
      </trkpt>
      <trkpt lat="48.2246" lon="7.13858">
        <ele>760.2</ele>
        <time>2021-05-29T08:43:57.000Z</time>
      </trkpt>
      <trkpt lat="48.22454" lon="7.13847">
        <ele>760.4</ele>
        <time>2021-05-29T08:44:06.000Z</time>
      </trkpt>
      <trkpt lat="48.22448" lon="7.13838">
        <ele>759.6</ele>
        <time>2021-05-29T08:44:14.000Z</time>
      </trkpt>
      <trkpt lat="48.22445" lon="7.13825">
        <ele>760.3</ele>
        <time>2021-05-29T08:44:23.000Z</time>
      </trkpt>
      <trkpt lat="48.22444" lon="7.13811">
        <ele>761.7</ele>
        <time>2021-05-29T08:44:31.000Z</time>
      </trkpt>
      <trkpt lat="48.22445" lon="7.13797">
        <ele>764.6</ele>
        <time>2021-05-29T08:44:44.000Z</time>
      </trkpt>
      <trkpt lat="48.2245" lon="7.13783">
        <ele>768.8</ele>
        <time>2021-05-29T08:44:55.000Z</time>
      </trkpt>
      <trkpt lat="48.22453" lon="7.13769">
        <ele>772.7</ele>
        <time>2021-05-29T08:45:02.000Z</time>
      </trkpt>
      <trkpt lat="48.22451" lon="7.13755">
        <ele>773.8</ele>
        <time>2021-05-29T08:45:11.000Z</time>
      </trkpt>
      <trkpt lat="48.22451" lon="7.13741">
        <ele>775.9</ele>
        <time>2021-05-29T08:45:19.000Z</time>
      </trkpt>
      <trkpt lat="48.22451" lon="7.13728">
        <ele>779.1</ele>
        <time>2021-05-29T08:45:26.000Z</time>
      </trkpt>
      <trkpt lat="48.22455" lon="7.13714">
        <ele>783.6</ele>
        <time>2021-05-29T08:45:37.000Z</time>
      </trkpt>
      <trkpt lat="48.22454" lon="7.13699">
        <ele>786.3</ele>
        <time>2021-05-29T08:45:46.000Z</time>
      </trkpt>
      <trkpt lat="48.2245" lon="7.13686">
        <ele>786.8</ele>
        <time>2021-05-29T08:45:55.000Z</time>
      </trkpt>
      <trkpt lat="48.22447" lon="7.13671">
        <ele>788.9</ele>
        <time>2021-05-29T08:46:03.000Z</time>
      </trkpt>
      <trkpt lat="48.22444" lon="7.13658">
        <ele>790</ele>
        <time>2021-05-29T08:46:12.000Z</time>
      </trkpt>
      <trkpt lat="48.22436" lon="7.13639">
        <ele>789.9</ele>
        <time>2021-05-29T08:46:30.000Z</time>
      </trkpt>
      <trkpt lat="48.22428" lon="7.1363">
        <ele>787.9</ele>
        <time>2021-05-29T08:46:39.000Z</time>
      </trkpt>
      <trkpt lat="48.22419" lon="7.13626">
        <ele>785.3</ele>
        <time>2021-05-29T08:46:47.000Z</time>
      </trkpt>
      <trkpt lat="48.22409" lon="7.13625">
        <ele>782.6</ele>
        <time>2021-05-29T08:46:55.000Z</time>
      </trkpt>
      <trkpt lat="48.224" lon="7.13627">
        <ele>779.8</ele>
        <time>2021-05-29T08:47:02.000Z</time>
      </trkpt>
      <trkpt lat="48.22392" lon="7.13633">
        <ele>776.5</ele>
        <time>2021-05-29T08:47:07.000Z</time>
      </trkpt>
      <trkpt lat="48.22383" lon="7.13634">
        <ele>774.1</ele>
        <time>2021-05-29T08:47:14.000Z</time>
      </trkpt>
      <trkpt lat="48.22374" lon="7.13637">
        <ele>771</ele>
        <time>2021-05-29T08:47:22.000Z</time>
      </trkpt>
      <trkpt lat="48.22365" lon="7.13631">
        <ele>770.1</ele>
        <time>2021-05-29T08:47:31.000Z</time>
      </trkpt>
      <trkpt lat="48.22358" lon="7.13622">
        <ele>769.9</ele>
        <time>2021-05-29T08:47:41.000Z</time>
      </trkpt>
      <trkpt lat="48.22354" lon="7.13609">
        <ele>771.8</ele>
        <time>2021-05-29T08:47:55.000Z</time>
      </trkpt>
      <trkpt lat="48.22355" lon="7.13595">
        <ele>774.8</ele>
        <time>2021-05-29T08:48:04.000Z</time>
      </trkpt>
      <trkpt lat="48.22359" lon="7.13583">
        <ele>778.3</ele>
        <time>2021-05-29T08:48:10.000Z</time>
      </trkpt>
      <trkpt lat="48.22363" lon="7.13567">
        <ele>782.7</ele>
        <time>2021-05-29T08:48:16.000Z</time>
      </trkpt>
      <trkpt lat="48.22368" lon="7.13554">
        <ele>786.8</ele>
        <time>2021-05-29T08:48:23.000Z</time>
      </trkpt>
      <trkpt lat="48.22366" lon="7.13539">
        <ele>789.7</ele>
        <time>2021-05-29T08:48:30.000Z</time>
      </trkpt>
      <trkpt lat="48.22365" lon="7.13525">
        <ele>792.6</ele>
        <time>2021-05-29T08:48:36.000Z</time>
      </trkpt>
      <trkpt lat="48.22362" lon="7.13512">
        <ele>794.5</ele>
        <time>2021-05-29T08:48:46.000Z</time>
      </trkpt>
      <trkpt lat="48.22358" lon="7.13498">
        <ele>797.1</ele>
        <time>2021-05-29T08:48:54.000Z</time>
      </trkpt>
      <trkpt lat="48.22354" lon="7.13486">
        <ele>801.6</ele>
        <time>2021-05-29T08:49:02.000Z</time>
      </trkpt>
      <trkpt lat="48.22346" lon="7.13479">
        <ele>802.3</ele>
        <time>2021-05-29T08:49:10.000Z</time>
      </trkpt>
      <trkpt lat="48.22338" lon="7.13472">
        <ele>803.5</ele>
        <time>2021-05-29T08:49:16.000Z</time>
      </trkpt>
      <trkpt lat="48.2233" lon="7.13465">
        <ele>806.1</ele>
        <time>2021-05-29T08:49:22.000Z</time>
      </trkpt>
      <trkpt lat="48.2232" lon="7.1346">
        <ele>809.2</ele>
        <time>2021-05-29T08:49:30.000Z</time>
      </trkpt>
      <trkpt lat="48.22311" lon="7.13456">
        <ele>811.4</ele>
        <time>2021-05-29T08:49:38.000Z</time>
      </trkpt>
      <trkpt lat="48.22302" lon="7.13453">
        <ele>813.7</ele>
        <time>2021-05-29T08:49:46.000Z</time>
      </trkpt>
      <trkpt lat="48.22294" lon="7.13449">
        <ele>815.9</ele>
        <time>2021-05-29T08:49:51.000Z</time>
      </trkpt>
      <trkpt lat="48.22283" lon="7.13445">
        <ele>818.2</ele>
        <time>2021-05-29T08:49:57.000Z</time>
      </trkpt>
      <trkpt lat="48.22275" lon="7.13442">
        <ele>820</ele>
        <time>2021-05-29T08:50:04.000Z</time>
      </trkpt>
      <trkpt lat="48.22266" lon="7.13443">
        <ele>819.9</ele>
        <time>2021-05-29T08:50:13.000Z</time>
      </trkpt>
      <trkpt lat="48.22258" lon="7.1345">
        <ele>817.4</ele>
        <time>2021-05-29T08:50:21.000Z</time>
      </trkpt>
      <trkpt lat="48.22251" lon="7.13461">
        <ele>813.3</ele>
        <time>2021-05-29T08:50:28.000Z</time>
      </trkpt>
      <trkpt lat="48.22245" lon="7.13471">
        <ele>809.3</ele>
        <time>2021-05-29T08:50:34.000Z</time>
      </trkpt>
      <trkpt lat="48.22236" lon="7.13477">
        <ele>807.2</ele>
        <time>2021-05-29T08:50:39.000Z</time>
      </trkpt>
      <trkpt lat="48.22228" lon="7.13485">
        <ele>804.4</ele>
        <time>2021-05-29T08:50:44.000Z</time>
      </trkpt>
      <trkpt lat="48.22219" lon="7.1349">
        <ele>802.8</ele>
        <time>2021-05-29T08:50:54.000Z</time>
      </trkpt>
      <trkpt lat="48.2221" lon="7.1349">
        <ele>803.2</ele>
        <time>2021-05-29T08:51:00.000Z</time>
      </trkpt>
      <trkpt lat="48.22201" lon="7.13491">
        <ele>803.1</ele>
        <time>2021-05-29T08:51:08.000Z</time>
      </trkpt>
      <trkpt lat="48.22192" lon="7.13488">
        <ele>804.5</ele>
        <time>2021-05-29T08:51:18.000Z</time>
      </trkpt>
      <trkpt lat="48.22183" lon="7.13484">
        <ele>805.6</ele>
        <time>2021-05-29T08:51:31.000Z</time>
      </trkpt>
      <trkpt lat="48.22174" lon="7.13481">
        <ele>806.8</ele>
        <time>2021-05-29T08:51:37.000Z</time>
      </trkpt>
      <trkpt lat="48.22167" lon="7.1347">
        <ele>809.6</ele>
        <time>2021-05-29T08:51:43.000Z</time>
      </trkpt>
      <trkpt lat="48.22163" lon="7.13457">
        <ele>812.1</ele>
        <time>2021-05-29T08:51:53.000Z</time>
      </trkpt>
      <trkpt lat="48.22154" lon="7.13452">
        <ele>811.4</ele>
        <time>2021-05-29T08:52:01.000Z</time>
      </trkpt>
      <trkpt lat="48.22144" lon="7.13447">
        <ele>810.5</ele>
        <time>2021-05-29T08:52:08.000Z</time>
      </trkpt>
      <trkpt lat="48.22135" lon="7.13442">
        <ele>810</ele>
        <time>2021-05-29T08:52:15.000Z</time>
      </trkpt>
      <trkpt lat="48.22127" lon="7.13435">
        <ele>810.2</ele>
        <time>2021-05-29T08:52:23.000Z</time>
      </trkpt>
      <trkpt lat="48.22118" lon="7.1343">
        <ele>809.6</ele>
        <time>2021-05-29T08:52:31.000Z</time>
      </trkpt>
      <trkpt lat="48.22119" lon="7.13416">
        <ele>813.5</ele>
        <time>2021-05-29T08:52:42.000Z</time>
      </trkpt>
      <trkpt lat="48.2211" lon="7.13408">
        <ele>813.7</ele>
        <time>2021-05-29T08:52:54.000Z</time>
      </trkpt>
      <trkpt lat="48.22103" lon="7.13398">
        <ele>814.8</ele>
        <time>2021-05-29T08:53:08.000Z</time>
      </trkpt>
      <trkpt lat="48.22096" lon="7.13389">
        <ele>815.7</ele>
        <time>2021-05-29T08:53:18.000Z</time>
      </trkpt>
      <trkpt lat="48.2209" lon="7.13378">
        <ele>817.3</ele>
        <time>2021-05-29T08:53:30.000Z</time>
      </trkpt>
      <trkpt lat="48.22084" lon="7.13368">
        <ele>818.6</ele>
        <time>2021-05-29T08:53:41.000Z</time>
      </trkpt>
      <trkpt lat="48.22081" lon="7.13355">
        <ele>820.6</ele>
        <time>2021-05-29T08:53:50.000Z</time>
      </trkpt>
      <trkpt lat="48.22077" lon="7.13343">
        <ele>821.9</ele>
        <time>2021-05-29T08:54:02.000Z</time>
      </trkpt>
      <trkpt lat="48.22073" lon="7.13329">
        <ele>823.1</ele>
        <time>2021-05-29T08:54:14.000Z</time>
      </trkpt>
      <trkpt lat="48.22071" lon="7.13314">
        <ele>825.8</ele>
        <time>2021-05-29T08:54:22.000Z</time>
      </trkpt>
      <trkpt lat="48.22069" lon="7.13299">
        <ele>827.8</ele>
        <time>2021-05-29T08:54:31.000Z</time>
      </trkpt>
      <trkpt lat="48.22067" lon="7.13284">
        <ele>830</ele>
        <time>2021-05-29T08:54:39.000Z</time>
      </trkpt>
      <trkpt lat="48.22066" lon="7.13271">
        <ele>832.1</ele>
        <time>2021-05-29T08:54:46.000Z</time>
      </trkpt>
      <trkpt lat="48.22061" lon="7.13258">
        <ele>832.8</ele>
        <time>2021-05-29T08:54:55.000Z</time>
      </trkpt>
      <trkpt lat="48.22056" lon="7.13246">
        <ele>832.9</ele>
        <time>2021-05-29T08:55:02.000Z</time>
      </trkpt>
      <trkpt lat="48.22053" lon="7.13233">
        <ele>833.7</ele>
        <time>2021-05-29T08:55:10.000Z</time>
      </trkpt>
      <trkpt lat="48.2205" lon="7.13221">
        <ele>834.6</ele>
        <time>2021-05-29T08:55:20.000Z</time>
      </trkpt>
      <trkpt lat="48.22047" lon="7.13207">
        <ele>835.9</ele>
        <time>2021-05-29T08:55:29.000Z</time>
      </trkpt>
      <trkpt lat="48.22041" lon="7.13196">
        <ele>835.5</ele>
        <time>2021-05-29T08:55:37.000Z</time>
      </trkpt>
      <trkpt lat="48.2204" lon="7.13182">
        <ele>837.6</ele>
        <time>2021-05-29T08:55:46.000Z</time>
      </trkpt>
      <trkpt lat="48.22041" lon="7.13167">
        <ele>840.4</ele>
        <time>2021-05-29T08:55:53.000Z</time>
      </trkpt>
      <trkpt lat="48.22036" lon="7.13156">
        <ele>840.4</ele>
        <time>2021-05-29T08:56:00.000Z</time>
      </trkpt>
      <trkpt lat="48.22028" lon="7.13146">
        <ele>839.2</ele>
        <time>2021-05-29T08:56:09.000Z</time>
      </trkpt>
      <trkpt lat="48.22024" lon="7.13134">
        <ele>839.4</ele>
        <time>2021-05-29T08:56:22.000Z</time>
      </trkpt>
      <trkpt lat="48.22025" lon="7.1312">
        <ele>842.5</ele>
        <time>2021-05-29T08:56:31.000Z</time>
      </trkpt>
      <trkpt lat="48.22021" lon="7.13107">
        <ele>843.1</ele>
        <time>2021-05-29T08:56:40.000Z</time>
      </trkpt>
      <trkpt lat="48.22018" lon="7.13094">
        <ele>844.4</ele>
        <time>2021-05-29T08:56:46.000Z</time>
      </trkpt>
      <trkpt lat="48.22016" lon="7.1308">
        <ele>846</ele>
        <time>2021-05-29T08:56:57.000Z</time>
      </trkpt>
      <trkpt lat="48.22015" lon="7.13065">
        <ele>848.5</ele>
        <time>2021-05-29T08:57:08.000Z</time>
      </trkpt>
      <trkpt lat="48.22015" lon="7.13051">
        <ele>851</ele>
        <time>2021-05-29T08:57:18.000Z</time>
      </trkpt>
      <trkpt lat="48.22014" lon="7.13036">
        <ele>853.8</ele>
        <time>2021-05-29T08:57:27.000Z</time>
      </trkpt>
      <trkpt lat="48.22015" lon="7.13022">
        <ele>856.8</ele>
        <time>2021-05-29T08:57:36.000Z</time>
      </trkpt>
      <trkpt lat="48.22011" lon="7.13008">
        <ele>858.1</ele>
        <time>2021-05-29T08:57:45.000Z</time>
      </trkpt>
      <trkpt lat="48.22005" lon="7.12996">
        <ele>858.8</ele>
        <time>2021-05-29T08:58:19.000Z</time>
      </trkpt>
      <trkpt lat="48.21999" lon="7.12985">
        <ele>859.6</ele>
        <time>2021-05-29T08:58:35.000Z</time>
      </trkpt>
      <trkpt lat="48.21993" lon="7.12971">
        <ele>862.1</ele>
        <time>2021-05-29T08:58:45.000Z</time>
      </trkpt>
      <trkpt lat="48.21988" lon="7.1296">
        <ele>864.1</ele>
        <time>2021-05-29T08:58:50.000Z</time>
      </trkpt>
      <trkpt lat="48.21981" lon="7.1295">
        <ele>865.4</ele>
        <time>2021-05-29T08:58:59.000Z</time>
      </trkpt>
      <trkpt lat="48.21974" lon="7.12938">
        <ele>867.3</ele>
        <time>2021-05-29T08:59:10.000Z</time>
      </trkpt>
      <trkpt lat="48.21967" lon="7.12929">
        <ele>868.5</ele>
        <time>2021-05-29T08:59:18.000Z</time>
      </trkpt>
      <trkpt lat="48.2196" lon="7.1292">
        <ele>869.5</ele>
        <time>2021-05-29T08:59:27.000Z</time>
      </trkpt>
      <trkpt lat="48.2195" lon="7.12915">
        <ele>869.1</ele>
        <time>2021-05-29T08:59:36.000Z</time>
      </trkpt>
      <trkpt lat="48.21941" lon="7.12911">
        <ele>868.4</ele>
        <time>2021-05-29T08:59:45.000Z</time>
      </trkpt>
      <trkpt lat="48.21933" lon="7.12903">
        <ele>868.5</ele>
        <time>2021-05-29T08:59:55.000Z</time>
      </trkpt>
      <trkpt lat="48.21924" lon="7.12897">
        <ele>868.2</ele>
        <time>2021-05-29T09:00:05.000Z</time>
      </trkpt>
      <trkpt lat="48.21918" lon="7.12886">
        <ele>869.2</ele>
        <time>2021-05-29T09:00:15.000Z</time>
      </trkpt>
      <trkpt lat="48.21911" lon="7.12877">
        <ele>870.5</ele>
        <time>2021-05-29T09:00:23.000Z</time>
      </trkpt>
      <trkpt lat="48.21907" lon="7.12864">
        <ele>872.9</ele>
        <time>2021-05-29T09:00:32.000Z</time>
      </trkpt>
      <trkpt lat="48.21899" lon="7.12853">
        <ele>874.9</ele>
        <time>2021-05-29T09:00:41.000Z</time>
      </trkpt>
      <trkpt lat="48.21895" lon="7.12841">
        <ele>877.2</ele>
        <time>2021-05-29T09:00:47.000Z</time>
      </trkpt>
      <trkpt lat="48.21889" lon="7.1283">
        <ele>879.3</ele>
        <time>2021-05-29T09:00:57.000Z</time>
      </trkpt>
      <trkpt lat="48.21883" lon="7.12818">
        <ele>881.7</ele>
        <time>2021-05-29T09:01:06.000Z</time>
      </trkpt>
      <trkpt lat="48.21875" lon="7.12809">
        <ele>883.5</ele>
        <time>2021-05-29T09:01:13.000Z</time>
      </trkpt>
      <trkpt lat="48.2187" lon="7.12796">
        <ele>886</ele>
        <time>2021-05-29T09:01:29.000Z</time>
      </trkpt>
      <trkpt lat="48.21867" lon="7.12783">
        <ele>888.9</ele>
        <time>2021-05-29T09:01:39.000Z</time>
      </trkpt>
      <trkpt lat="48.21856" lon="7.12783">
        <ele>888.8</ele>
        <time>2021-05-29T09:01:50.000Z</time>
      </trkpt>
      <trkpt lat="48.21845" lon="7.12782">
        <ele>889.1</ele>
        <time>2021-05-29T09:01:56.000Z</time>
      </trkpt>
      <trkpt lat="48.21836" lon="7.12781">
        <ele>889.4</ele>
        <time>2021-05-29T09:02:01.000Z</time>
      </trkpt>
      <trkpt lat="48.21826" lon="7.12786">
        <ele>888.9</ele>
        <time>2021-05-29T09:02:09.000Z</time>
      </trkpt>
      <trkpt lat="48.21818" lon="7.12791">
        <ele>888.4</ele>
        <time>2021-05-29T09:02:15.000Z</time>
      </trkpt>
      <trkpt lat="48.2181" lon="7.128">
        <ele>887.3</ele>
        <time>2021-05-29T09:02:21.000Z</time>
      </trkpt>
      <trkpt lat="48.218" lon="7.12802">
        <ele>887.7</ele>
        <time>2021-05-29T09:02:30.000Z</time>
      </trkpt>
      <trkpt lat="48.2179" lon="7.12803">
        <ele>888.5</ele>
        <time>2021-05-29T09:02:38.000Z</time>
      </trkpt>
      <trkpt lat="48.21781" lon="7.128">
        <ele>889.9</ele>
        <time>2021-05-29T09:02:48.000Z</time>
      </trkpt>
      <trkpt lat="48.21771" lon="7.128">
        <ele>890.6</ele>
        <time>2021-05-29T09:02:59.000Z</time>
      </trkpt>
      <trkpt lat="48.21762" lon="7.12801">
        <ele>891.3</ele>
        <time>2021-05-29T09:03:11.000Z</time>
      </trkpt>
      <trkpt lat="48.21753" lon="7.12798">
        <ele>892.6</ele>
        <time>2021-05-29T09:03:24.000Z</time>
      </trkpt>
      <trkpt lat="48.21761" lon="7.1279">
        <ele>893.5</ele>
        <time>2021-05-29T09:03:40.000Z</time>
      </trkpt>
      <trkpt lat="48.21769" lon="7.12782">
        <ele>894.2</ele>
        <time>2021-05-29T09:03:50.000Z</time>
      </trkpt>
      <trkpt lat="48.21776" lon="7.12773">
        <ele>895.3</ele>
        <time>2021-05-29T09:03:58.000Z</time>
      </trkpt>
      <trkpt lat="48.21783" lon="7.12764">
        <ele>896.5</ele>
        <time>2021-05-29T09:04:07.000Z</time>
      </trkpt>
      <trkpt lat="48.21788" lon="7.1275">
        <ele>898.6</ele>
        <time>2021-05-29T09:04:14.000Z</time>
      </trkpt>
      <trkpt lat="48.21794" lon="7.1274">
        <ele>899.6</ele>
        <time>2021-05-29T09:04:21.000Z</time>
      </trkpt>
      <trkpt lat="48.218" lon="7.12727">
        <ele>900.8</ele>
        <time>2021-05-29T09:04:31.000Z</time>
      </trkpt>
      <trkpt lat="48.21804" lon="7.12716">
        <ele>901.9</ele>
        <time>2021-05-29T09:04:40.000Z</time>
      </trkpt>
      <trkpt lat="48.21809" lon="7.12702">
        <ele>903.3</ele>
        <time>2021-05-29T09:04:48.000Z</time>
      </trkpt>
      <trkpt lat="48.21815" lon="7.1269">
        <ele>904.3</ele>
        <time>2021-05-29T09:04:58.000Z</time>
      </trkpt>
      <trkpt lat="48.21821" lon="7.12679">
        <ele>905.3</ele>
        <time>2021-05-29T09:05:09.000Z</time>
      </trkpt>
      <trkpt lat="48.21828" lon="7.12669">
        <ele>906</ele>
        <time>2021-05-29T09:05:16.000Z</time>
      </trkpt>
      <trkpt lat="48.21833" lon="7.12657">
        <ele>907.1</ele>
        <time>2021-05-29T09:05:24.000Z</time>
      </trkpt>
      <trkpt lat="48.21837" lon="7.12645">
        <ele>908.7</ele>
        <time>2021-05-29T09:05:34.000Z</time>
      </trkpt>
      <trkpt lat="48.21841" lon="7.12632">
        <ele>910.3</ele>
        <time>2021-05-29T09:05:41.000Z</time>
      </trkpt>
      <trkpt lat="48.21846" lon="7.12619">
        <ele>911.9</ele>
        <time>2021-05-29T09:05:49.000Z</time>
      </trkpt>
      <trkpt lat="48.2185" lon="7.12607">
        <ele>913.4</ele>
        <time>2021-05-29T09:05:57.000Z</time>
      </trkpt>
      <trkpt lat="48.21855" lon="7.12594">
        <ele>914.8</ele>
        <time>2021-05-29T09:06:04.000Z</time>
      </trkpt>
      <trkpt lat="48.21862" lon="7.12584">
        <ele>915.9</ele>
        <time>2021-05-29T09:06:13.000Z</time>
      </trkpt>
      <trkpt lat="48.21868" lon="7.12573">
        <ele>916.4</ele>
        <time>2021-05-29T09:06:23.000Z</time>
      </trkpt>
      <trkpt lat="48.21873" lon="7.12562">
        <ele>916.8</ele>
        <time>2021-05-29T09:06:32.000Z</time>
      </trkpt>
      <trkpt lat="48.21879" lon="7.12551">
        <ele>917</ele>
        <time>2021-05-29T09:06:42.000Z</time>
      </trkpt>
      <trkpt lat="48.21884" lon="7.12539">
        <ele>917.1</ele>
        <time>2021-05-29T09:06:50.000Z</time>
      </trkpt>
      <trkpt lat="48.21889" lon="7.12528">
        <ele>917.1</ele>
        <time>2021-05-29T09:06:57.000Z</time>
      </trkpt>
      <trkpt lat="48.21894" lon="7.12516">
        <ele>916.9</ele>
        <time>2021-05-29T09:07:06.000Z</time>
      </trkpt>
      <trkpt lat="48.21899" lon="7.12503">
        <ele>916.7</ele>
        <time>2021-05-29T09:07:15.000Z</time>
      </trkpt>
      <trkpt lat="48.21905" lon="7.12493">
        <ele>916.3</ele>
        <time>2021-05-29T09:07:24.000Z</time>
      </trkpt>
      <trkpt lat="48.21912" lon="7.12482">
        <ele>915.8</ele>
        <time>2021-05-29T09:07:33.000Z</time>
      </trkpt>
      <trkpt lat="48.21921" lon="7.12475">
        <ele>915.2</ele>
        <time>2021-05-29T09:07:44.000Z</time>
      </trkpt>
      <trkpt lat="48.2192" lon="7.1249">
        <ele>915.1</ele>
        <time>2021-05-29T09:08:39.000Z</time>
      </trkpt>
      <trkpt lat="48.21928" lon="7.12492">
        <ele>914.9</ele>
        <time>2021-05-29T09:09:00.000Z</time>
      </trkpt>
      <trkpt lat="48.21921" lon="7.12484">
        <ele>915.1</ele>
        <time>2021-05-29T09:09:18.000Z</time>
      </trkpt>
      <trkpt lat="48.21911" lon="7.12478">
        <ele>915.9</ele>
        <time>2021-05-29T09:09:23.000Z</time>
      </trkpt>
      <trkpt lat="48.21923" lon="7.12489">
        <ele>915</ele>
        <time>2021-05-29T09:09:52.000Z</time>
      </trkpt>
      <trkpt lat="48.21914" lon="7.12481">
        <ele>915.6</ele>
        <time>2021-05-29T09:09:58.000Z</time>
      </trkpt>
      <trkpt lat="48.21922" lon="7.12488">
        <ele>915.1</ele>
        <time>2021-05-29T09:10:10.000Z</time>
      </trkpt>
      <trkpt lat="48.21916" lon="7.12499">
        <ele>915.1</ele>
        <time>2021-05-29T09:10:43.000Z</time>
      </trkpt>
      <trkpt lat="48.21926" lon="7.12499">
        <ele>914.9</ele>
        <time>2021-05-29T09:10:50.000Z</time>
      </trkpt>
      <trkpt lat="48.2192" lon="7.12488">
        <ele>915.1</ele>
        <time>2021-05-29T09:11:04.000Z</time>
      </trkpt>
      <trkpt lat="48.21911" lon="7.12491">
        <ele>915.7</ele>
        <time>2021-05-29T09:11:18.000Z</time>
      </trkpt>
      <trkpt lat="48.2192" lon="7.12486">
        <ele>915.1</ele>
        <time>2021-05-29T09:12:03.000Z</time>
      </trkpt>
      <trkpt lat="48.21929" lon="7.12489">
        <ele>914.9</ele>
        <time>2021-05-29T09:12:13.000Z</time>
      </trkpt>
      <trkpt lat="48.21939" lon="7.1251">
        <ele>914.8</ele>
        <time>2021-05-29T09:12:18.000Z</time>
      </trkpt>
      <trkpt lat="48.21931" lon="7.12499">
        <ele>914.8</ele>
        <time>2021-05-29T09:12:25.000Z</time>
      </trkpt>
      <trkpt lat="48.21925" lon="7.12487">
        <ele>915</ele>
        <time>2021-05-29T09:12:30.000Z</time>
      </trkpt>
      <trkpt lat="48.21931" lon="7.12498">
        <ele>914.8</ele>
        <time>2021-05-29T09:12:49.000Z</time>
      </trkpt>
      <trkpt lat="48.21935" lon="7.12511">
        <ele>914.9</ele>
        <time>2021-05-29T09:12:57.000Z</time>
      </trkpt>
      <trkpt lat="48.21938" lon="7.12525">
        <ele>915</ele>
        <time>2021-05-29T09:13:04.000Z</time>
      </trkpt>
      <trkpt lat="48.21944" lon="7.12536">
        <ele>915</ele>
        <time>2021-05-29T09:13:12.000Z</time>
      </trkpt>
      <trkpt lat="48.21943" lon="7.12519">
        <ele>914.8</ele>
        <time>2021-05-29T09:14:43.000Z</time>
      </trkpt>
      <trkpt lat="48.21944" lon="7.12503">
        <ele>914.7</ele>
        <time>2021-05-29T09:14:48.000Z</time>
      </trkpt>
      <trkpt lat="48.21944" lon="7.12486">
        <ele>914.6</ele>
        <time>2021-05-29T09:14:53.000Z</time>
      </trkpt>
      <trkpt lat="48.21953" lon="7.12488">
        <ele>914.4</ele>
        <time>2021-05-29T09:15:01.000Z</time>
      </trkpt>
      <trkpt lat="48.21963" lon="7.12489">
        <ele>914.3</ele>
        <time>2021-05-29T09:15:31.000Z</time>
      </trkpt>
      <trkpt lat="48.21968" lon="7.125">
        <ele>914.4</ele>
        <time>2021-05-29T09:15:40.000Z</time>
      </trkpt>
      <trkpt lat="48.21975" lon="7.1251">
        <ele>914.3</ele>
        <time>2021-05-29T09:15:49.000Z</time>
      </trkpt>
      <trkpt lat="48.21982" lon="7.1252">
        <ele>914.3</ele>
        <time>2021-05-29T09:15:57.000Z</time>
      </trkpt>
      <trkpt lat="48.21988" lon="7.1253">
        <ele>914.2</ele>
        <time>2021-05-29T09:16:04.000Z</time>
      </trkpt>
      <trkpt lat="48.21995" lon="7.1254">
        <ele>914.1</ele>
        <time>2021-05-29T09:16:13.000Z</time>
      </trkpt>
      <trkpt lat="48.21999" lon="7.12554">
        <ele>914</ele>
        <time>2021-05-29T09:16:21.000Z</time>
      </trkpt>
      <trkpt lat="48.22006" lon="7.12562">
        <ele>914.9</ele>
        <time>2021-05-29T09:16:28.000Z</time>
      </trkpt>
      <trkpt lat="48.22015" lon="7.1257">
        <ele>916.1</ele>
        <time>2021-05-29T09:16:38.000Z</time>
      </trkpt>
      <trkpt lat="48.22022" lon="7.1258">
        <ele>917.2</ele>
        <time>2021-05-29T09:16:45.000Z</time>
      </trkpt>
      <trkpt lat="48.22029" lon="7.1259">
        <ele>918.1</ele>
        <time>2021-05-29T09:16:52.000Z</time>
      </trkpt>
      <trkpt lat="48.22034" lon="7.12602">
        <ele>918.8</ele>
        <time>2021-05-29T09:16:59.000Z</time>
      </trkpt>
      <trkpt lat="48.22041" lon="7.12611">
        <ele>919.6</ele>
        <time>2021-05-29T09:17:07.000Z</time>
      </trkpt>
      <trkpt lat="48.22048" lon="7.12622">
        <ele>920.3</ele>
        <time>2021-05-29T09:17:15.000Z</time>
      </trkpt>
      <trkpt lat="48.22052" lon="7.12633">
        <ele>920.6</ele>
        <time>2021-05-29T09:17:22.000Z</time>
      </trkpt>
      <trkpt lat="48.2206" lon="7.12641">
        <ele>921.3</ele>
        <time>2021-05-29T09:17:31.000Z</time>
      </trkpt>
      <trkpt lat="48.22067" lon="7.12651">
        <ele>921.8</ele>
        <time>2021-05-29T09:17:40.000Z</time>
      </trkpt>
      <trkpt lat="48.22072" lon="7.12663">
        <ele>922</ele>
        <time>2021-05-29T09:17:47.000Z</time>
      </trkpt>
      <trkpt lat="48.22077" lon="7.12675">
        <ele>921.8</ele>
        <time>2021-05-29T09:17:54.000Z</time>
      </trkpt>
      <trkpt lat="48.22081" lon="7.12688">
        <ele>921.4</ele>
        <time>2021-05-29T09:18:01.000Z</time>
      </trkpt>
      <trkpt lat="48.22087" lon="7.12698">
        <ele>921.9</ele>
        <time>2021-05-29T09:18:08.000Z</time>
      </trkpt>
      <trkpt lat="48.22093" lon="7.1271">
        <ele>922.7</ele>
        <time>2021-05-29T09:18:17.000Z</time>
      </trkpt>
      <trkpt lat="48.22098" lon="7.12721">
        <ele>923.1</ele>
        <time>2021-05-29T09:18:23.000Z</time>
      </trkpt>
      <trkpt lat="48.22105" lon="7.12731">
        <ele>924.2</ele>
        <time>2021-05-29T09:18:31.000Z</time>
      </trkpt>
      <trkpt lat="48.22112" lon="7.12742">
        <ele>925.1</ele>
        <time>2021-05-29T09:18:38.000Z</time>
      </trkpt>
      <trkpt lat="48.22119" lon="7.12753">
        <ele>925.7</ele>
        <time>2021-05-29T09:18:46.000Z</time>
      </trkpt>
      <trkpt lat="48.22125" lon="7.12762">
        <ele>926.2</ele>
        <time>2021-05-29T09:18:54.000Z</time>
      </trkpt>
      <trkpt lat="48.22133" lon="7.12772">
        <ele>926.8</ele>
        <time>2021-05-29T09:19:02.000Z</time>
      </trkpt>
      <trkpt lat="48.22141" lon="7.12779">
        <ele>927.7</ele>
        <time>2021-05-29T09:19:10.000Z</time>
      </trkpt>
      <trkpt lat="48.22148" lon="7.12788">
        <ele>928.1</ele>
        <time>2021-05-29T09:19:17.000Z</time>
      </trkpt>
      <trkpt lat="48.22155" lon="7.12798">
        <ele>928.4</ele>
        <time>2021-05-29T09:19:25.000Z</time>
      </trkpt>
      <trkpt lat="48.22163" lon="7.12806">
        <ele>929</ele>
        <time>2021-05-29T09:19:32.000Z</time>
      </trkpt>
      <trkpt lat="48.22171" lon="7.12813">
        <ele>929.9</ele>
        <time>2021-05-29T09:19:40.000Z</time>
      </trkpt>
      <trkpt lat="48.2218" lon="7.1282">
        <ele>931.1</ele>
        <time>2021-05-29T09:19:48.000Z</time>
      </trkpt>
      <trkpt lat="48.22189" lon="7.12825">
        <ele>932.6</ele>
        <time>2021-05-29T09:19:56.000Z</time>
      </trkpt>
      <trkpt lat="48.22198" lon="7.1283">
        <ele>934.3</ele>
        <time>2021-05-29T09:20:03.000Z</time>
      </trkpt>
      <trkpt lat="48.22207" lon="7.12838">
        <ele>936</ele>
        <time>2021-05-29T09:20:12.000Z</time>
      </trkpt>
      <trkpt lat="48.22216" lon="7.12844">
        <ele>938.1</ele>
        <time>2021-05-29T09:20:21.000Z</time>
      </trkpt>
      <trkpt lat="48.22225" lon="7.12849">
        <ele>940.1</ele>
        <time>2021-05-29T09:20:28.000Z</time>
      </trkpt>
      <trkpt lat="48.22233" lon="7.12857">
        <ele>941.8</ele>
        <time>2021-05-29T09:20:37.000Z</time>
      </trkpt>
      <trkpt lat="48.22241" lon="7.12865">
        <ele>943.8</ele>
        <time>2021-05-29T09:20:46.000Z</time>
      </trkpt>
      <trkpt lat="48.22246" lon="7.12877">
        <ele>944.9</ele>
        <time>2021-05-29T09:20:55.000Z</time>
      </trkpt>
      <trkpt lat="48.22251" lon="7.12888">
        <ele>946.1</ele>
        <time>2021-05-29T09:21:03.000Z</time>
      </trkpt>
      <trkpt lat="48.22255" lon="7.12901">
        <ele>946.9</ele>
        <time>2021-05-29T09:21:10.000Z</time>
      </trkpt>
      <trkpt lat="48.2226" lon="7.12913">
        <ele>948.2</ele>
        <time>2021-05-29T09:21:17.000Z</time>
      </trkpt>
      <trkpt lat="48.22262" lon="7.12927">
        <ele>949.5</ele>
        <time>2021-05-29T09:21:24.000Z</time>
      </trkpt>
      <trkpt lat="48.22266" lon="7.12941">
        <ele>951.4</ele>
        <time>2021-05-29T09:21:31.000Z</time>
      </trkpt>
      <trkpt lat="48.22269" lon="7.12954">
        <ele>953</ele>
        <time>2021-05-29T09:21:39.000Z</time>
      </trkpt>
      <trkpt lat="48.22273" lon="7.12966">
        <ele>954.8</ele>
        <time>2021-05-29T09:21:46.000Z</time>
      </trkpt>
      <trkpt lat="48.22277" lon="7.1298">
        <ele>956.3</ele>
        <time>2021-05-29T09:21:54.000Z</time>
      </trkpt>
      <trkpt lat="48.22279" lon="7.12994">
        <ele>957.5</ele>
        <time>2021-05-29T09:22:01.000Z</time>
      </trkpt>
      <trkpt lat="48.22271" lon="7.13001">
        <ele>955.6</ele>
        <time>2021-05-29T09:22:30.000Z</time>
      </trkpt>
      <trkpt lat="48.22265" lon="7.1299">
        <ele>953.9</ele>
        <time>2021-05-29T09:22:42.000Z</time>
      </trkpt>
      <trkpt lat="48.22274" lon="7.12994">
        <ele>956.2</ele>
        <time>2021-05-29T09:23:25.000Z</time>
      </trkpt>
      <trkpt lat="48.22282" lon="7.13003">
        <ele>957.9</ele>
        <time>2021-05-29T09:23:53.000Z</time>
      </trkpt>
      <trkpt lat="48.22285" lon="7.13016">
        <ele>957.2</ele>
        <time>2021-05-29T09:24:01.000Z</time>
      </trkpt>
      <trkpt lat="48.22289" lon="7.13031">
        <ele>956.4</ele>
        <time>2021-05-29T09:24:09.000Z</time>
      </trkpt>
      <trkpt lat="48.22294" lon="7.13044">
        <ele>956</ele>
        <time>2021-05-29T09:24:17.000Z</time>
      </trkpt>
      <trkpt lat="48.223" lon="7.13054">
        <ele>955.9</ele>
        <time>2021-05-29T09:24:25.000Z</time>
      </trkpt>
      <trkpt lat="48.22307" lon="7.13063">
        <ele>956.3</ele>
        <time>2021-05-29T09:24:33.000Z</time>
      </trkpt>
      <trkpt lat="48.22315" lon="7.13068">
        <ele>957.5</ele>
        <time>2021-05-29T09:24:40.000Z</time>
      </trkpt>
      <trkpt lat="48.22325" lon="7.13069">
        <ele>959.3</ele>
        <time>2021-05-29T09:24:47.000Z</time>
      </trkpt>
      <trkpt lat="48.22335" lon="7.13069">
        <ele>960.9</ele>
        <time>2021-05-29T09:24:54.000Z</time>
      </trkpt>
      <trkpt lat="48.22344" lon="7.13066">
        <ele>962.2</ele>
        <time>2021-05-29T09:25:02.000Z</time>
      </trkpt>
      <trkpt lat="48.22353" lon="7.13063">
        <ele>963.4</ele>
        <time>2021-05-29T09:25:09.000Z</time>
      </trkpt>
      <trkpt lat="48.22363" lon="7.13059">
        <ele>964.8</ele>
        <time>2021-05-29T09:25:21.000Z</time>
      </trkpt>
      <trkpt lat="48.22371" lon="7.1305">
        <ele>966.7</ele>
        <time>2021-05-29T09:25:30.000Z</time>
      </trkpt>
      <trkpt lat="48.2238" lon="7.13044">
        <ele>968.4</ele>
        <time>2021-05-29T09:25:37.000Z</time>
      </trkpt>
      <trkpt lat="48.22389" lon="7.13038">
        <ele>970</ele>
        <time>2021-05-29T09:25:43.000Z</time>
      </trkpt>
      <trkpt lat="48.22396" lon="7.13029">
        <ele>972</ele>
        <time>2021-05-29T09:25:50.000Z</time>
      </trkpt>
      <trkpt lat="48.22404" lon="7.13021">
        <ele>973.9</ele>
        <time>2021-05-29T09:25:57.000Z</time>
      </trkpt>
      <trkpt lat="48.22411" lon="7.13009">
        <ele>976.1</ele>
        <time>2021-05-29T09:26:04.000Z</time>
      </trkpt>
      <trkpt lat="48.22419" lon="7.13002">
        <ele>977.9</ele>
        <time>2021-05-29T09:26:12.000Z</time>
      </trkpt>
      <trkpt lat="48.22427" lon="7.12997">
        <ele>979.2</ele>
        <time>2021-05-29T09:26:19.000Z</time>
      </trkpt>
      <trkpt lat="48.22437" lon="7.12996">
        <ele>980.1</ele>
        <time>2021-05-29T09:26:29.000Z</time>
      </trkpt>
      <trkpt lat="48.22446" lon="7.12993">
        <ele>981.2</ele>
        <time>2021-05-29T09:26:38.000Z</time>
      </trkpt>
      <trkpt lat="48.22455" lon="7.12992">
        <ele>982.1</ele>
        <time>2021-05-29T09:26:45.000Z</time>
      </trkpt>
      <trkpt lat="48.22464" lon="7.12989">
        <ele>983.2</ele>
        <time>2021-05-29T09:26:54.000Z</time>
      </trkpt>
      <trkpt lat="48.22472" lon="7.12983">
        <ele>984.5</ele>
        <time>2021-05-29T09:27:03.000Z</time>
      </trkpt>
      <trkpt lat="48.22481" lon="7.12985">
        <ele>985.1</ele>
        <time>2021-05-29T09:27:12.000Z</time>
      </trkpt>
      <trkpt lat="48.22482" lon="7.12971">
        <ele>986.7</ele>
        <time>2021-05-29T09:27:39.000Z</time>
      </trkpt>
      <trkpt lat="48.2248" lon="7.12956">
        <ele>988.1</ele>
        <time>2021-05-29T09:27:52.000Z</time>
      </trkpt>
      <trkpt lat="48.22476" lon="7.12944">
        <ele>989.1</ele>
        <time>2021-05-29T09:28:05.000Z</time>
      </trkpt>
      <trkpt lat="48.22481" lon="7.1293">
        <ele>990.9</ele>
        <time>2021-05-29T09:28:15.000Z</time>
      </trkpt>
      <trkpt lat="48.22485" lon="7.12917">
        <ele>992.7</ele>
        <time>2021-05-29T09:28:24.000Z</time>
      </trkpt>
      <trkpt lat="48.22489" lon="7.12904">
        <ele>993.6</ele>
        <time>2021-05-29T09:28:33.000Z</time>
      </trkpt>
      <trkpt lat="48.22493" lon="7.12891">
        <ele>994.6</ele>
        <time>2021-05-29T09:28:41.000Z</time>
      </trkpt>
      <trkpt lat="48.22495" lon="7.12878">
        <ele>995.4</ele>
        <time>2021-05-29T09:28:51.000Z</time>
      </trkpt>
      <trkpt lat="48.22499" lon="7.12865">
        <ele>996.4</ele>
        <time>2021-05-29T09:29:00.000Z</time>
      </trkpt>
      <trkpt lat="48.22505" lon="7.12854">
        <ele>996.6</ele>
        <time>2021-05-29T09:29:09.000Z</time>
      </trkpt>
      <trkpt lat="48.22509" lon="7.12841">
        <ele>996.8</ele>
        <time>2021-05-29T09:29:17.000Z</time>
      </trkpt>
      <trkpt lat="48.22513" lon="7.12829">
        <ele>997</ele>
        <time>2021-05-29T09:29:25.000Z</time>
      </trkpt>
      <trkpt lat="48.22517" lon="7.12815">
        <ele>997.3</ele>
        <time>2021-05-29T09:29:34.000Z</time>
      </trkpt>
      <trkpt lat="48.22522" lon="7.12802">
        <ele>997.4</ele>
        <time>2021-05-29T09:29:43.000Z</time>
      </trkpt>
      <trkpt lat="48.22527" lon="7.12789">
        <ele>997.4</ele>
        <time>2021-05-29T09:29:52.000Z</time>
      </trkpt>
      <trkpt lat="48.22531" lon="7.12777">
        <ele>997.3</ele>
        <time>2021-05-29T09:30:00.000Z</time>
      </trkpt>
      <trkpt lat="48.22535" lon="7.12762">
        <ele>997.3</ele>
        <time>2021-05-29T09:30:10.000Z</time>
      </trkpt>
      <trkpt lat="48.22541" lon="7.12752">
        <ele>996.6</ele>
        <time>2021-05-29T09:30:20.000Z</time>
      </trkpt>
      <trkpt lat="48.22547" lon="7.12762">
        <ele>995.2</ele>
        <time>2021-05-29T09:30:34.000Z</time>
      </trkpt>
      <trkpt lat="48.22551" lon="7.12775">
        <ele>994.3</ele>
        <time>2021-05-29T09:30:43.000Z</time>
      </trkpt>
      <trkpt lat="48.22557" lon="7.12785">
        <ele>993.2</ele>
        <time>2021-05-29T09:30:53.000Z</time>
      </trkpt>
      <trkpt lat="48.22563" lon="7.12798">
        <ele>992.3</ele>
        <time>2021-05-29T09:31:03.000Z</time>
      </trkpt>
      <trkpt lat="48.22569" lon="7.12809">
        <ele>991.5</ele>
        <time>2021-05-29T09:31:11.000Z</time>
      </trkpt>
      <trkpt lat="48.22576" lon="7.12818">
        <ele>990.7</ele>
        <time>2021-05-29T09:31:19.000Z</time>
      </trkpt>
      <trkpt lat="48.22585" lon="7.12824">
        <ele>989.5</ele>
        <time>2021-05-29T09:31:29.000Z</time>
      </trkpt>
      <trkpt lat="48.22594" lon="7.12831">
        <ele>987.7</ele>
        <time>2021-05-29T09:31:37.000Z</time>
      </trkpt>
      <trkpt lat="48.22602" lon="7.12836">
        <ele>986.1</ele>
        <time>2021-05-29T09:31:44.000Z</time>
      </trkpt>
      <trkpt lat="48.22611" lon="7.12842">
        <ele>984.3</ele>
        <time>2021-05-29T09:31:51.000Z</time>
      </trkpt>
      <trkpt lat="48.22619" lon="7.1285">
        <ele>982.8</ele>
        <time>2021-05-29T09:31:59.000Z</time>
      </trkpt>
      <trkpt lat="48.22628" lon="7.12856">
        <ele>981.3</ele>
        <time>2021-05-29T09:32:06.000Z</time>
      </trkpt>
      <trkpt lat="48.22636" lon="7.12849">
        <ele>979.2</ele>
        <time>2021-05-29T09:32:21.000Z</time>
      </trkpt>
      <trkpt lat="48.22641" lon="7.12837">
        <ele>977.6</ele>
        <time>2021-05-29T09:32:28.000Z</time>
      </trkpt>
      <trkpt lat="48.22646" lon="7.12825">
        <ele>976.2</ele>
        <time>2021-05-29T09:32:37.000Z</time>
      </trkpt>
      <trkpt lat="48.2265" lon="7.12813">
        <ele>975.2</ele>
        <time>2021-05-29T09:32:46.000Z</time>
      </trkpt>
      <trkpt lat="48.22658" lon="7.12806">
        <ele>973.3</ele>
        <time>2021-05-29T09:33:08.000Z</time>
      </trkpt>
      <trkpt lat="48.22667" lon="7.12802">
        <ele>971.3</ele>
        <time>2021-05-29T09:33:25.000Z</time>
      </trkpt>
      <trkpt lat="48.22667" lon="7.12816">
        <ele>971.6</ele>
        <time>2021-05-29T09:34:00.000Z</time>
      </trkpt>
      <trkpt lat="48.22669" lon="7.12803">
        <ele>970.9</ele>
        <time>2021-05-29T09:44:53.000Z</time>
      </trkpt>
      <trkpt lat="48.22661" lon="7.12796">
        <ele>972.3</ele>
        <time>2021-05-29T09:45:09.000Z</time>
      </trkpt>
      <trkpt lat="48.22656" lon="7.12806">
        <ele>973.8</ele>
        <time>2021-05-29T09:45:23.000Z</time>
      </trkpt>
      <trkpt lat="48.22651" lon="7.12818">
        <ele>975.2</ele>
        <time>2021-05-29T09:45:39.000Z</time>
      </trkpt>
      <trkpt lat="48.22645" lon="7.1283">
        <ele>976.5</ele>
        <time>2021-05-29T09:45:49.000Z</time>
      </trkpt>
      <trkpt lat="48.2264" lon="7.12842">
        <ele>978.2</ele>
        <time>2021-05-29T09:45:58.000Z</time>
      </trkpt>
      <trkpt lat="48.22637" lon="7.12855">
        <ele>979.2</ele>
        <time>2021-05-29T09:46:10.000Z</time>
      </trkpt>
      <trkpt lat="48.22646" lon="7.12863">
        <ele>977.8</ele>
        <time>2021-05-29T09:46:19.000Z</time>
      </trkpt>
      <trkpt lat="48.22653" lon="7.1287">
        <ele>976.5</ele>
        <time>2021-05-29T09:46:27.000Z</time>
      </trkpt>
      <trkpt lat="48.22663" lon="7.12875">
        <ele>974.9</ele>
        <time>2021-05-29T09:46:36.000Z</time>
      </trkpt>
      <trkpt lat="48.22672" lon="7.12879">
        <ele>973.2</ele>
        <time>2021-05-29T09:46:44.000Z</time>
      </trkpt>
      <trkpt lat="48.2268" lon="7.12886">
        <ele>971.9</ele>
        <time>2021-05-29T09:46:52.000Z</time>
      </trkpt>
      <trkpt lat="48.22688" lon="7.12892">
        <ele>970.6</ele>
        <time>2021-05-29T09:46:59.000Z</time>
      </trkpt>
      <trkpt lat="48.22698" lon="7.12898">
        <ele>969.2</ele>
        <time>2021-05-29T09:47:08.000Z</time>
      </trkpt>
      <trkpt lat="48.22706" lon="7.12904">
        <ele>967.8</ele>
        <time>2021-05-29T09:47:15.000Z</time>
      </trkpt>
      <trkpt lat="48.22715" lon="7.1291">
        <ele>966.5</ele>
        <time>2021-05-29T09:47:22.000Z</time>
      </trkpt>
      <trkpt lat="48.22723" lon="7.12919">
        <ele>965.2</ele>
        <time>2021-05-29T09:47:29.000Z</time>
      </trkpt>
      <trkpt lat="48.22731" lon="7.12925">
        <ele>963.4</ele>
        <time>2021-05-29T09:47:37.000Z</time>
      </trkpt>
      <trkpt lat="48.22741" lon="7.12928">
        <ele>961.6</ele>
        <time>2021-05-29T09:47:51.000Z</time>
      </trkpt>
      <trkpt lat="48.2275" lon="7.12933">
        <ele>959.6</ele>
        <time>2021-05-29T09:47:59.000Z</time>
      </trkpt>
      <trkpt lat="48.22759" lon="7.12939">
        <ele>958.5</ele>
        <time>2021-05-29T09:48:07.000Z</time>
      </trkpt>
      <trkpt lat="48.22768" lon="7.12945">
        <ele>957.5</ele>
        <time>2021-05-29T09:48:15.000Z</time>
      </trkpt>
      <trkpt lat="48.22776" lon="7.12948">
        <ele>956.6</ele>
        <time>2021-05-29T09:48:22.000Z</time>
      </trkpt>
      <trkpt lat="48.22786" lon="7.12952">
        <ele>955.8</ele>
        <time>2021-05-29T09:48:29.000Z</time>
      </trkpt>
      <trkpt lat="48.22795" lon="7.12955">
        <ele>955.1</ele>
        <time>2021-05-29T09:48:37.000Z</time>
      </trkpt>
      <trkpt lat="48.22804" lon="7.1296">
        <ele>954.5</ele>
        <time>2021-05-29T09:48:45.000Z</time>
      </trkpt>
      <trkpt lat="48.22814" lon="7.12964">
        <ele>954</ele>
        <time>2021-05-29T09:48:54.000Z</time>
      </trkpt>
      <trkpt lat="48.22823" lon="7.12965">
        <ele>953.4</ele>
        <time>2021-05-29T09:49:04.000Z</time>
      </trkpt>
      <trkpt lat="48.22832" lon="7.12966">
        <ele>952.9</ele>
        <time>2021-05-29T09:49:12.000Z</time>
      </trkpt>
      <trkpt lat="48.22841" lon="7.12969">
        <ele>951.9</ele>
        <time>2021-05-29T09:49:19.000Z</time>
      </trkpt>
      <trkpt lat="48.2285" lon="7.12972">
        <ele>950.9</ele>
        <time>2021-05-29T09:49:26.000Z</time>
      </trkpt>
      <trkpt lat="48.2286" lon="7.12975">
        <ele>949.7</ele>
        <time>2021-05-29T09:49:33.000Z</time>
      </trkpt>
      <trkpt lat="48.2287" lon="7.12978">
        <ele>948.5</ele>
        <time>2021-05-29T09:49:40.000Z</time>
      </trkpt>
      <trkpt lat="48.22879" lon="7.1298">
        <ele>947.5</ele>
        <time>2021-05-29T09:49:47.000Z</time>
      </trkpt>
      <trkpt lat="48.22889" lon="7.12983">
        <ele>946.5</ele>
        <time>2021-05-29T09:49:54.000Z</time>
      </trkpt>
      <trkpt lat="48.22898" lon="7.12986">
        <ele>945.5</ele>
        <time>2021-05-29T09:50:02.000Z</time>
      </trkpt>
      <trkpt lat="48.22907" lon="7.1299">
        <ele>944.9</ele>
        <time>2021-05-29T09:50:09.000Z</time>
      </trkpt>
      <trkpt lat="48.22917" lon="7.12995">
        <ele>944.2</ele>
        <time>2021-05-29T09:50:17.000Z</time>
      </trkpt>
      <trkpt lat="48.22927" lon="7.12998">
        <ele>943.1</ele>
        <time>2021-05-29T09:50:26.000Z</time>
      </trkpt>
      <trkpt lat="48.22937" lon="7.13">
        <ele>941.8</ele>
        <time>2021-05-29T09:50:34.000Z</time>
      </trkpt>
      <trkpt lat="48.22946" lon="7.12998">
        <ele>940.1</ele>
        <time>2021-05-29T09:50:41.000Z</time>
      </trkpt>
      <trkpt lat="48.22954" lon="7.13005">
        <ele>939.2</ele>
        <time>2021-05-29T09:50:50.000Z</time>
      </trkpt>
      <trkpt lat="48.22964" lon="7.13006">
        <ele>937.7</ele>
        <time>2021-05-29T09:51:00.000Z</time>
      </trkpt>
      <trkpt lat="48.22974" lon="7.13004">
        <ele>936.1</ele>
        <time>2021-05-29T09:51:09.000Z</time>
      </trkpt>
      <trkpt lat="48.22983" lon="7.13004">
        <ele>934.7</ele>
        <time>2021-05-29T09:51:16.000Z</time>
      </trkpt>
      <trkpt lat="48.22993" lon="7.13002">
        <ele>933.1</ele>
        <time>2021-05-29T09:51:24.000Z</time>
      </trkpt>
      <trkpt lat="48.23002" lon="7.12999">
        <ele>931.5</ele>
        <time>2021-05-29T09:51:31.000Z</time>
      </trkpt>
      <trkpt lat="48.23011" lon="7.12997">
        <ele>929.1</ele>
        <time>2021-05-29T09:51:38.000Z</time>
      </trkpt>
      <trkpt lat="48.23021" lon="7.12998">
        <ele>927.1</ele>
        <time>2021-05-29T09:51:47.000Z</time>
      </trkpt>
      <trkpt lat="48.23029" lon="7.12995">
        <ele>924.7</ele>
        <time>2021-05-29T09:51:56.000Z</time>
      </trkpt>
      <trkpt lat="48.23038" lon="7.12995">
        <ele>922.6</ele>
        <time>2021-05-29T09:52:05.000Z</time>
      </trkpt>
      <trkpt lat="48.23048" lon="7.12995">
        <ele>920.6</ele>
        <time>2021-05-29T09:52:11.000Z</time>
      </trkpt>
      <trkpt lat="48.23058" lon="7.12993">
        <ele>918</ele>
        <time>2021-05-29T09:52:22.000Z</time>
      </trkpt>
      <trkpt lat="48.23067" lon="7.1299">
        <ele>915.7</ele>
        <time>2021-05-29T09:52:34.000Z</time>
      </trkpt>
      <trkpt lat="48.23076" lon="7.12986">
        <ele>913.4</ele>
        <time>2021-05-29T09:52:41.000Z</time>
      </trkpt>
      <trkpt lat="48.23085" lon="7.12985">
        <ele>911.2</ele>
        <time>2021-05-29T09:52:51.000Z</time>
      </trkpt>
      <trkpt lat="48.23095" lon="7.12983">
        <ele>908.6</ele>
        <time>2021-05-29T09:53:00.000Z</time>
      </trkpt>
      <trkpt lat="48.23104" lon="7.12982">
        <ele>906.1</ele>
        <time>2021-05-29T09:53:14.000Z</time>
      </trkpt>
      <trkpt lat="48.23114" lon="7.12984">
        <ele>904</ele>
        <time>2021-05-29T09:53:26.000Z</time>
      </trkpt>
      <trkpt lat="48.23123" lon="7.12979">
        <ele>901.3</ele>
        <time>2021-05-29T09:53:36.000Z</time>
      </trkpt>
      <trkpt lat="48.23133" lon="7.12979">
        <ele>899</ele>
        <time>2021-05-29T09:53:48.000Z</time>
      </trkpt>
      <trkpt lat="48.23142" lon="7.12976">
        <ele>896.5</ele>
        <time>2021-05-29T09:53:57.000Z</time>
      </trkpt>
      <trkpt lat="48.23152" lon="7.12976">
        <ele>894.1</ele>
        <time>2021-05-29T09:54:08.000Z</time>
      </trkpt>
      <trkpt lat="48.23161" lon="7.12976">
        <ele>891.9</ele>
        <time>2021-05-29T09:54:16.000Z</time>
      </trkpt>
      <trkpt lat="48.2317" lon="7.12974">
        <ele>890</ele>
        <time>2021-05-29T09:54:25.000Z</time>
      </trkpt>
      <trkpt lat="48.2318" lon="7.12973">
        <ele>888.7</ele>
        <time>2021-05-29T09:54:36.000Z</time>
      </trkpt>
      <trkpt lat="48.2319" lon="7.12976">
        <ele>887.6</ele>
        <time>2021-05-29T09:54:45.000Z</time>
      </trkpt>
      <trkpt lat="48.23196" lon="7.12966">
        <ele>886.3</ele>
        <time>2021-05-29T09:54:59.000Z</time>
      </trkpt>
      <trkpt lat="48.23205" lon="7.12967">
        <ele>885.2</ele>
        <time>2021-05-29T09:56:12.000Z</time>
      </trkpt>
      <trkpt lat="48.23214" lon="7.12972">
        <ele>884.2</ele>
        <time>2021-05-29T09:56:59.000Z</time>
      </trkpt>
      <trkpt lat="48.23228" lon="7.12982">
        <ele>882.7</ele>
        <time>2021-05-29T09:57:04.000Z</time>
      </trkpt>
      <trkpt lat="48.23222" lon="7.13004">
        <ele>883.7</ele>
        <time>2021-05-29T09:57:09.000Z</time>
      </trkpt>
      <trkpt lat="48.23221" lon="7.13032">
        <ele>881.1</ele>
        <time>2021-05-29T09:57:14.000Z</time>
      </trkpt>
      <trkpt lat="48.23227" lon="7.13045">
        <ele>878.9</ele>
        <time>2021-05-29T09:57:19.000Z</time>
      </trkpt>
      <trkpt lat="48.23237" lon="7.13046">
        <ele>877.2</ele>
        <time>2021-05-29T09:57:28.000Z</time>
      </trkpt>
      <trkpt lat="48.23245" lon="7.13041">
        <ele>876.3</ele>
        <time>2021-05-29T09:57:36.000Z</time>
      </trkpt>
      <trkpt lat="48.23254" lon="7.13035">
        <ele>876.9</ele>
        <time>2021-05-29T09:57:43.000Z</time>
      </trkpt>
      <trkpt lat="48.2326" lon="7.13024">
        <ele>879</ele>
        <time>2021-05-29T09:57:50.000Z</time>
      </trkpt>
      <trkpt lat="48.23267" lon="7.13015">
        <ele>881</ele>
        <time>2021-05-29T09:57:56.000Z</time>
      </trkpt>
      <trkpt lat="48.23276" lon="7.13009">
        <ele>882.8</ele>
        <time>2021-05-29T09:58:02.000Z</time>
      </trkpt>
      <trkpt lat="48.23285" lon="7.13004">
        <ele>884.6</ele>
        <time>2021-05-29T09:58:09.000Z</time>
      </trkpt>
      <trkpt lat="48.23294" lon="7.13002">
        <ele>886.2</ele>
        <time>2021-05-29T09:58:17.000Z</time>
      </trkpt>
      <trkpt lat="48.23303" lon="7.13003">
        <ele>887.4</ele>
        <time>2021-05-29T09:58:25.000Z</time>
      </trkpt>
      <trkpt lat="48.23313" lon="7.13005">
        <ele>888.7</ele>
        <time>2021-05-29T09:58:36.000Z</time>
      </trkpt>
      <trkpt lat="48.23323" lon="7.13005">
        <ele>890.1</ele>
        <time>2021-05-29T09:58:46.000Z</time>
      </trkpt>
      <trkpt lat="48.23332" lon="7.13008">
        <ele>891.2</ele>
        <time>2021-05-29T09:58:55.000Z</time>
      </trkpt>
      <trkpt lat="48.23341" lon="7.13009">
        <ele>891.7</ele>
        <time>2021-05-29T09:59:04.000Z</time>
      </trkpt>
      <trkpt lat="48.2335" lon="7.13012">
        <ele>892</ele>
        <time>2021-05-29T09:59:15.000Z</time>
      </trkpt>
      <trkpt lat="48.2336" lon="7.13014">
        <ele>892.3</ele>
        <time>2021-05-29T09:59:23.000Z</time>
      </trkpt>
      <trkpt lat="48.23368" lon="7.13022">
        <ele>892.3</ele>
        <time>2021-05-29T09:59:32.000Z</time>
      </trkpt>
      <trkpt lat="48.23377" lon="7.13027">
        <ele>892.5</ele>
        <time>2021-05-29T09:59:48.000Z</time>
      </trkpt>
      <trkpt lat="48.23387" lon="7.13032">
        <ele>892.8</ele>
        <time>2021-05-29T10:00:00.000Z</time>
      </trkpt>
      <trkpt lat="48.23396" lon="7.13034">
        <ele>893.2</ele>
        <time>2021-05-29T10:00:08.000Z</time>
      </trkpt>
      <trkpt lat="48.23406" lon="7.13038">
        <ele>893.5</ele>
        <time>2021-05-29T10:00:16.000Z</time>
      </trkpt>
      <trkpt lat="48.23416" lon="7.1304">
        <ele>894</ele>
        <time>2021-05-29T10:00:24.000Z</time>
      </trkpt>
      <trkpt lat="48.23426" lon="7.1304">
        <ele>893.5</ele>
        <time>2021-05-29T10:00:32.000Z</time>
      </trkpt>
      <trkpt lat="48.23435" lon="7.1304">
        <ele>892.9</ele>
        <time>2021-05-29T10:00:41.000Z</time>
      </trkpt>
      <trkpt lat="48.23445" lon="7.13039">
        <ele>892.2</ele>
        <time>2021-05-29T10:00:49.000Z</time>
      </trkpt>
      <trkpt lat="48.23454" lon="7.13043">
        <ele>891.5</ele>
        <time>2021-05-29T10:00:57.000Z</time>
      </trkpt>
      <trkpt lat="48.23465" lon="7.13041">
        <ele>890.8</ele>
        <time>2021-05-29T10:01:04.000Z</time>
      </trkpt>
      <trkpt lat="48.23475" lon="7.13042">
        <ele>890.2</ele>
        <time>2021-05-29T10:01:12.000Z</time>
      </trkpt>
      <trkpt lat="48.23484" lon="7.13044">
        <ele>889.5</ele>
        <time>2021-05-29T10:01:21.000Z</time>
      </trkpt>
      <trkpt lat="48.23494" lon="7.13044">
        <ele>888.9</ele>
        <time>2021-05-29T10:01:28.000Z</time>
      </trkpt>
      <trkpt lat="48.23504" lon="7.13046">
        <ele>888</ele>
        <time>2021-05-29T10:01:35.000Z</time>
      </trkpt>
      <trkpt lat="48.23514" lon="7.13048">
        <ele>886.8</ele>
        <time>2021-05-29T10:01:44.000Z</time>
      </trkpt>
      <trkpt lat="48.23524" lon="7.1305">
        <ele>885.5</ele>
        <time>2021-05-29T10:01:51.000Z</time>
      </trkpt>
      <trkpt lat="48.23534" lon="7.1305">
        <ele>884.3</ele>
        <time>2021-05-29T10:01:58.000Z</time>
      </trkpt>
      <trkpt lat="48.23543" lon="7.13048">
        <ele>883.3</ele>
        <time>2021-05-29T10:02:05.000Z</time>
      </trkpt>
      <trkpt lat="48.23552" lon="7.13047">
        <ele>882.1</ele>
        <time>2021-05-29T10:02:13.000Z</time>
      </trkpt>
      <trkpt lat="48.23561" lon="7.13048">
        <ele>881</ele>
        <time>2021-05-29T10:02:21.000Z</time>
      </trkpt>
      <trkpt lat="48.2357" lon="7.13044">
        <ele>880</ele>
        <time>2021-05-29T10:02:29.000Z</time>
      </trkpt>
      <trkpt lat="48.23588" lon="7.1304">
        <ele>878.2</ele>
        <time>2021-05-29T10:02:34.000Z</time>
      </trkpt>
      <trkpt lat="48.23598" lon="7.13043">
        <ele>877.5</ele>
        <time>2021-05-29T10:02:57.000Z</time>
      </trkpt>
      <trkpt lat="48.23607" lon="7.13047">
        <ele>876.8</ele>
        <time>2021-05-29T10:03:06.000Z</time>
      </trkpt>
      <trkpt lat="48.23617" lon="7.13046">
        <ele>876.2</ele>
        <time>2021-05-29T10:03:15.000Z</time>
      </trkpt>
      <trkpt lat="48.23626" lon="7.13041">
        <ele>875.7</ele>
        <time>2021-05-29T10:03:25.000Z</time>
      </trkpt>
      <trkpt lat="48.23635" lon="7.13038">
        <ele>875.2</ele>
        <time>2021-05-29T10:03:31.000Z</time>
      </trkpt>
      <trkpt lat="48.23644" lon="7.13041">
        <ele>874.5</ele>
        <time>2021-05-29T10:03:37.000Z</time>
      </trkpt>
      <trkpt lat="48.23654" lon="7.13042">
        <ele>873.9</ele>
        <time>2021-05-29T10:03:46.000Z</time>
      </trkpt>
      <trkpt lat="48.23663" lon="7.13043">
        <ele>873.2</ele>
        <time>2021-05-29T10:03:56.000Z</time>
      </trkpt>
      <trkpt lat="48.23672" lon="7.13051">
        <ele>872.9</ele>
        <time>2021-05-29T10:04:06.000Z</time>
      </trkpt>
      <trkpt lat="48.2368" lon="7.13058">
        <ele>872.7</ele>
        <time>2021-05-29T10:04:14.000Z</time>
      </trkpt>
      <trkpt lat="48.23687" lon="7.13068">
        <ele>872.6</ele>
        <time>2021-05-29T10:04:23.000Z</time>
      </trkpt>
      <trkpt lat="48.23695" lon="7.13074">
        <ele>872.5</ele>
        <time>2021-05-29T10:04:32.000Z</time>
      </trkpt>
      <trkpt lat="48.23702" lon="7.13085">
        <ele>872.5</ele>
        <time>2021-05-29T10:04:42.000Z</time>
      </trkpt>
      <trkpt lat="48.23705" lon="7.13099">
        <ele>871.6</ele>
        <time>2021-05-29T10:04:51.000Z</time>
      </trkpt>
      <trkpt lat="48.23707" lon="7.13113">
        <ele>870.7</ele>
        <time>2021-05-29T10:05:00.000Z</time>
      </trkpt>
      <trkpt lat="48.23704" lon="7.13126">
        <ele>869.8</ele>
        <time>2021-05-29T10:05:07.000Z</time>
      </trkpt>
      <trkpt lat="48.23704" lon="7.13139">
        <ele>869</ele>
        <time>2021-05-29T10:05:14.000Z</time>
      </trkpt>
      <trkpt lat="48.23705" lon="7.13154">
        <ele>868.1</ele>
        <time>2021-05-29T10:05:21.000Z</time>
      </trkpt>
      <trkpt lat="48.23705" lon="7.13168">
        <ele>867.2</ele>
        <time>2021-05-29T10:05:29.000Z</time>
      </trkpt>
      <trkpt lat="48.23706" lon="7.13183">
        <ele>865.2</ele>
        <time>2021-05-29T10:05:38.000Z</time>
      </trkpt>
      <trkpt lat="48.23708" lon="7.13197">
        <ele>863.5</ele>
        <time>2021-05-29T10:05:46.000Z</time>
      </trkpt>
      <trkpt lat="48.23711" lon="7.13211">
        <ele>861.8</ele>
        <time>2021-05-29T10:05:55.000Z</time>
      </trkpt>
      <trkpt lat="48.23713" lon="7.13225">
        <ele>860.2</ele>
        <time>2021-05-29T10:06:05.000Z</time>
      </trkpt>
      <trkpt lat="48.23719" lon="7.13236">
        <ele>859.2</ele>
        <time>2021-05-29T10:06:14.000Z</time>
      </trkpt>
      <trkpt lat="48.23724" lon="7.13249">
        <ele>858</ele>
        <time>2021-05-29T10:06:24.000Z</time>
      </trkpt>
      <trkpt lat="48.23725" lon="7.13263">
        <ele>856.7</ele>
        <time>2021-05-29T10:06:32.000Z</time>
      </trkpt>
      <trkpt lat="48.23731" lon="7.13275">
        <ele>856.2</ele>
        <time>2021-05-29T10:06:39.000Z</time>
      </trkpt>
      <trkpt lat="48.23737" lon="7.13286">
        <ele>855.9</ele>
        <time>2021-05-29T10:06:47.000Z</time>
      </trkpt>
      <trkpt lat="48.23747" lon="7.13295">
        <ele>856.3</ele>
        <time>2021-05-29T10:07:48.000Z</time>
      </trkpt>
      <trkpt lat="48.23749" lon="7.13309">
        <ele>855.6</ele>
        <time>2021-05-29T10:08:01.000Z</time>
      </trkpt>
      <trkpt lat="48.23754" lon="7.13322">
        <ele>854.4</ele>
        <time>2021-05-29T10:08:10.000Z</time>
      </trkpt>
      <trkpt lat="48.23759" lon="7.13335">
        <ele>853.3</ele>
        <time>2021-05-29T10:08:18.000Z</time>
      </trkpt>
      <trkpt lat="48.23763" lon="7.13347">
        <ele>853.5</ele>
        <time>2021-05-29T10:08:27.000Z</time>
      </trkpt>
      <trkpt lat="48.2377" lon="7.13359">
        <ele>853.4</ele>
        <time>2021-05-29T10:08:35.000Z</time>
      </trkpt>
      <trkpt lat="48.23775" lon="7.13371">
        <ele>853.5</ele>
        <time>2021-05-29T10:08:44.000Z</time>
      </trkpt>
      <trkpt lat="48.2378" lon="7.13383">
        <ele>853.7</ele>
        <time>2021-05-29T10:08:54.000Z</time>
      </trkpt>
      <trkpt lat="48.23783" lon="7.13397">
        <ele>854.1</ele>
        <time>2021-05-29T10:09:04.000Z</time>
      </trkpt>
      <trkpt lat="48.23791" lon="7.13406">
        <ele>854.1</ele>
        <time>2021-05-29T10:09:13.000Z</time>
      </trkpt>
      <trkpt lat="48.238" lon="7.13413">
        <ele>853.8</ele>
        <time>2021-05-29T10:09:23.000Z</time>
      </trkpt>
      <trkpt lat="48.2381" lon="7.13411">
        <ele>853.1</ele>
        <time>2021-05-29T10:09:31.000Z</time>
      </trkpt>
      <trkpt lat="48.2382" lon="7.1341">
        <ele>852.4</ele>
        <time>2021-05-29T10:09:38.000Z</time>
      </trkpt>
      <trkpt lat="48.2383" lon="7.13409">
        <ele>851.8</ele>
        <time>2021-05-29T10:09:46.000Z</time>
      </trkpt>
      <trkpt lat="48.23838" lon="7.13405">
        <ele>849.8</ele>
        <time>2021-05-29T10:09:54.000Z</time>
      </trkpt>
      <trkpt lat="48.23846" lon="7.13398">
        <ele>847</ele>
        <time>2021-05-29T10:10:07.000Z</time>
      </trkpt>
      <trkpt lat="48.23856" lon="7.13396">
        <ele>844.1</ele>
        <time>2021-05-29T10:10:19.000Z</time>
      </trkpt>
      <trkpt lat="48.23865" lon="7.13395">
        <ele>841.2</ele>
        <time>2021-05-29T10:10:30.000Z</time>
      </trkpt>
      <trkpt lat="48.23874" lon="7.13395">
        <ele>838.6</ele>
        <time>2021-05-29T10:11:05.000Z</time>
      </trkpt>
      <trkpt lat="48.23883" lon="7.13394">
        <ele>835.7</ele>
        <time>2021-05-29T10:11:16.000Z</time>
      </trkpt>
      <trkpt lat="48.23892" lon="7.13387">
        <ele>832.8</ele>
        <time>2021-05-29T10:11:27.000Z</time>
      </trkpt>
      <trkpt lat="48.23901" lon="7.13384">
        <ele>829.9</ele>
        <time>2021-05-29T10:11:40.000Z</time>
      </trkpt>
      <trkpt lat="48.2391" lon="7.13385">
        <ele>827.2</ele>
        <time>2021-05-29T10:11:53.000Z</time>
      </trkpt>
      <trkpt lat="48.23917" lon="7.13377">
        <ele>824.5</ele>
        <time>2021-05-29T10:12:01.000Z</time>
      </trkpt>
      <trkpt lat="48.23927" lon="7.13378">
        <ele>822.2</ele>
        <time>2021-05-29T10:12:12.000Z</time>
      </trkpt>
      <trkpt lat="48.23937" lon="7.13376">
        <ele>819.6</ele>
        <time>2021-05-29T10:12:22.000Z</time>
      </trkpt>
      <trkpt lat="48.23945" lon="7.13371">
        <ele>817.1</ele>
        <time>2021-05-29T10:12:33.000Z</time>
      </trkpt>
      <trkpt lat="48.23955" lon="7.13371">
        <ele>814.7</ele>
        <time>2021-05-29T10:12:46.000Z</time>
      </trkpt>
      <trkpt lat="48.23964" lon="7.1337">
        <ele>812.4</ele>
        <time>2021-05-29T10:12:58.000Z</time>
      </trkpt>
      <trkpt lat="48.23972" lon="7.13363">
        <ele>810.1</ele>
        <time>2021-05-29T10:13:11.000Z</time>
      </trkpt>
      <trkpt lat="48.2398" lon="7.13356">
        <ele>808</ele>
        <time>2021-05-29T10:13:19.000Z</time>
      </trkpt>
      <trkpt lat="48.23991" lon="7.13353">
        <ele>805.5</ele>
        <time>2021-05-29T10:13:27.000Z</time>
      </trkpt>
      <trkpt lat="48.24001" lon="7.13355">
        <ele>803.2</ele>
        <time>2021-05-29T10:13:35.000Z</time>
      </trkpt>
      <trkpt lat="48.24011" lon="7.13354">
        <ele>802.1</ele>
        <time>2021-05-29T10:13:42.000Z</time>
      </trkpt>
      <trkpt lat="48.24021" lon="7.13354">
        <ele>801.1</ele>
        <time>2021-05-29T10:13:50.000Z</time>
      </trkpt>
      <trkpt lat="48.2403" lon="7.13352">
        <ele>800.2</ele>
        <time>2021-05-29T10:13:58.000Z</time>
      </trkpt>
      <trkpt lat="48.2404" lon="7.13352">
        <ele>799.2</ele>
        <time>2021-05-29T10:14:12.000Z</time>
      </trkpt>
      <trkpt lat="48.24049" lon="7.1335">
        <ele>798.3</ele>
        <time>2021-05-29T10:14:21.000Z</time>
      </trkpt>
      <trkpt lat="48.24058" lon="7.13345">
        <ele>797.6</ele>
        <time>2021-05-29T10:14:48.000Z</time>
      </trkpt>
      <trkpt lat="48.24068" lon="7.13344">
        <ele>796.7</ele>
        <time>2021-05-29T10:14:55.000Z</time>
      </trkpt>
      <trkpt lat="48.24077" lon="7.13343">
        <ele>795.9</ele>
        <time>2021-05-29T10:15:02.000Z</time>
      </trkpt>
      <trkpt lat="48.24086" lon="7.13339">
        <ele>795.3</ele>
        <time>2021-05-29T10:15:09.000Z</time>
      </trkpt>
      <trkpt lat="48.24095" lon="7.13336">
        <ele>794.3</ele>
        <time>2021-05-29T10:15:16.000Z</time>
      </trkpt>
      <trkpt lat="48.24104" lon="7.13337">
        <ele>793</ele>
        <time>2021-05-29T10:15:23.000Z</time>
      </trkpt>
      <trkpt lat="48.24115" lon="7.13336">
        <ele>791.7</ele>
        <time>2021-05-29T10:15:31.000Z</time>
      </trkpt>
      <trkpt lat="48.24125" lon="7.13333">
        <ele>790.5</ele>
        <time>2021-05-29T10:15:39.000Z</time>
      </trkpt>
      <trkpt lat="48.24134" lon="7.13327">
        <ele>789.2</ele>
        <time>2021-05-29T10:15:46.000Z</time>
      </trkpt>
      <trkpt lat="48.24144" lon="7.13325">
        <ele>788</ele>
        <time>2021-05-29T10:15:54.000Z</time>
      </trkpt>
      <trkpt lat="48.24153" lon="7.13322">
        <ele>786.9</ele>
        <time>2021-05-29T10:16:02.000Z</time>
      </trkpt>
      <trkpt lat="48.24163" lon="7.13321">
        <ele>785.7</ele>
        <time>2021-05-29T10:16:11.000Z</time>
      </trkpt>
      <trkpt lat="48.24173" lon="7.13319">
        <ele>784.7</ele>
        <time>2021-05-29T10:16:20.000Z</time>
      </trkpt>
      <trkpt lat="48.24183" lon="7.13317">
        <ele>783.8</ele>
        <time>2021-05-29T10:16:29.000Z</time>
      </trkpt>
      <trkpt lat="48.24193" lon="7.13314">
        <ele>783</ele>
        <time>2021-05-29T10:16:36.000Z</time>
      </trkpt>
      <trkpt lat="48.24202" lon="7.1331">
        <ele>782.2</ele>
        <time>2021-05-29T10:16:43.000Z</time>
      </trkpt>
      <trkpt lat="48.24211" lon="7.13305">
        <ele>781.6</ele>
        <time>2021-05-29T10:16:51.000Z</time>
      </trkpt>
      <trkpt lat="48.24221" lon="7.13304">
        <ele>780.8</ele>
        <time>2021-05-29T10:16:59.000Z</time>
      </trkpt>
      <trkpt lat="48.2423" lon="7.13301">
        <ele>780.1</ele>
        <time>2021-05-29T10:17:06.000Z</time>
      </trkpt>
      <trkpt lat="48.2424" lon="7.13299">
        <ele>779.3</ele>
        <time>2021-05-29T10:17:14.000Z</time>
      </trkpt>
      <trkpt lat="48.2425" lon="7.13296">
        <ele>778.7</ele>
        <time>2021-05-29T10:17:21.000Z</time>
      </trkpt>
      <trkpt lat="48.24259" lon="7.13295">
        <ele>778.3</ele>
        <time>2021-05-29T10:17:29.000Z</time>
      </trkpt>
      <trkpt lat="48.24269" lon="7.13294">
        <ele>778</ele>
        <time>2021-05-29T10:17:36.000Z</time>
      </trkpt>
      <trkpt lat="48.24278" lon="7.13288">
        <ele>777.8</ele>
        <time>2021-05-29T10:17:44.000Z</time>
      </trkpt>
      <trkpt lat="48.24286" lon="7.13281">
        <ele>777.7</ele>
        <time>2021-05-29T10:17:50.000Z</time>
      </trkpt>
      <trkpt lat="48.24294" lon="7.13273">
        <ele>777.5</ele>
        <time>2021-05-29T10:18:01.000Z</time>
      </trkpt>
      <trkpt lat="48.24302" lon="7.1328">
        <ele>776.8</ele>
        <time>2021-05-29T10:18:12.000Z</time>
      </trkpt>
      <trkpt lat="48.24311" lon="7.13284">
        <ele>776.2</ele>
        <time>2021-05-29T10:18:21.000Z</time>
      </trkpt>
      <trkpt lat="48.24319" lon="7.13293">
        <ele>775.7</ele>
        <time>2021-05-29T10:19:18.000Z</time>
      </trkpt>
      <trkpt lat="48.24329" lon="7.13293">
        <ele>775.2</ele>
        <time>2021-05-29T10:19:28.000Z</time>
      </trkpt>
      <trkpt lat="48.24338" lon="7.13296">
        <ele>776</ele>
        <time>2021-05-29T10:19:37.000Z</time>
      </trkpt>
      <trkpt lat="48.24346" lon="7.13304">
        <ele>777.8</ele>
        <time>2021-05-29T10:19:46.000Z</time>
      </trkpt>
      <trkpt lat="48.24354" lon="7.1331">
        <ele>779.9</ele>
        <time>2021-05-29T10:19:55.000Z</time>
      </trkpt>
      <trkpt lat="48.24362" lon="7.1332">
        <ele>782</ele>
        <time>2021-05-29T10:20:07.000Z</time>
      </trkpt>
      <trkpt lat="48.24367" lon="7.13308">
        <ele>782.8</ele>
        <time>2021-05-29T10:20:29.000Z</time>
      </trkpt>
      <trkpt lat="48.24376" lon="7.13306">
        <ele>784.9</ele>
        <time>2021-05-29T10:20:58.000Z</time>
      </trkpt>
      <trkpt lat="48.24385" lon="7.13306">
        <ele>787</ele>
        <time>2021-05-29T10:21:05.000Z</time>
      </trkpt>
      <trkpt lat="48.24394" lon="7.13312">
        <ele>789.5</ele>
        <time>2021-05-29T10:21:18.000Z</time>
      </trkpt>
      <trkpt lat="48.24404" lon="7.13312">
        <ele>791.8</ele>
        <time>2021-05-29T10:21:31.000Z</time>
      </trkpt>
      <trkpt lat="48.24413" lon="7.13316">
        <ele>794.3</ele>
        <time>2021-05-29T10:21:43.000Z</time>
      </trkpt>
      <trkpt lat="48.24422" lon="7.13317">
        <ele>796.7</ele>
        <time>2021-05-29T10:21:52.000Z</time>
      </trkpt>
      <trkpt lat="48.24431" lon="7.1332">
        <ele>799</ele>
        <time>2021-05-29T10:22:01.000Z</time>
      </trkpt>
      <trkpt lat="48.2444" lon="7.13321">
        <ele>801.2</ele>
        <time>2021-05-29T10:22:12.000Z</time>
      </trkpt>
      <trkpt lat="48.24449" lon="7.13326">
        <ele>803.9</ele>
        <time>2021-05-29T10:22:30.000Z</time>
      </trkpt>
      <trkpt lat="48.24456" lon="7.13335">
        <ele>806.5</ele>
        <time>2021-05-29T10:22:46.000Z</time>
      </trkpt>
      <trkpt lat="48.24464" lon="7.13342">
        <ele>808.5</ele>
        <time>2021-05-29T10:22:57.000Z</time>
      </trkpt>
      <trkpt lat="48.24474" lon="7.13341">
        <ele>810.8</ele>
        <time>2021-05-29T10:23:15.000Z</time>
      </trkpt>
      <trkpt lat="48.24483" lon="7.13346">
        <ele>813.1</ele>
        <time>2021-05-29T10:23:36.000Z</time>
      </trkpt>
      <trkpt lat="48.24492" lon="7.13346">
        <ele>815.4</ele>
        <time>2021-05-29T10:23:48.000Z</time>
      </trkpt>
      <trkpt lat="48.24501" lon="7.13356">
        <ele>817.9</ele>
        <time>2021-05-29T10:24:09.000Z</time>
      </trkpt>
      <trkpt lat="48.24509" lon="7.13361">
        <ele>820.1</ele>
        <time>2021-05-29T10:24:31.000Z</time>
      </trkpt>
      <trkpt lat="48.24519" lon="7.13363">
        <ele>822.3</ele>
        <time>2021-05-29T10:24:46.000Z</time>
      </trkpt>
      <trkpt lat="48.24526" lon="7.1337">
        <ele>824.2</ele>
        <time>2021-05-29T10:25:05.000Z</time>
      </trkpt>
      <trkpt lat="48.24535" lon="7.13375">
        <ele>826.2</ele>
        <time>2021-05-29T10:25:23.000Z</time>
      </trkpt>
      <trkpt lat="48.24544" lon="7.13379">
        <ele>828.2</ele>
        <time>2021-05-29T10:25:38.000Z</time>
      </trkpt>
      <trkpt lat="48.24553" lon="7.13381">
        <ele>830.3</ele>
        <time>2021-05-29T10:25:58.000Z</time>
      </trkpt>
      <trkpt lat="48.24562" lon="7.13386">
        <ele>832.4</ele>
        <time>2021-05-29T10:26:10.000Z</time>
      </trkpt>
      <trkpt lat="48.24571" lon="7.13388">
        <ele>834.4</ele>
        <time>2021-05-29T10:26:29.000Z</time>
      </trkpt>
      <trkpt lat="48.2458" lon="7.13389">
        <ele>836.4</ele>
        <time>2021-05-29T10:26:44.000Z</time>
      </trkpt>
      <trkpt lat="48.24589" lon="7.13393">
        <ele>838.2</ele>
        <time>2021-05-29T10:26:58.000Z</time>
      </trkpt>
      <trkpt lat="48.24598" lon="7.13388">
        <ele>840.2</ele>
        <time>2021-05-29T10:27:07.000Z</time>
      </trkpt>
      <trkpt lat="48.24607" lon="7.13385">
        <ele>842.3</ele>
        <time>2021-05-29T10:27:20.000Z</time>
      </trkpt>
      <trkpt lat="48.24616" lon="7.1338">
        <ele>844.3</ele>
        <time>2021-05-29T10:27:33.000Z</time>
      </trkpt>
      <trkpt lat="48.24625" lon="7.13382">
        <ele>846.3</ele>
        <time>2021-05-29T10:27:46.000Z</time>
      </trkpt>
      <trkpt lat="48.24635" lon="7.1338">
        <ele>848.4</ele>
        <time>2021-05-29T10:27:56.000Z</time>
      </trkpt>
      <trkpt lat="48.24644" lon="7.13378">
        <ele>850.4</ele>
        <time>2021-05-29T10:28:11.000Z</time>
      </trkpt>
      <trkpt lat="48.24653" lon="7.13374">
        <ele>852.4</ele>
        <time>2021-05-29T10:28:23.000Z</time>
      </trkpt>
      <trkpt lat="48.24662" lon="7.1337">
        <ele>854.4</ele>
        <time>2021-05-29T10:28:36.000Z</time>
      </trkpt>
      <trkpt lat="48.24669" lon="7.13379">
        <ele>856.1</ele>
        <time>2021-05-29T10:28:48.000Z</time>
      </trkpt>
      <trkpt lat="48.24676" lon="7.13389">
        <ele>857.6</ele>
        <time>2021-05-29T10:28:58.000Z</time>
      </trkpt>
      <trkpt lat="48.24684" lon="7.13397">
        <ele>859.5</ele>
        <time>2021-05-29T10:29:11.000Z</time>
      </trkpt>
      <trkpt lat="48.2469" lon="7.13387">
        <ele>861.4</ele>
        <time>2021-05-29T10:29:22.000Z</time>
      </trkpt>
      <trkpt lat="48.24696" lon="7.13377">
        <ele>863.1</ele>
        <time>2021-05-29T10:29:37.000Z</time>
      </trkpt>
      <trkpt lat="48.24705" lon="7.13372">
        <ele>865.4</ele>
        <time>2021-05-29T10:29:57.000Z</time>
      </trkpt>
      <trkpt lat="48.24714" lon="7.13373">
        <ele>867.7</ele>
        <time>2021-05-29T10:30:10.000Z</time>
      </trkpt>
      <trkpt lat="48.24721" lon="7.13365">
        <ele>869.8</ele>
        <time>2021-05-29T10:30:26.000Z</time>
      </trkpt>
      <trkpt lat="48.24725" lon="7.13352">
        <ele>870.9</ele>
        <time>2021-05-29T10:30:54.000Z</time>
      </trkpt>
      <trkpt lat="48.24719" lon="7.13339">
        <ele>869.8</ele>
        <time>2021-05-29T10:33:31.000Z</time>
      </trkpt>
      <trkpt lat="48.24712" lon="7.13332">
        <ele>867.6</ele>
        <time>2021-05-29T10:39:57.000Z</time>
      </trkpt>
      <trkpt lat="48.24703" lon="7.1333">
        <ele>864.8</ele>
        <time>2021-05-29T10:41:24.000Z</time>
      </trkpt>
      <trkpt lat="48.24711" lon="7.13337">
        <ele>867.6</ele>
        <time>2021-05-29T10:42:34.000Z</time>
      </trkpt>
      <trkpt lat="48.24718" lon="7.13345">
        <ele>869.3</ele>
        <time>2021-05-29T10:44:02.000Z</time>
      </trkpt>
      <trkpt lat="48.24728" lon="7.13345">
        <ele>871.8</ele>
        <time>2021-05-29T10:57:12.000Z</time>
      </trkpt>
      <trkpt lat="48.24718" lon="7.13351">
        <ele>869.3</ele>
        <time>2021-05-29T11:00:06.000Z</time>
      </trkpt>
      <trkpt lat="48.24712" lon="7.13339">
        <ele>867.9</ele>
        <time>2021-05-29T11:02:17.000Z</time>
      </trkpt>
      <trkpt lat="48.24676" lon="7.13332">
        <ele>858</ele>
        <time>2021-05-29T11:02:22.000Z</time>
      </trkpt>
      <trkpt lat="48.24695" lon="7.13319">
        <ele>860.5</ele>
        <time>2021-05-29T11:02:27.000Z</time>
      </trkpt>
      <trkpt lat="48.24714" lon="7.13332">
        <ele>868.3</ele>
        <time>2021-05-29T11:02:32.000Z</time>
      </trkpt>
      <trkpt lat="48.24722" lon="7.13342">
        <ele>870.5</ele>
        <time>2021-05-29T11:03:45.000Z</time>
      </trkpt>
      <trkpt lat="48.24732" lon="7.13341">
        <ele>873.1</ele>
        <time>2021-05-29T11:04:08.000Z</time>
      </trkpt>
      <trkpt lat="48.24741" lon="7.13335">
        <ele>875.5</ele>
        <time>2021-05-29T11:04:15.000Z</time>
      </trkpt>
      <trkpt lat="48.24749" lon="7.13328">
        <ele>876.7</ele>
        <time>2021-05-29T11:04:27.000Z</time>
      </trkpt>
      <trkpt lat="48.24759" lon="7.13333">
        <ele>878.1</ele>
        <time>2021-05-29T11:04:55.000Z</time>
      </trkpt>
      <trkpt lat="48.24769" lon="7.13342">
        <ele>878.2</ele>
        <time>2021-05-29T11:05:10.000Z</time>
      </trkpt>
      <trkpt lat="48.24781" lon="7.13348">
        <ele>878.2</ele>
        <time>2021-05-29T11:05:30.000Z</time>
      </trkpt>
      <trkpt lat="48.24786" lon="7.1336">
        <ele>877.7</ele>
        <time>2021-05-29T11:05:48.000Z</time>
      </trkpt>
      <trkpt lat="48.24788" lon="7.13374">
        <ele>877</ele>
        <time>2021-05-29T11:05:59.000Z</time>
      </trkpt>
      <trkpt lat="48.24796" lon="7.13392">
        <ele>876.1</ele>
        <time>2021-05-29T11:06:12.000Z</time>
      </trkpt>
      <trkpt lat="48.24802" lon="7.13411">
        <ele>875.1</ele>
        <time>2021-05-29T11:06:22.000Z</time>
      </trkpt>
      <trkpt lat="48.24805" lon="7.13426">
        <ele>873.3</ele>
        <time>2021-05-29T11:06:31.000Z</time>
      </trkpt>
      <trkpt lat="48.24806" lon="7.13447">
        <ele>870.1</ele>
        <time>2021-05-29T11:06:42.000Z</time>
      </trkpt>
      <trkpt lat="48.24811" lon="7.13463">
        <ele>867.6</ele>
        <time>2021-05-29T11:06:50.000Z</time>
      </trkpt>
      <trkpt lat="48.24813" lon="7.13477">
        <ele>865.4</ele>
        <time>2021-05-29T11:06:57.000Z</time>
      </trkpt>
      <trkpt lat="48.24816" lon="7.1349">
        <ele>863.3</ele>
        <time>2021-05-29T11:07:05.000Z</time>
      </trkpt>
      <trkpt lat="48.2482" lon="7.13503">
        <ele>861.3</ele>
        <time>2021-05-29T11:07:12.000Z</time>
      </trkpt>
      <trkpt lat="48.24826" lon="7.13522">
        <ele>858.7</ele>
        <time>2021-05-29T11:07:28.000Z</time>
      </trkpt>
      <trkpt lat="48.24829" lon="7.13535">
        <ele>857</ele>
        <time>2021-05-29T11:07:34.000Z</time>
      </trkpt>
      <trkpt lat="48.24833" lon="7.13549">
        <ele>855.2</ele>
        <time>2021-05-29T11:07:40.000Z</time>
      </trkpt>
      <trkpt lat="48.24837" lon="7.13562">
        <ele>853.3</ele>
        <time>2021-05-29T11:07:46.000Z</time>
      </trkpt>
      <trkpt lat="48.24843" lon="7.13585">
        <ele>850.5</ele>
        <time>2021-05-29T11:08:04.000Z</time>
      </trkpt>
      <trkpt lat="48.24848" lon="7.13602">
        <ele>850</ele>
        <time>2021-05-29T11:08:15.000Z</time>
      </trkpt>
      <trkpt lat="48.24855" lon="7.13617">
        <ele>850</ele>
        <time>2021-05-29T11:08:28.000Z</time>
      </trkpt>
      <trkpt lat="48.24864" lon="7.13631">
        <ele>850.6</ele>
        <time>2021-05-29T11:08:42.000Z</time>
      </trkpt>
      <trkpt lat="48.24873" lon="7.13643">
        <ele>851.7</ele>
        <time>2021-05-29T11:08:53.000Z</time>
      </trkpt>
      <trkpt lat="48.24882" lon="7.13657">
        <ele>853.4</ele>
        <time>2021-05-29T11:09:04.000Z</time>
      </trkpt>
      <trkpt lat="48.24892" lon="7.13669">
        <ele>855.3</ele>
        <time>2021-05-29T11:09:15.000Z</time>
      </trkpt>
      <trkpt lat="48.24901" lon="7.1368">
        <ele>856.6</ele>
        <time>2021-05-29T11:09:27.000Z</time>
      </trkpt>
      <trkpt lat="48.24909" lon="7.13694">
        <ele>857.9</ele>
        <time>2021-05-29T11:09:37.000Z</time>
      </trkpt>
      <trkpt lat="48.24916" lon="7.13704">
        <ele>859.4</ele>
        <time>2021-05-29T11:09:44.000Z</time>
      </trkpt>
      <trkpt lat="48.24927" lon="7.13723">
        <ele>859.5</ele>
        <time>2021-05-29T11:10:04.000Z</time>
      </trkpt>
      <trkpt lat="48.24936" lon="7.13729">
        <ele>859.7</ele>
        <time>2021-05-29T11:11:03.000Z</time>
      </trkpt>
      <trkpt lat="48.24944" lon="7.13741">
        <ele>860.7</ele>
        <time>2021-05-29T11:11:22.000Z</time>
      </trkpt>
      <trkpt lat="48.24952" lon="7.13754">
        <ele>861.6</ele>
        <time>2021-05-29T11:11:34.000Z</time>
      </trkpt>
      <trkpt lat="48.24958" lon="7.13764">
        <ele>861.8</ele>
        <time>2021-05-29T11:11:41.000Z</time>
      </trkpt>
      <trkpt lat="48.24964" lon="7.13776">
        <ele>862.3</ele>
        <time>2021-05-29T11:11:48.000Z</time>
      </trkpt>
      <trkpt lat="48.24974" lon="7.13786">
        <ele>863.5</ele>
        <time>2021-05-29T11:11:58.000Z</time>
      </trkpt>
      <trkpt lat="48.24982" lon="7.13798">
        <ele>864.8</ele>
        <time>2021-05-29T11:12:06.000Z</time>
      </trkpt>
      <trkpt lat="48.24988" lon="7.13809">
        <ele>866.2</ele>
        <time>2021-05-29T11:12:13.000Z</time>
      </trkpt>
      <trkpt lat="48.24994" lon="7.1382">
        <ele>867.8</ele>
        <time>2021-05-29T11:12:20.000Z</time>
      </trkpt>
      <trkpt lat="48.24999" lon="7.13834">
        <ele>869.8</ele>
        <time>2021-05-29T11:12:28.000Z</time>
      </trkpt>
      <trkpt lat="48.25" lon="7.13848">
        <ele>869.8</ele>
        <time>2021-05-29T11:12:36.000Z</time>
      </trkpt>
      <trkpt lat="48.25011" lon="7.13861">
        <ele>868.3</ele>
        <time>2021-05-29T11:12:41.000Z</time>
      </trkpt>
      <trkpt lat="48.25016" lon="7.13875">
        <ele>867.9</ele>
        <time>2021-05-29T11:12:51.000Z</time>
      </trkpt>
      <trkpt lat="48.25021" lon="7.13886">
        <ele>867.6</ele>
        <time>2021-05-29T11:12:59.000Z</time>
      </trkpt>
      <trkpt lat="48.25025" lon="7.13899">
        <ele>867.6</ele>
        <time>2021-05-29T11:13:06.000Z</time>
      </trkpt>
      <trkpt lat="48.2503" lon="7.13916">
        <ele>867.9</ele>
        <time>2021-05-29T11:13:14.000Z</time>
      </trkpt>
      <trkpt lat="48.25033" lon="7.1393">
        <ele>867.1</ele>
        <time>2021-05-29T11:13:21.000Z</time>
      </trkpt>
      <trkpt lat="48.2504" lon="7.13939">
        <ele>866.5</ele>
        <time>2021-05-29T11:13:26.000Z</time>
      </trkpt>
      <trkpt lat="48.25054" lon="7.1394">
        <ele>866.2</ele>
        <time>2021-05-29T11:13:40.000Z</time>
      </trkpt>
      <trkpt lat="48.25062" lon="7.13944">
        <ele>865.9</ele>
        <time>2021-05-29T11:13:47.000Z</time>
      </trkpt>
      <trkpt lat="48.25072" lon="7.13947">
        <ele>865.8</ele>
        <time>2021-05-29T11:13:57.000Z</time>
      </trkpt>
      <trkpt lat="48.25082" lon="7.13948">
        <ele>865.6</ele>
        <time>2021-05-29T11:14:06.000Z</time>
      </trkpt>
      <trkpt lat="48.251" lon="7.13949">
        <ele>861.6</ele>
        <time>2021-05-29T11:14:23.000Z</time>
      </trkpt>
      <trkpt lat="48.25111" lon="7.13948">
        <ele>859</ele>
        <time>2021-05-29T11:14:30.000Z</time>
      </trkpt>
      <trkpt lat="48.25124" lon="7.13944">
        <ele>855.9</ele>
        <time>2021-05-29T11:14:46.000Z</time>
      </trkpt>
      <trkpt lat="48.25134" lon="7.13943">
        <ele>853.3</ele>
        <time>2021-05-29T11:15:02.000Z</time>
      </trkpt>
      <trkpt lat="48.25145" lon="7.13939">
        <ele>850.5</ele>
        <time>2021-05-29T11:15:15.000Z</time>
      </trkpt>
      <trkpt lat="48.25159" lon="7.13936">
        <ele>847.2</ele>
        <time>2021-05-29T11:15:27.000Z</time>
      </trkpt>
      <trkpt lat="48.25172" lon="7.13932">
        <ele>844.2</ele>
        <time>2021-05-29T11:15:41.000Z</time>
      </trkpt>
      <trkpt lat="48.25186" lon="7.13926">
        <ele>841.6</ele>
        <time>2021-05-29T11:15:53.000Z</time>
      </trkpt>
      <trkpt lat="48.25195" lon="7.13919">
        <ele>840</ele>
        <time>2021-05-29T11:16:01.000Z</time>
      </trkpt>
      <trkpt lat="48.25203" lon="7.13911">
        <ele>837.8</ele>
        <time>2021-05-29T11:16:06.000Z</time>
      </trkpt>
      <trkpt lat="48.25213" lon="7.13909">
        <ele>835.8</ele>
        <time>2021-05-29T11:16:18.000Z</time>
      </trkpt>
      <trkpt lat="48.25225" lon="7.13915">
        <ele>834.4</ele>
        <time>2021-05-29T11:16:30.000Z</time>
      </trkpt>
      <trkpt lat="48.25239" lon="7.13915">
        <ele>831.9</ele>
        <time>2021-05-29T11:16:41.000Z</time>
      </trkpt>
      <trkpt lat="48.25249" lon="7.13922">
        <ele>830.1</ele>
        <time>2021-05-29T11:16:58.000Z</time>
      </trkpt>
      <trkpt lat="48.2526" lon="7.13932">
        <ele>830.4</ele>
        <time>2021-05-29T11:17:08.000Z</time>
      </trkpt>
      <trkpt lat="48.25268" lon="7.13926">
        <ele>831</ele>
        <time>2021-05-29T11:17:19.000Z</time>
      </trkpt>
      <trkpt lat="48.25279" lon="7.13923">
        <ele>831.7</ele>
        <time>2021-05-29T11:17:26.000Z</time>
      </trkpt>
      <trkpt lat="48.2529" lon="7.13919">
        <ele>832.4</ele>
        <time>2021-05-29T11:17:50.000Z</time>
      </trkpt>
      <trkpt lat="48.25301" lon="7.13919">
        <ele>833</ele>
        <time>2021-05-29T11:18:02.000Z</time>
      </trkpt>
      <trkpt lat="48.25313" lon="7.1392">
        <ele>833.7</ele>
        <time>2021-05-29T11:18:17.000Z</time>
      </trkpt>
      <trkpt lat="48.25323" lon="7.13919">
        <ele>834.4</ele>
        <time>2021-05-29T11:18:30.000Z</time>
      </trkpt>
      <trkpt lat="48.25332" lon="7.13916">
        <ele>834.8</ele>
        <time>2021-05-29T11:18:37.000Z</time>
      </trkpt>
      <trkpt lat="48.25341" lon="7.13919">
        <ele>835.6</ele>
        <time>2021-05-29T11:18:57.000Z</time>
      </trkpt>
      <trkpt lat="48.25352" lon="7.13922">
        <ele>836.6</ele>
        <time>2021-05-29T11:19:15.000Z</time>
      </trkpt>
      <trkpt lat="48.25363" lon="7.13923">
        <ele>837.6</ele>
        <time>2021-05-29T11:19:32.000Z</time>
      </trkpt>
      <trkpt lat="48.25375" lon="7.13922">
        <ele>838.7</ele>
        <time>2021-05-29T11:19:46.000Z</time>
      </trkpt>
      <trkpt lat="48.25387" lon="7.13926">
        <ele>840</ele>
        <time>2021-05-29T11:20:00.000Z</time>
      </trkpt>
      <trkpt lat="48.25397" lon="7.13937">
        <ele>841.6</ele>
        <time>2021-05-29T11:20:12.000Z</time>
      </trkpt>
      <trkpt lat="48.25408" lon="7.13948">
        <ele>843.6</ele>
        <time>2021-05-29T11:20:24.000Z</time>
      </trkpt>
      <trkpt lat="48.25417" lon="7.13954">
        <ele>845.1</ele>
        <time>2021-05-29T11:20:31.000Z</time>
      </trkpt>
      <trkpt lat="48.25423" lon="7.13965">
        <ele>845.5</ele>
        <time>2021-05-29T11:20:37.000Z</time>
      </trkpt>
      <trkpt lat="48.25434" lon="7.13983">
        <ele>846.2</ele>
        <time>2021-05-29T11:20:55.000Z</time>
      </trkpt>
      <trkpt lat="48.25442" lon="7.13995">
        <ele>847.1</ele>
        <time>2021-05-29T11:21:07.000Z</time>
      </trkpt>
      <trkpt lat="48.2545" lon="7.14009">
        <ele>847.3</ele>
        <time>2021-05-29T11:21:18.000Z</time>
      </trkpt>
      <trkpt lat="48.25456" lon="7.14019">
        <ele>847.2</ele>
        <time>2021-05-29T11:21:27.000Z</time>
      </trkpt>
      <trkpt lat="48.25463" lon="7.1403">
        <ele>847.5</ele>
        <time>2021-05-29T11:21:33.000Z</time>
      </trkpt>
      <trkpt lat="48.2547" lon="7.14041">
        <ele>848</ele>
        <time>2021-05-29T11:21:40.000Z</time>
      </trkpt>
      <trkpt lat="48.25477" lon="7.14052">
        <ele>848.9</ele>
        <time>2021-05-29T11:21:55.000Z</time>
      </trkpt>
      <trkpt lat="48.25487" lon="7.14062">
        <ele>850.4</ele>
        <time>2021-05-29T11:22:07.000Z</time>
      </trkpt>
      <trkpt lat="48.25495" lon="7.14073">
        <ele>852.2</ele>
        <time>2021-05-29T11:22:13.000Z</time>
      </trkpt>
      <trkpt lat="48.25503" lon="7.14091">
        <ele>853.1</ele>
        <time>2021-05-29T11:22:26.000Z</time>
      </trkpt>
      <trkpt lat="48.25511" lon="7.14104">
        <ele>851.5</ele>
        <time>2021-05-29T11:22:40.000Z</time>
      </trkpt>
      <trkpt lat="48.25521" lon="7.14116">
        <ele>850.3</ele>
        <time>2021-05-29T11:22:50.000Z</time>
      </trkpt>
      <trkpt lat="48.25533" lon="7.14123">
        <ele>849.7</ele>
        <time>2021-05-29T11:23:00.000Z</time>
      </trkpt>
      <trkpt lat="48.25541" lon="7.14129">
        <ele>849.4</ele>
        <time>2021-05-29T11:23:06.000Z</time>
      </trkpt>
      <trkpt lat="48.2555" lon="7.14133">
        <ele>849.3</ele>
        <time>2021-05-29T11:23:14.000Z</time>
      </trkpt>
      <trkpt lat="48.25559" lon="7.14137">
        <ele>849.4</ele>
        <time>2021-05-29T11:23:21.000Z</time>
      </trkpt>
      <trkpt lat="48.25568" lon="7.14141">
        <ele>849.5</ele>
        <time>2021-05-29T11:23:29.000Z</time>
      </trkpt>
      <trkpt lat="48.25578" lon="7.14141">
        <ele>849.7</ele>
        <time>2021-05-29T11:23:36.000Z</time>
      </trkpt>
      <trkpt lat="48.25596" lon="7.14145">
        <ele>850.9</ele>
        <time>2021-05-29T11:23:54.000Z</time>
      </trkpt>
      <trkpt lat="48.25606" lon="7.14145">
        <ele>851.8</ele>
        <time>2021-05-29T11:23:59.000Z</time>
      </trkpt>
      <trkpt lat="48.25615" lon="7.14147">
        <ele>852.6</ele>
        <time>2021-05-29T11:24:05.000Z</time>
      </trkpt>
      <trkpt lat="48.25624" lon="7.1415">
        <ele>853.6</ele>
        <time>2021-05-29T11:24:12.000Z</time>
      </trkpt>
      <trkpt lat="48.25633" lon="7.14153">
        <ele>854.6</ele>
        <time>2021-05-29T11:24:19.000Z</time>
      </trkpt>
      <trkpt lat="48.25642" lon="7.14154">
        <ele>855.5</ele>
        <time>2021-05-29T11:24:27.000Z</time>
      </trkpt>
      <trkpt lat="48.25652" lon="7.14157">
        <ele>856.7</ele>
        <time>2021-05-29T11:24:35.000Z</time>
      </trkpt>
      <trkpt lat="48.25662" lon="7.14158">
        <ele>857.6</ele>
        <time>2021-05-29T11:24:44.000Z</time>
      </trkpt>
      <trkpt lat="48.25671" lon="7.14158">
        <ele>858.8</ele>
        <time>2021-05-29T11:24:51.000Z</time>
      </trkpt>
      <trkpt lat="48.25682" lon="7.14154">
        <ele>860.5</ele>
        <time>2021-05-29T11:25:04.000Z</time>
      </trkpt>
      <trkpt lat="48.25694" lon="7.14147">
        <ele>862</ele>
        <time>2021-05-29T11:25:17.000Z</time>
      </trkpt>
      <trkpt lat="48.25706" lon="7.14144">
        <ele>863.8</ele>
        <time>2021-05-29T11:25:32.000Z</time>
      </trkpt>
      <trkpt lat="48.25716" lon="7.14137">
        <ele>865.1</ele>
        <time>2021-05-29T11:25:47.000Z</time>
      </trkpt>
      <trkpt lat="48.25727" lon="7.14131">
        <ele>866.6</ele>
        <time>2021-05-29T11:26:00.000Z</time>
      </trkpt>
      <trkpt lat="48.25738" lon="7.14133">
        <ele>868.9</ele>
        <time>2021-05-29T11:26:15.000Z</time>
      </trkpt>
      <trkpt lat="48.25749" lon="7.14136">
        <ele>871.2</ele>
        <time>2021-05-29T11:26:32.000Z</time>
      </trkpt>
      <trkpt lat="48.25762" lon="7.1414">
        <ele>873.6</ele>
        <time>2021-05-29T11:26:46.000Z</time>
      </trkpt>
      <trkpt lat="48.25774" lon="7.1414">
        <ele>875.6</ele>
        <time>2021-05-29T11:27:03.000Z</time>
      </trkpt>
      <trkpt lat="48.25784" lon="7.1414">
        <ele>877.4</ele>
        <time>2021-05-29T11:27:20.000Z</time>
      </trkpt>
      <trkpt lat="48.25798" lon="7.14142">
        <ele>879.8</ele>
        <time>2021-05-29T11:27:32.000Z</time>
      </trkpt>
      <trkpt lat="48.25808" lon="7.14149">
        <ele>882.2</ele>
        <time>2021-05-29T11:27:47.000Z</time>
      </trkpt>
      <trkpt lat="48.25818" lon="7.14159">
        <ele>884.7</ele>
        <time>2021-05-29T11:28:01.000Z</time>
      </trkpt>
      <trkpt lat="48.25827" lon="7.1417">
        <ele>886.9</ele>
        <time>2021-05-29T11:28:15.000Z</time>
      </trkpt>
      <trkpt lat="48.25839" lon="7.14179">
        <ele>888.8</ele>
        <time>2021-05-29T11:28:27.000Z</time>
      </trkpt>
      <trkpt lat="48.25852" lon="7.14188">
        <ele>890.7</ele>
        <time>2021-05-29T11:28:37.000Z</time>
      </trkpt>
      <trkpt lat="48.25864" lon="7.14197">
        <ele>892.7</ele>
        <time>2021-05-29T11:28:49.000Z</time>
      </trkpt>
      <trkpt lat="48.25876" lon="7.14205">
        <ele>895</ele>
        <time>2021-05-29T11:29:01.000Z</time>
      </trkpt>
      <trkpt lat="48.25887" lon="7.14212">
        <ele>897.3</ele>
        <time>2021-05-29T11:29:15.000Z</time>
      </trkpt>
      <trkpt lat="48.25897" lon="7.14223">
        <ele>899.7</ele>
        <time>2021-05-29T11:29:29.000Z</time>
      </trkpt>
      <trkpt lat="48.25908" lon="7.14232">
        <ele>902.5</ele>
        <time>2021-05-29T11:29:42.000Z</time>
      </trkpt>
      <trkpt lat="48.25916" lon="7.14244">
        <ele>905.2</ele>
        <time>2021-05-29T11:29:56.000Z</time>
      </trkpt>
      <trkpt lat="48.25926" lon="7.14255">
        <ele>906.1</ele>
        <time>2021-05-29T11:30:08.000Z</time>
      </trkpt>
      <trkpt lat="48.2593" lon="7.14267">
        <ele>906.5</ele>
        <time>2021-05-29T11:30:17.000Z</time>
      </trkpt>
      <trkpt lat="48.25933" lon="7.14281">
        <ele>907</ele>
        <time>2021-05-29T11:30:24.000Z</time>
      </trkpt>
      <trkpt lat="48.25938" lon="7.14301">
        <ele>907.7</ele>
        <time>2021-05-29T11:30:37.000Z</time>
      </trkpt>
      <trkpt lat="48.25938" lon="7.14319">
        <ele>908.3</ele>
        <time>2021-05-29T11:30:54.000Z</time>
      </trkpt>
      <trkpt lat="48.25939" lon="7.14335">
        <ele>908.8</ele>
        <time>2021-05-29T11:31:09.000Z</time>
      </trkpt>
      <trkpt lat="48.25943" lon="7.14351">
        <ele>908.6</ele>
        <time>2021-05-29T11:31:21.000Z</time>
      </trkpt>
      <trkpt lat="48.25946" lon="7.1437">
        <ele>908.3</ele>
        <time>2021-05-29T11:31:32.000Z</time>
      </trkpt>
      <trkpt lat="48.25948" lon="7.14388">
        <ele>908</ele>
        <time>2021-05-29T11:31:45.000Z</time>
      </trkpt>
      <trkpt lat="48.25949" lon="7.14407">
        <ele>907.6</ele>
        <time>2021-05-29T11:31:56.000Z</time>
      </trkpt>
      <trkpt lat="48.2595" lon="7.14424">
        <ele>907.3</ele>
        <time>2021-05-29T11:32:01.000Z</time>
      </trkpt>
      <trkpt lat="48.25952" lon="7.14438">
        <ele>907.2</ele>
        <time>2021-05-29T11:32:07.000Z</time>
      </trkpt>
      <trkpt lat="48.25953" lon="7.1446">
        <ele>907</ele>
        <time>2021-05-29T11:32:19.000Z</time>
      </trkpt>
      <trkpt lat="48.25953" lon="7.14474">
        <ele>906.9</ele>
        <time>2021-05-29T11:32:26.000Z</time>
      </trkpt>
      <trkpt lat="48.25956" lon="7.14488">
        <ele>906.9</ele>
        <time>2021-05-29T11:32:31.000Z</time>
      </trkpt>
      <trkpt lat="48.25957" lon="7.14503">
        <ele>906.9</ele>
        <time>2021-05-29T11:32:36.000Z</time>
      </trkpt>
      <trkpt lat="48.25957" lon="7.1452">
        <ele>907.3</ele>
        <time>2021-05-29T11:32:47.000Z</time>
      </trkpt>
      <trkpt lat="48.25955" lon="7.14538">
        <ele>907.4</ele>
        <time>2021-05-29T11:32:55.000Z</time>
      </trkpt>
      <trkpt lat="48.25952" lon="7.14557">
        <ele>907.5</ele>
        <time>2021-05-29T11:33:08.000Z</time>
      </trkpt>
      <trkpt lat="48.25951" lon="7.14576">
        <ele>907.7</ele>
        <time>2021-05-29T11:33:23.000Z</time>
      </trkpt>
      <trkpt lat="48.25952" lon="7.14595">
        <ele>908.5</ele>
        <time>2021-05-29T11:33:35.000Z</time>
      </trkpt>
      <trkpt lat="48.25958" lon="7.1461">
        <ele>909.9</ele>
        <time>2021-05-29T11:33:47.000Z</time>
      </trkpt>
      <trkpt lat="48.25968" lon="7.14631">
        <ele>912.3</ele>
        <time>2021-05-29T11:33:59.000Z</time>
      </trkpt>
      <trkpt lat="48.25979" lon="7.14641">
        <ele>914.6</ele>
        <time>2021-05-29T11:34:10.000Z</time>
      </trkpt>
      <trkpt lat="48.25989" lon="7.14655">
        <ele>917.1</ele>
        <time>2021-05-29T11:34:22.000Z</time>
      </trkpt>
      <trkpt lat="48.26001" lon="7.14666">
        <ele>919.8</ele>
        <time>2021-05-29T11:34:32.000Z</time>
      </trkpt>
      <trkpt lat="48.26014" lon="7.14672">
        <ele>918</ele>
        <time>2021-05-29T11:34:43.000Z</time>
      </trkpt>
      <trkpt lat="48.26022" lon="7.14678">
        <ele>916.5</ele>
        <time>2021-05-29T11:34:48.000Z</time>
      </trkpt>
      <trkpt lat="48.26033" lon="7.1468">
        <ele>915.4</ele>
        <time>2021-05-29T11:34:57.000Z</time>
      </trkpt>
      <trkpt lat="48.26043" lon="7.14684">
        <ele>914.2</ele>
        <time>2021-05-29T11:35:03.000Z</time>
      </trkpt>
      <trkpt lat="48.26054" lon="7.14687">
        <ele>913.2</ele>
        <time>2021-05-29T11:35:13.000Z</time>
      </trkpt>
      <trkpt lat="48.26064" lon="7.14689">
        <ele>912.3</ele>
        <time>2021-05-29T11:35:20.000Z</time>
      </trkpt>
      <trkpt lat="48.26077" lon="7.14694">
        <ele>911.1</ele>
        <time>2021-05-29T11:35:30.000Z</time>
      </trkpt>
      <trkpt lat="48.26087" lon="7.14697">
        <ele>910.2</ele>
        <time>2021-05-29T11:35:40.000Z</time>
      </trkpt>
      <trkpt lat="48.26103" lon="7.14701">
        <ele>908.2</ele>
        <time>2021-05-29T11:35:52.000Z</time>
      </trkpt>
      <trkpt lat="48.26111" lon="7.14708">
        <ele>907.2</ele>
        <time>2021-05-29T11:35:58.000Z</time>
      </trkpt>
      <trkpt lat="48.26121" lon="7.14714">
        <ele>906.2</ele>
        <time>2021-05-29T11:36:07.000Z</time>
      </trkpt>
      <trkpt lat="48.2613" lon="7.1472">
        <ele>905.4</ele>
        <time>2021-05-29T11:36:13.000Z</time>
      </trkpt>
      <trkpt lat="48.26139" lon="7.14726">
        <ele>904.7</ele>
        <time>2021-05-29T11:36:20.000Z</time>
      </trkpt>
      <trkpt lat="48.26152" lon="7.14729">
        <ele>903.9</ele>
        <time>2021-05-29T11:36:35.000Z</time>
      </trkpt>
      <trkpt lat="48.26162" lon="7.14734">
        <ele>903.4</ele>
        <time>2021-05-29T11:36:48.000Z</time>
      </trkpt>
      <trkpt lat="48.26175" lon="7.14738">
        <ele>904</ele>
        <time>2021-05-29T11:36:59.000Z</time>
      </trkpt>
      <trkpt lat="48.26189" lon="7.14741">
        <ele>905.5</ele>
        <time>2021-05-29T11:37:06.000Z</time>
      </trkpt>
      <trkpt lat="48.26207" lon="7.14742">
        <ele>907.2</ele>
        <time>2021-05-29T11:37:20.000Z</time>
      </trkpt>
      <trkpt lat="48.26221" lon="7.1474">
        <ele>908.4</ele>
        <time>2021-05-29T11:37:31.000Z</time>
      </trkpt>
      <trkpt lat="48.26231" lon="7.14742">
        <ele>909.5</ele>
        <time>2021-05-29T11:37:37.000Z</time>
      </trkpt>
      <trkpt lat="48.26243" lon="7.14742">
        <ele>910.6</ele>
        <time>2021-05-29T11:37:49.000Z</time>
      </trkpt>
      <trkpt lat="48.26255" lon="7.14746">
        <ele>912.5</ele>
        <time>2021-05-29T11:38:05.000Z</time>
      </trkpt>
      <trkpt lat="48.26268" lon="7.14746">
        <ele>915.1</ele>
        <time>2021-05-29T11:38:15.000Z</time>
      </trkpt>
      <trkpt lat="48.2628" lon="7.14743">
        <ele>917.1</ele>
        <time>2021-05-29T11:38:28.000Z</time>
      </trkpt>
      <trkpt lat="48.2629" lon="7.14743">
        <ele>919</ele>
        <time>2021-05-29T11:38:36.000Z</time>
      </trkpt>
      <trkpt lat="48.26301" lon="7.14746">
        <ele>921.4</ele>
        <time>2021-05-29T11:38:49.000Z</time>
      </trkpt>
      <trkpt lat="48.26312" lon="7.1475">
        <ele>923.8</ele>
        <time>2021-05-29T11:39:02.000Z</time>
      </trkpt>
      <trkpt lat="48.26324" lon="7.14754">
        <ele>926</ele>
        <time>2021-05-29T11:39:18.000Z</time>
      </trkpt>
      <trkpt lat="48.26336" lon="7.14752">
        <ele>928.4</ele>
        <time>2021-05-29T11:39:34.000Z</time>
      </trkpt>
      <trkpt lat="48.26348" lon="7.14752">
        <ele>930.2</ele>
        <time>2021-05-29T11:39:49.000Z</time>
      </trkpt>
      <trkpt lat="48.2636" lon="7.1475">
        <ele>932.1</ele>
        <time>2021-05-29T11:40:01.000Z</time>
      </trkpt>
      <trkpt lat="48.26372" lon="7.14753">
        <ele>934</ele>
        <time>2021-05-29T11:40:20.000Z</time>
      </trkpt>
      <trkpt lat="48.26383" lon="7.14757">
        <ele>935.9</ele>
        <time>2021-05-29T11:40:33.000Z</time>
      </trkpt>
      <trkpt lat="48.26395" lon="7.14758">
        <ele>937.7</ele>
        <time>2021-05-29T11:40:48.000Z</time>
      </trkpt>
      <trkpt lat="48.26408" lon="7.1476">
        <ele>940</ele>
        <time>2021-05-29T11:41:04.000Z</time>
      </trkpt>
      <trkpt lat="48.26421" lon="7.14759">
        <ele>941.2</ele>
        <time>2021-05-29T11:41:17.000Z</time>
      </trkpt>
      <trkpt lat="48.26431" lon="7.1477">
        <ele>941.3</ele>
        <time>2021-05-29T11:41:29.000Z</time>
      </trkpt>
      <trkpt lat="48.26437" lon="7.14784">
        <ele>941.6</ele>
        <time>2021-05-29T11:41:37.000Z</time>
      </trkpt>
      <trkpt lat="48.26445" lon="7.14799">
        <ele>942</ele>
        <time>2021-05-29T11:41:47.000Z</time>
      </trkpt>
      <trkpt lat="48.26451" lon="7.14812">
        <ele>942.3</ele>
        <time>2021-05-29T11:41:57.000Z</time>
      </trkpt>
      <trkpt lat="48.26457" lon="7.14825">
        <ele>942.7</ele>
        <time>2021-05-29T11:42:04.000Z</time>
      </trkpt>
      <trkpt lat="48.26459" lon="7.14839">
        <ele>943.3</ele>
        <time>2021-05-29T11:42:12.000Z</time>
      </trkpt>
      <trkpt lat="48.26466" lon="7.1485">
        <ele>943.8</ele>
        <time>2021-05-29T11:42:25.000Z</time>
      </trkpt>
      <trkpt lat="48.26468" lon="7.14865">
        <ele>944.9</ele>
        <time>2021-05-29T11:43:19.000Z</time>
      </trkpt>
      <trkpt lat="48.26469" lon="7.1488">
        <ele>946</ele>
        <time>2021-05-29T11:43:29.000Z</time>
      </trkpt>
      <trkpt lat="48.26474" lon="7.14891">
        <ele>947</ele>
        <time>2021-05-29T11:43:37.000Z</time>
      </trkpt>
      <trkpt lat="48.26477" lon="7.14904">
        <ele>948.2</ele>
        <time>2021-05-29T11:43:43.000Z</time>
      </trkpt>
      <trkpt lat="48.26481" lon="7.14917">
        <ele>949.7</ele>
        <time>2021-05-29T11:43:49.000Z</time>
      </trkpt>
      <trkpt lat="48.26486" lon="7.14929">
        <ele>951.3</ele>
        <time>2021-05-29T11:43:55.000Z</time>
      </trkpt>
      <trkpt lat="48.2649" lon="7.14943">
        <ele>953.4</ele>
        <time>2021-05-29T11:44:02.000Z</time>
      </trkpt>
      <trkpt lat="48.26492" lon="7.14956">
        <ele>955.3</ele>
        <time>2021-05-29T11:44:09.000Z</time>
      </trkpt>
      <trkpt lat="48.26495" lon="7.14971">
        <ele>957.8</ele>
        <time>2021-05-29T11:44:17.000Z</time>
      </trkpt>
      <trkpt lat="48.265" lon="7.14983">
        <ele>960.6</ele>
        <time>2021-05-29T11:44:25.000Z</time>
      </trkpt>
      <trkpt lat="48.26504" lon="7.14996">
        <ele>962.1</ele>
        <time>2021-05-29T11:44:33.000Z</time>
      </trkpt>
      <trkpt lat="48.26509" lon="7.15007">
        <ele>963.1</ele>
        <time>2021-05-29T11:44:42.000Z</time>
      </trkpt>
      <trkpt lat="48.26515" lon="7.1502">
        <ele>964.2</ele>
        <time>2021-05-29T11:44:50.000Z</time>
      </trkpt>
      <trkpt lat="48.26521" lon="7.15035">
        <ele>965.8</ele>
        <time>2021-05-29T11:45:05.000Z</time>
      </trkpt>
      <trkpt lat="48.26527" lon="7.1505">
        <ele>967.5</ele>
        <time>2021-05-29T11:45:20.000Z</time>
      </trkpt>
      <trkpt lat="48.26534" lon="7.15065">
        <ele>969.4</ele>
        <time>2021-05-29T11:45:34.000Z</time>
      </trkpt>
      <trkpt lat="48.2654" lon="7.15077">
        <ele>971</ele>
        <time>2021-05-29T11:45:42.000Z</time>
      </trkpt>
      <trkpt lat="48.26546" lon="7.15094">
        <ele>973</ele>
        <time>2021-05-29T11:45:58.000Z</time>
      </trkpt>
      <trkpt lat="48.26552" lon="7.15109">
        <ele>974.5</ele>
        <time>2021-05-29T11:46:11.000Z</time>
      </trkpt>
      <trkpt lat="48.26556" lon="7.15125">
        <ele>976.2</ele>
        <time>2021-05-29T11:46:24.000Z</time>
      </trkpt>
      <trkpt lat="48.2656" lon="7.15139">
        <ele>977.7</ele>
        <time>2021-05-29T11:46:33.000Z</time>
      </trkpt>
      <trkpt lat="48.26562" lon="7.15154">
        <ele>979.4</ele>
        <time>2021-05-29T11:46:42.000Z</time>
      </trkpt>
      <trkpt lat="48.26562" lon="7.15173">
        <ele>980.8</ele>
        <time>2021-05-29T11:46:54.000Z</time>
      </trkpt>
      <trkpt lat="48.2656" lon="7.15187">
        <ele>981.1</ele>
        <time>2021-05-29T11:47:03.000Z</time>
      </trkpt>
      <trkpt lat="48.26557" lon="7.15204">
        <ele>981.4</ele>
        <time>2021-05-29T11:47:13.000Z</time>
      </trkpt>
      <trkpt lat="48.26553" lon="7.15217">
        <ele>981.7</ele>
        <time>2021-05-29T11:47:21.000Z</time>
      </trkpt>
      <trkpt lat="48.26549" lon="7.15229">
        <ele>982.1</ele>
        <time>2021-05-29T11:47:28.000Z</time>
      </trkpt>
      <trkpt lat="48.26548" lon="7.15245">
        <ele>982.6</ele>
        <time>2021-05-29T11:48:58.000Z</time>
      </trkpt>
      <trkpt lat="48.26546" lon="7.15259">
        <ele>982.9</ele>
        <time>2021-05-29T11:49:51.000Z</time>
      </trkpt>
      <trkpt lat="48.26543" lon="7.15272">
        <ele>983.3</ele>
        <time>2021-05-29T11:49:59.000Z</time>
      </trkpt>
      <trkpt lat="48.26542" lon="7.15285">
        <ele>983.6</ele>
        <time>2021-05-29T11:50:07.000Z</time>
      </trkpt>
      <trkpt lat="48.26539" lon="7.15299">
        <ele>984.2</ele>
        <time>2021-05-29T11:50:15.000Z</time>
      </trkpt>
      <trkpt lat="48.26536" lon="7.15313">
        <ele>984.8</ele>
        <time>2021-05-29T11:50:23.000Z</time>
      </trkpt>
      <trkpt lat="48.26533" lon="7.15329">
        <ele>985.5</ele>
        <time>2021-05-29T11:50:30.000Z</time>
      </trkpt>
      <trkpt lat="48.26531" lon="7.15342">
        <ele>985.7</ele>
        <time>2021-05-29T11:50:37.000Z</time>
      </trkpt>
      <trkpt lat="48.26531" lon="7.15356">
        <ele>985.6</ele>
        <time>2021-05-29T11:50:45.000Z</time>
      </trkpt>
      <trkpt lat="48.2653" lon="7.1537">
        <ele>985.5</ele>
        <time>2021-05-29T11:50:51.000Z</time>
      </trkpt>
      <trkpt lat="48.2653" lon="7.15383">
        <ele>985.2</ele>
        <time>2021-05-29T11:50:59.000Z</time>
      </trkpt>
      <trkpt lat="48.26533" lon="7.15396">
        <ele>984.5</ele>
        <time>2021-05-29T11:51:05.000Z</time>
      </trkpt>
      <trkpt lat="48.26539" lon="7.15408">
        <ele>983.6</ele>
        <time>2021-05-29T11:51:11.000Z</time>
      </trkpt>
      <trkpt lat="48.26544" lon="7.15421">
        <ele>982.3</ele>
        <time>2021-05-29T11:51:18.000Z</time>
      </trkpt>
      <trkpt lat="48.26551" lon="7.15441">
        <ele>979.9</ele>
        <time>2021-05-29T11:51:30.000Z</time>
      </trkpt>
      <trkpt lat="48.26558" lon="7.15454">
        <ele>978.7</ele>
        <time>2021-05-29T11:51:38.000Z</time>
      </trkpt>
      <trkpt lat="48.26563" lon="7.15466">
        <ele>977.8</ele>
        <time>2021-05-29T11:51:44.000Z</time>
      </trkpt>
      <trkpt lat="48.26568" lon="7.15477">
        <ele>977.2</ele>
        <time>2021-05-29T11:51:51.000Z</time>
      </trkpt>
      <trkpt lat="48.26573" lon="7.15491">
        <ele>976.8</ele>
        <time>2021-05-29T11:51:59.000Z</time>
      </trkpt>
      <trkpt lat="48.26577" lon="7.15503">
        <ele>976.8</ele>
        <time>2021-05-29T11:52:05.000Z</time>
      </trkpt>
      <trkpt lat="48.26582" lon="7.15514">
        <ele>976.9</ele>
        <time>2021-05-29T11:52:11.000Z</time>
      </trkpt>
      <trkpt lat="48.26588" lon="7.15527">
        <ele>976.3</ele>
        <time>2021-05-29T11:52:18.000Z</time>
      </trkpt>
      <trkpt lat="48.26593" lon="7.15539">
        <ele>975.5</ele>
        <time>2021-05-29T11:52:25.000Z</time>
      </trkpt>
      <trkpt lat="48.26598" lon="7.1555">
        <ele>974.9</ele>
        <time>2021-05-29T11:52:31.000Z</time>
      </trkpt>
      <trkpt lat="48.26604" lon="7.15565">
        <ele>974.5</ele>
        <time>2021-05-29T11:52:39.000Z</time>
      </trkpt>
      <trkpt lat="48.26611" lon="7.15576">
        <ele>974.1</ele>
        <time>2021-05-29T11:52:48.000Z</time>
      </trkpt>
      <trkpt lat="48.26617" lon="7.15587">
        <ele>973.6</ele>
        <time>2021-05-29T11:52:56.000Z</time>
      </trkpt>
      <trkpt lat="48.26624" lon="7.15598">
        <ele>972.8</ele>
        <time>2021-05-29T11:53:02.000Z</time>
      </trkpt>
      <trkpt lat="48.26632" lon="7.15607">
        <ele>972.3</ele>
        <time>2021-05-29T11:53:08.000Z</time>
      </trkpt>
      <trkpt lat="48.26639" lon="7.1562">
        <ele>972.1</ele>
        <time>2021-05-29T11:53:15.000Z</time>
      </trkpt>
      <trkpt lat="48.26644" lon="7.15631">
        <ele>972.3</ele>
        <time>2021-05-29T11:53:23.000Z</time>
      </trkpt>
      <trkpt lat="48.2665" lon="7.15643">
        <ele>972.7</ele>
        <time>2021-05-29T11:53:31.000Z</time>
      </trkpt>
      <trkpt lat="48.26656" lon="7.15655">
        <ele>973.6</ele>
        <time>2021-05-29T11:53:39.000Z</time>
      </trkpt>
      <trkpt lat="48.26661" lon="7.15668">
        <ele>974.5</ele>
        <time>2021-05-29T11:53:46.000Z</time>
      </trkpt>
      <trkpt lat="48.26676" lon="7.15669">
        <ele>973.9</ele>
        <time>2021-05-29T11:54:07.000Z</time>
      </trkpt>
      <trkpt lat="48.26682" lon="7.1568">
        <ele>973.6</ele>
        <time>2021-05-29T11:55:07.000Z</time>
      </trkpt>
      <trkpt lat="48.26689" lon="7.15691">
        <ele>973.3</ele>
        <time>2021-05-29T11:55:14.000Z</time>
      </trkpt>
      <trkpt lat="48.26697" lon="7.15701">
        <ele>973</ele>
        <time>2021-05-29T11:55:23.000Z</time>
      </trkpt>
      <trkpt lat="48.26704" lon="7.15712">
        <ele>972.9</ele>
        <time>2021-05-29T11:55:30.000Z</time>
      </trkpt>
      <trkpt lat="48.26711" lon="7.15722">
        <ele>972.9</ele>
        <time>2021-05-29T11:55:38.000Z</time>
      </trkpt>
      <trkpt lat="48.26724" lon="7.15731">
        <ele>972.5</ele>
        <time>2021-05-29T11:55:50.000Z</time>
      </trkpt>
      <trkpt lat="48.26731" lon="7.15742">
        <ele>972.7</ele>
        <time>2021-05-29T11:55:57.000Z</time>
      </trkpt>
      <trkpt lat="48.26741" lon="7.15749">
        <ele>972.6</ele>
        <time>2021-05-29T11:56:09.000Z</time>
      </trkpt>
      <trkpt lat="48.26748" lon="7.15758">
        <ele>971.9</ele>
        <time>2021-05-29T11:56:16.000Z</time>
      </trkpt>
      <trkpt lat="48.26757" lon="7.15771">
        <ele>970.2</ele>
        <time>2021-05-29T11:56:26.000Z</time>
      </trkpt>
      <trkpt lat="48.26766" lon="7.15779">
        <ele>968.3</ele>
        <time>2021-05-29T11:56:33.000Z</time>
      </trkpt>
      <trkpt lat="48.26774" lon="7.15786">
        <ele>966.7</ele>
        <time>2021-05-29T11:56:39.000Z</time>
      </trkpt>
      <trkpt lat="48.26787" lon="7.15803">
        <ele>964</ele>
        <time>2021-05-29T11:57:04.000Z</time>
      </trkpt>
      <trkpt lat="48.26796" lon="7.15807">
        <ele>962.4</ele>
        <time>2021-05-29T11:57:11.000Z</time>
      </trkpt>
      <trkpt lat="48.26804" lon="7.15814">
        <ele>960.9</ele>
        <time>2021-05-29T11:57:18.000Z</time>
      </trkpt>
      <trkpt lat="48.26812" lon="7.15822">
        <ele>959.6</ele>
        <time>2021-05-29T11:57:25.000Z</time>
      </trkpt>
      <trkpt lat="48.26819" lon="7.1583">
        <ele>958.3</ele>
        <time>2021-05-29T11:57:32.000Z</time>
      </trkpt>
      <trkpt lat="48.26829" lon="7.15836">
        <ele>956.7</ele>
        <time>2021-05-29T11:57:40.000Z</time>
      </trkpt>
      <trkpt lat="48.26839" lon="7.15843">
        <ele>954.9</ele>
        <time>2021-05-29T11:57:49.000Z</time>
      </trkpt>
      <trkpt lat="48.26844" lon="7.15856">
        <ele>954</ele>
        <time>2021-05-29T11:57:56.000Z</time>
      </trkpt>
      <trkpt lat="48.26847" lon="7.15869">
        <ele>953.5</ele>
        <time>2021-05-29T11:58:03.000Z</time>
      </trkpt>
      <trkpt lat="48.26851" lon="7.15882">
        <ele>953</ele>
        <time>2021-05-29T11:58:10.000Z</time>
      </trkpt>
      <trkpt lat="48.26851" lon="7.15896">
        <ele>952.9</ele>
        <time>2021-05-29T11:58:17.000Z</time>
      </trkpt>
      <trkpt lat="48.26851" lon="7.1591">
        <ele>952.8</ele>
        <time>2021-05-29T11:58:24.000Z</time>
      </trkpt>
      <trkpt lat="48.26857" lon="7.15922">
        <ele>952.1</ele>
        <time>2021-05-29T11:58:32.000Z</time>
      </trkpt>
      <trkpt lat="48.26863" lon="7.15933">
        <ele>951.4</ele>
        <time>2021-05-29T11:58:39.000Z</time>
      </trkpt>
      <trkpt lat="48.2687" lon="7.15945">
        <ele>950.7</ele>
        <time>2021-05-29T11:58:47.000Z</time>
      </trkpt>
      <trkpt lat="48.26878" lon="7.15956">
        <ele>949.9</ele>
        <time>2021-05-29T11:58:55.000Z</time>
      </trkpt>
      <trkpt lat="48.26885" lon="7.15965">
        <ele>949.3</ele>
        <time>2021-05-29T11:59:02.000Z</time>
      </trkpt>
      <trkpt lat="48.26895" lon="7.15969">
        <ele>948.6</ele>
        <time>2021-05-29T11:59:10.000Z</time>
      </trkpt>
      <trkpt lat="48.26904" lon="7.15975">
        <ele>948</ele>
        <time>2021-05-29T11:59:17.000Z</time>
      </trkpt>
      <trkpt lat="48.26914" lon="7.15977">
        <ele>947.4</ele>
        <time>2021-05-29T11:59:25.000Z</time>
      </trkpt>
      <trkpt lat="48.26923" lon="7.15978">
        <ele>946.1</ele>
        <time>2021-05-29T11:59:34.000Z</time>
      </trkpt>
      <trkpt lat="48.26932" lon="7.15984">
        <ele>944.5</ele>
        <time>2021-05-29T11:59:43.000Z</time>
      </trkpt>
      <trkpt lat="48.26939" lon="7.15993">
        <ele>943.2</ele>
        <time>2021-05-29T11:59:50.000Z</time>
      </trkpt>
      <trkpt lat="48.26948" lon="7.16001">
        <ele>941.7</ele>
        <time>2021-05-29T11:59:58.000Z</time>
      </trkpt>
      <trkpt lat="48.26957" lon="7.16006">
        <ele>939.7</ele>
        <time>2021-05-29T12:00:07.000Z</time>
      </trkpt>
      <trkpt lat="48.26966" lon="7.16012">
        <ele>937.6</ele>
        <time>2021-05-29T12:00:16.000Z</time>
      </trkpt>
      <trkpt lat="48.26976" lon="7.1602">
        <ele>935.4</ele>
        <time>2021-05-29T12:00:25.000Z</time>
      </trkpt>
      <trkpt lat="48.26985" lon="7.16023">
        <ele>933.8</ele>
        <time>2021-05-29T12:00:33.000Z</time>
      </trkpt>
      <trkpt lat="48.26996" lon="7.16026">
        <ele>932</ele>
        <time>2021-05-29T12:00:42.000Z</time>
      </trkpt>
      <trkpt lat="48.27006" lon="7.16034">
        <ele>930.2</ele>
        <time>2021-05-29T12:00:51.000Z</time>
      </trkpt>
      <trkpt lat="48.27014" lon="7.16044">
        <ele>928.8</ele>
        <time>2021-05-29T12:00:59.000Z</time>
      </trkpt>
      <trkpt lat="48.27021" lon="7.16053">
        <ele>927.6</ele>
        <time>2021-05-29T12:01:07.000Z</time>
      </trkpt>
      <trkpt lat="48.27031" lon="7.16054">
        <ele>926.5</ele>
        <time>2021-05-29T12:01:15.000Z</time>
      </trkpt>
      <trkpt lat="48.27041" lon="7.16056">
        <ele>925.4</ele>
        <time>2021-05-29T12:01:22.000Z</time>
      </trkpt>
      <trkpt lat="48.2705" lon="7.16061">
        <ele>924.4</ele>
        <time>2021-05-29T12:01:29.000Z</time>
      </trkpt>
      <trkpt lat="48.27059" lon="7.16065">
        <ele>923.4</ele>
        <time>2021-05-29T12:01:36.000Z</time>
      </trkpt>
      <trkpt lat="48.27068" lon="7.16069">
        <ele>922.4</ele>
        <time>2021-05-29T12:01:44.000Z</time>
      </trkpt>
      <trkpt lat="48.27078" lon="7.16072">
        <ele>921.5</ele>
        <time>2021-05-29T12:01:51.000Z</time>
      </trkpt>
      <trkpt lat="48.27088" lon="7.16079">
        <ele>920.4</ele>
        <time>2021-05-29T12:01:59.000Z</time>
      </trkpt>
      <trkpt lat="48.27096" lon="7.16084">
        <ele>919.1</ele>
        <time>2021-05-29T12:02:06.000Z</time>
      </trkpt>
      <trkpt lat="48.27106" lon="7.16091">
        <ele>917</ele>
        <time>2021-05-29T12:02:14.000Z</time>
      </trkpt>
      <trkpt lat="48.27115" lon="7.16095">
        <ele>915.3</ele>
        <time>2021-05-29T12:02:29.000Z</time>
      </trkpt>
      <trkpt lat="48.27125" lon="7.16099">
        <ele>913.6</ele>
        <time>2021-05-29T12:02:40.000Z</time>
      </trkpt>
      <trkpt lat="48.27131" lon="7.1611">
        <ele>911.8</ele>
        <time>2021-05-29T12:02:49.000Z</time>
      </trkpt>
      <trkpt lat="48.27135" lon="7.16124">
        <ele>910.3</ele>
        <time>2021-05-29T12:03:12.000Z</time>
      </trkpt>
      <trkpt lat="48.27141" lon="7.16114">
        <ele>910.4</ele>
        <time>2021-05-29T12:05:57.000Z</time>
      </trkpt>
      <trkpt lat="48.27143" lon="7.16099">
        <ele>911.2</ele>
        <time>2021-05-29T12:06:05.000Z</time>
      </trkpt>
      <trkpt lat="48.27145" lon="7.16082">
        <ele>912.2</ele>
        <time>2021-05-29T12:06:17.000Z</time>
      </trkpt>
      <trkpt lat="48.27151" lon="7.16072">
        <ele>910.9</ele>
        <time>2021-05-29T12:06:31.000Z</time>
      </trkpt>
      <trkpt lat="48.27161" lon="7.16068">
        <ele>909.3</ele>
        <time>2021-05-29T12:06:41.000Z</time>
      </trkpt>
      <trkpt lat="48.2717" lon="7.16056">
        <ele>907.1</ele>
        <time>2021-05-29T12:06:56.000Z</time>
      </trkpt>
      <trkpt lat="48.27181" lon="7.16047">
        <ele>904.1</ele>
        <time>2021-05-29T12:07:09.000Z</time>
      </trkpt>
      <trkpt lat="48.27192" lon="7.16038">
        <ele>901.4</ele>
        <time>2021-05-29T12:07:22.000Z</time>
      </trkpt>
      <trkpt lat="48.27203" lon="7.16027">
        <ele>898.8</ele>
        <time>2021-05-29T12:07:33.000Z</time>
      </trkpt>
      <trkpt lat="48.2721" lon="7.16015">
        <ele>897.1</ele>
        <time>2021-05-29T12:07:40.000Z</time>
      </trkpt>
      <trkpt lat="48.27217" lon="7.16004">
        <ele>895.7</ele>
        <time>2021-05-29T12:07:46.000Z</time>
      </trkpt>
      <trkpt lat="48.27225" lon="7.15996">
        <ele>893.7</ele>
        <time>2021-05-29T12:07:53.000Z</time>
      </trkpt>
      <trkpt lat="48.27234" lon="7.15993">
        <ele>891.6</ele>
        <time>2021-05-29T12:08:00.000Z</time>
      </trkpt>
      <trkpt lat="48.27236" lon="7.1598">
        <ele>889.6</ele>
        <time>2021-05-29T12:08:05.000Z</time>
      </trkpt>
      <trkpt lat="48.2724" lon="7.15964">
        <ele>887.1</ele>
        <time>2021-05-29T12:08:10.000Z</time>
      </trkpt>
      <trkpt lat="48.2725" lon="7.15963">
        <ele>884.9</ele>
        <time>2021-05-29T12:08:22.000Z</time>
      </trkpt>
      <trkpt lat="48.27265" lon="7.15948">
        <ele>879</ele>
        <time>2021-05-29T12:08:41.000Z</time>
      </trkpt>
      <trkpt lat="48.27277" lon="7.15939">
        <ele>874.8</ele>
        <time>2021-05-29T12:08:51.000Z</time>
      </trkpt>
      <trkpt lat="48.27285" lon="7.15932">
        <ele>872.2</ele>
        <time>2021-05-29T12:08:59.000Z</time>
      </trkpt>
      <trkpt lat="48.27298" lon="7.1592">
        <ele>868.5</ele>
        <time>2021-05-29T12:09:16.000Z</time>
      </trkpt>
      <trkpt lat="48.27306" lon="7.15913">
        <ele>866.5</ele>
        <time>2021-05-29T12:09:24.000Z</time>
      </trkpt>
      <trkpt lat="48.27318" lon="7.15907">
        <ele>863.5</ele>
        <time>2021-05-29T12:09:37.000Z</time>
      </trkpt>
      <trkpt lat="48.27328" lon="7.15902">
        <ele>861.3</ele>
        <time>2021-05-29T12:09:44.000Z</time>
      </trkpt>
      <trkpt lat="48.27336" lon="7.15894">
        <ele>859.6</ele>
        <time>2021-05-29T12:09:53.000Z</time>
      </trkpt>
      <trkpt lat="48.27345" lon="7.15889">
        <ele>858.3</ele>
        <time>2021-05-29T12:10:01.000Z</time>
      </trkpt>
      <trkpt lat="48.27355" lon="7.15889">
        <ele>856.9</ele>
        <time>2021-05-29T12:10:08.000Z</time>
      </trkpt>
      <trkpt lat="48.27364" lon="7.15888">
        <ele>855.6</ele>
        <time>2021-05-29T12:10:14.000Z</time>
      </trkpt>
      <trkpt lat="48.27373" lon="7.1589">
        <ele>854.2</ele>
        <time>2021-05-29T12:10:22.000Z</time>
      </trkpt>
      <trkpt lat="48.27383" lon="7.1589">
        <ele>852.9</ele>
        <time>2021-05-29T12:10:29.000Z</time>
      </trkpt>
      <trkpt lat="48.27381" lon="7.15904">
        <ele>852.8</ele>
        <time>2021-05-29T12:11:04.000Z</time>
      </trkpt>
      <trkpt lat="48.27374" lon="7.15912">
        <ele>853.8</ele>
        <time>2021-05-29T12:11:12.000Z</time>
      </trkpt>
      <trkpt lat="48.27367" lon="7.15922">
        <ele>854.4</ele>
        <time>2021-05-29T12:11:19.000Z</time>
      </trkpt>
      <trkpt lat="48.27361" lon="7.15932">
        <ele>854.6</ele>
        <time>2021-05-29T12:11:26.000Z</time>
      </trkpt>
      <trkpt lat="48.27356" lon="7.15945">
        <ele>854.4</ele>
        <time>2021-05-29T12:11:33.000Z</time>
      </trkpt>
      <trkpt lat="48.27351" lon="7.15958">
        <ele>854.6</ele>
        <time>2021-05-29T12:11:41.000Z</time>
      </trkpt>
      <trkpt lat="48.27345" lon="7.15969">
        <ele>855</ele>
        <time>2021-05-29T12:11:48.000Z</time>
      </trkpt>
      <trkpt lat="48.27341" lon="7.15982">
        <ele>855.2</ele>
        <time>2021-05-29T12:11:55.000Z</time>
      </trkpt>
      <trkpt lat="48.27338" lon="7.15997">
        <ele>855</ele>
        <time>2021-05-29T12:12:04.000Z</time>
      </trkpt>
      <trkpt lat="48.27346" lon="7.16049">
        <ele>850.2</ele>
        <time>2021-05-29T12:12:20.000Z</time>
      </trkpt>
      <trkpt lat="48.27341" lon="7.16017">
        <ele>853.3</ele>
        <time>2021-05-29T12:12:25.000Z</time>
      </trkpt>
      <trkpt lat="48.2733" lon="7.16028">
        <ele>856.4</ele>
        <time>2021-05-29T12:13:24.000Z</time>
      </trkpt>
      <trkpt lat="48.27321" lon="7.16043">
        <ele>859.4</ele>
        <time>2021-05-29T12:13:36.000Z</time>
      </trkpt>
      <trkpt lat="48.27317" lon="7.16057">
        <ele>860.5</ele>
        <time>2021-05-29T12:13:57.000Z</time>
      </trkpt>
      <trkpt lat="48.27309" lon="7.16065">
        <ele>863.5</ele>
        <time>2021-05-29T12:14:03.000Z</time>
      </trkpt>
      <trkpt lat="48.27303" lon="7.16077">
        <ele>865.2</ele>
        <time>2021-05-29T12:14:12.000Z</time>
      </trkpt>
      <trkpt lat="48.27298" lon="7.161">
        <ele>865.3</ele>
        <time>2021-05-29T12:14:34.000Z</time>
      </trkpt>
      <trkpt lat="48.2729" lon="7.1611">
        <ele>867.3</ele>
        <time>2021-05-29T12:14:40.000Z</time>
      </trkpt>
      <trkpt lat="48.27284" lon="7.16121">
        <ele>869.1</ele>
        <time>2021-05-29T12:14:47.000Z</time>
      </trkpt>
      <trkpt lat="48.2728" lon="7.16135">
        <ele>869.2</ele>
        <time>2021-05-29T12:14:54.000Z</time>
      </trkpt>
      <trkpt lat="48.27277" lon="7.16148">
        <ele>869.3</ele>
        <time>2021-05-29T12:15:02.000Z</time>
      </trkpt>
      <trkpt lat="48.27275" lon="7.16163">
        <ele>868.7</ele>
        <time>2021-05-29T12:15:10.000Z</time>
      </trkpt>
      <trkpt lat="48.27272" lon="7.16183">
        <ele>867.7</ele>
        <time>2021-05-29T12:15:40.000Z</time>
      </trkpt>
      <trkpt lat="48.27268" lon="7.16197">
        <ele>867.6</ele>
        <time>2021-05-29T12:15:49.000Z</time>
      </trkpt>
      <trkpt lat="48.27265" lon="7.16211">
        <ele>867.2</ele>
        <time>2021-05-29T12:15:57.000Z</time>
      </trkpt>
      <trkpt lat="48.27262" lon="7.16225">
        <ele>866.5</ele>
        <time>2021-05-29T12:16:05.000Z</time>
      </trkpt>
      <trkpt lat="48.27257" lon="7.16238">
        <ele>866.9</ele>
        <time>2021-05-29T12:16:13.000Z</time>
      </trkpt>
      <trkpt lat="48.27253" lon="7.16252">
        <ele>866.4</ele>
        <time>2021-05-29T12:16:21.000Z</time>
      </trkpt>
      <trkpt lat="48.27247" lon="7.16262">
        <ele>865.4</ele>
        <time>2021-05-29T12:16:29.000Z</time>
      </trkpt>
      <trkpt lat="48.27239" lon="7.16272">
        <ele>864</ele>
        <time>2021-05-29T12:16:37.000Z</time>
      </trkpt>
      <trkpt lat="48.27229" lon="7.16275">
        <ele>864.7</ele>
        <time>2021-05-29T12:16:45.000Z</time>
      </trkpt>
      <trkpt lat="48.2722" lon="7.16277">
        <ele>865.6</ele>
        <time>2021-05-29T12:16:53.000Z</time>
      </trkpt>
      <trkpt lat="48.27209" lon="7.16277">
        <ele>867.2</ele>
        <time>2021-05-29T12:17:02.000Z</time>
      </trkpt>
      <trkpt lat="48.27199" lon="7.16279">
        <ele>868.1</ele>
        <time>2021-05-29T12:17:10.000Z</time>
      </trkpt>
      <trkpt lat="48.2719" lon="7.1628">
        <ele>869.3</ele>
        <time>2021-05-29T12:17:16.000Z</time>
      </trkpt>
      <trkpt lat="48.27181" lon="7.16277">
        <ele>871.5</ele>
        <time>2021-05-29T12:17:22.000Z</time>
      </trkpt>
      <trkpt lat="48.27171" lon="7.16275">
        <ele>873.7</ele>
        <time>2021-05-29T12:17:29.000Z</time>
      </trkpt>
      <trkpt lat="48.27153" lon="7.16275">
        <ele>874</ele>
        <time>2021-05-29T12:17:44.000Z</time>
      </trkpt>
      <trkpt lat="48.27143" lon="7.16273">
        <ele>874</ele>
        <time>2021-05-29T12:17:49.000Z</time>
      </trkpt>
      <trkpt lat="48.27134" lon="7.16273">
        <ele>873.8</ele>
        <time>2021-05-29T12:17:54.000Z</time>
      </trkpt>
      <trkpt lat="48.27124" lon="7.16271">
        <ele>874.1</ele>
        <time>2021-05-29T12:18:01.000Z</time>
      </trkpt>
      <trkpt lat="48.27115" lon="7.16268">
        <ele>874.8</ele>
        <time>2021-05-29T12:18:08.000Z</time>
      </trkpt>
      <trkpt lat="48.27105" lon="7.16264">
        <ele>875.9</ele>
        <time>2021-05-29T12:18:16.000Z</time>
      </trkpt>
      <trkpt lat="48.27096" lon="7.16261">
        <ele>876.4</ele>
        <time>2021-05-29T12:18:24.000Z</time>
      </trkpt>
      <trkpt lat="48.27087" lon="7.16257">
        <ele>877.6</ele>
        <time>2021-05-29T12:18:32.000Z</time>
      </trkpt>
      <trkpt lat="48.27079" lon="7.16251">
        <ele>879.3</ele>
        <time>2021-05-29T12:18:38.000Z</time>
      </trkpt>
      <trkpt lat="48.27069" lon="7.16248">
        <ele>880</ele>
        <time>2021-05-29T12:18:44.000Z</time>
      </trkpt>
      <trkpt lat="48.27059" lon="7.16245">
        <ele>880.6</ele>
        <time>2021-05-29T12:18:51.000Z</time>
      </trkpt>
      <trkpt lat="48.2705" lon="7.16244">
        <ele>880.5</ele>
        <time>2021-05-29T12:18:57.000Z</time>
      </trkpt>
      <trkpt lat="48.27041" lon="7.16241">
        <ele>881.3</ele>
        <time>2021-05-29T12:19:05.000Z</time>
      </trkpt>
      <trkpt lat="48.27032" lon="7.16238">
        <ele>881.8</ele>
        <time>2021-05-29T12:19:12.000Z</time>
      </trkpt>
      <trkpt lat="48.27023" lon="7.16234">
        <ele>882.6</ele>
        <time>2021-05-29T12:19:20.000Z</time>
      </trkpt>
      <trkpt lat="48.27013" lon="7.16235">
        <ele>881.9</ele>
        <time>2021-05-29T12:19:28.000Z</time>
      </trkpt>
      <trkpt lat="48.27004" lon="7.16238">
        <ele>880.5</ele>
        <time>2021-05-29T12:19:37.000Z</time>
      </trkpt>
      <trkpt lat="48.26995" lon="7.16238">
        <ele>880.8</ele>
        <time>2021-05-29T12:19:45.000Z</time>
      </trkpt>
      <trkpt lat="48.26985" lon="7.1624">
        <ele>880.7</ele>
        <time>2021-05-29T12:19:51.000Z</time>
      </trkpt>
      <trkpt lat="48.26976" lon="7.16247">
        <ele>879</ele>
        <time>2021-05-29T12:19:58.000Z</time>
      </trkpt>
      <trkpt lat="48.26966" lon="7.16252">
        <ele>878.2</ele>
        <time>2021-05-29T12:20:05.000Z</time>
      </trkpt>
      <trkpt lat="48.26957" lon="7.16257">
        <ele>877</ele>
        <time>2021-05-29T12:20:11.000Z</time>
      </trkpt>
      <trkpt lat="48.26948" lon="7.16261">
        <ele>876.4</ele>
        <time>2021-05-29T12:20:17.000Z</time>
      </trkpt>
      <trkpt lat="48.26939" lon="7.16266">
        <ele>875.6</ele>
        <time>2021-05-29T12:20:25.000Z</time>
      </trkpt>
      <trkpt lat="48.2693" lon="7.1627">
        <ele>874.8</ele>
        <time>2021-05-29T12:20:32.000Z</time>
      </trkpt>
      <trkpt lat="48.2692" lon="7.16275">
        <ele>873.9</ele>
        <time>2021-05-29T12:20:40.000Z</time>
      </trkpt>
      <trkpt lat="48.26911" lon="7.16279">
        <ele>874.2</ele>
        <time>2021-05-29T12:20:47.000Z</time>
      </trkpt>
      <trkpt lat="48.26902" lon="7.16285">
        <ele>874.2</ele>
        <time>2021-05-29T12:20:54.000Z</time>
      </trkpt>
      <trkpt lat="48.26893" lon="7.16292">
        <ele>873.9</ele>
        <time>2021-05-29T12:21:01.000Z</time>
      </trkpt>
      <trkpt lat="48.26884" lon="7.16293">
        <ele>875.8</ele>
        <time>2021-05-29T12:21:09.000Z</time>
      </trkpt>
      <trkpt lat="48.26876" lon="7.16298">
        <ele>876.1</ele>
        <time>2021-05-29T12:21:16.000Z</time>
      </trkpt>
      <trkpt lat="48.26867" lon="7.16303">
        <ele>876.4</ele>
        <time>2021-05-29T12:21:23.000Z</time>
      </trkpt>
      <trkpt lat="48.26858" lon="7.1631">
        <ele>876.4</ele>
        <time>2021-05-29T12:21:29.000Z</time>
      </trkpt>
      <trkpt lat="48.26849" lon="7.16315">
        <ele>877.1</ele>
        <time>2021-05-29T12:21:36.000Z</time>
      </trkpt>
      <trkpt lat="48.2684" lon="7.16319">
        <ele>877.8</ele>
        <time>2021-05-29T12:21:43.000Z</time>
      </trkpt>
      <trkpt lat="48.26831" lon="7.16325">
        <ele>878.5</ele>
        <time>2021-05-29T12:21:51.000Z</time>
      </trkpt>
      <trkpt lat="48.26822" lon="7.16328">
        <ele>880.1</ele>
        <time>2021-05-29T12:21:59.000Z</time>
      </trkpt>
      <trkpt lat="48.26811" lon="7.16329">
        <ele>882.6</ele>
        <time>2021-05-29T12:22:07.000Z</time>
      </trkpt>
      <trkpt lat="48.26802" lon="7.16327">
        <ele>885.7</ele>
        <time>2021-05-29T12:22:14.000Z</time>
      </trkpt>
      <trkpt lat="48.26793" lon="7.16335">
        <ele>886.4</ele>
        <time>2021-05-29T12:22:23.000Z</time>
      </trkpt>
      <trkpt lat="48.26789" lon="7.16348">
        <ele>886.6</ele>
        <time>2021-05-29T12:22:30.000Z</time>
      </trkpt>
      <trkpt lat="48.26789" lon="7.16363">
        <ele>885</ele>
        <time>2021-05-29T12:22:36.000Z</time>
      </trkpt>
      <trkpt lat="48.26791" lon="7.16378">
        <ele>883</ele>
        <time>2021-05-29T12:22:42.000Z</time>
      </trkpt>
      <trkpt lat="48.26794" lon="7.16393">
        <ele>880.5</ele>
        <time>2021-05-29T12:22:49.000Z</time>
      </trkpt>
      <trkpt lat="48.26797" lon="7.16406">
        <ele>877.9</ele>
        <time>2021-05-29T12:22:55.000Z</time>
      </trkpt>
      <trkpt lat="48.26797" lon="7.1642">
        <ele>877.1</ele>
        <time>2021-05-29T12:23:02.000Z</time>
      </trkpt>
      <trkpt lat="48.26799" lon="7.16434">
        <ele>877.5</ele>
        <time>2021-05-29T12:23:10.000Z</time>
      </trkpt>
      <trkpt lat="48.26802" lon="7.16449">
        <ele>877.4</ele>
        <time>2021-05-29T12:23:18.000Z</time>
      </trkpt>
      <trkpt lat="48.26805" lon="7.16462">
        <ele>877.1</ele>
        <time>2021-05-29T12:23:24.000Z</time>
      </trkpt>
      <trkpt lat="48.26809" lon="7.16474">
        <ele>876.5</ele>
        <time>2021-05-29T12:23:31.000Z</time>
      </trkpt>
      <trkpt lat="48.26812" lon="7.16489">
        <ele>876.6</ele>
        <time>2021-05-29T12:23:40.000Z</time>
      </trkpt>
      <trkpt lat="48.26818" lon="7.16504">
        <ele>875.9</ele>
        <time>2021-05-29T12:23:49.000Z</time>
      </trkpt>
      <trkpt lat="48.26824" lon="7.16517">
        <ele>876</ele>
        <time>2021-05-29T12:23:55.000Z</time>
      </trkpt>
      <trkpt lat="48.26829" lon="7.16529">
        <ele>876.2</ele>
        <time>2021-05-29T12:24:02.000Z</time>
      </trkpt>
      <trkpt lat="48.26837" lon="7.16546">
        <ele>876.6</ele>
        <time>2021-05-29T12:24:14.000Z</time>
      </trkpt>
      <trkpt lat="48.26847" lon="7.16559">
        <ele>875.7</ele>
        <time>2021-05-29T12:24:46.000Z</time>
      </trkpt>
      <trkpt lat="48.26855" lon="7.16567">
        <ele>874.7</ele>
        <time>2021-05-29T12:24:54.000Z</time>
      </trkpt>
      <trkpt lat="48.26864" lon="7.16578">
        <ele>874.5</ele>
        <time>2021-05-29T12:25:02.000Z</time>
      </trkpt>
      <trkpt lat="48.26872" lon="7.16592">
        <ele>874.7</ele>
        <time>2021-05-29T12:25:07.000Z</time>
      </trkpt>
      <trkpt lat="48.26875" lon="7.16606">
        <ele>876.7</ele>
        <time>2021-05-29T12:25:14.000Z</time>
      </trkpt>
      <trkpt lat="48.26882" lon="7.16618">
        <ele>876.7</ele>
        <time>2021-05-29T12:25:22.000Z</time>
      </trkpt>
      <trkpt lat="48.26892" lon="7.16629">
        <ele>875.7</ele>
        <time>2021-05-29T12:25:31.000Z</time>
      </trkpt>
      <trkpt lat="48.26897" lon="7.16642">
        <ele>876.4</ele>
        <time>2021-05-29T12:25:38.000Z</time>
      </trkpt>
      <trkpt lat="48.26903" lon="7.16653">
        <ele>876.4</ele>
        <time>2021-05-29T12:25:44.000Z</time>
      </trkpt>
      <trkpt lat="48.26909" lon="7.16663">
        <ele>876</ele>
        <time>2021-05-29T12:25:52.000Z</time>
      </trkpt>
      <trkpt lat="48.26917" lon="7.16673">
        <ele>874.8</ele>
        <time>2021-05-29T12:25:58.000Z</time>
      </trkpt>
      <trkpt lat="48.26922" lon="7.16685">
        <ele>874.8</ele>
        <time>2021-05-29T12:26:05.000Z</time>
      </trkpt>
      <trkpt lat="48.26929" lon="7.16696">
        <ele>874.1</ele>
        <time>2021-05-29T12:26:13.000Z</time>
      </trkpt>
      <trkpt lat="48.26935" lon="7.16709">
        <ele>873.6</ele>
        <time>2021-05-29T12:26:20.000Z</time>
      </trkpt>
      <trkpt lat="48.2694" lon="7.16726">
        <ele>874.4</ele>
        <time>2021-05-29T12:26:31.000Z</time>
      </trkpt>
      <trkpt lat="48.26946" lon="7.16738">
        <ele>874.2</ele>
        <time>2021-05-29T12:26:37.000Z</time>
      </trkpt>
      <trkpt lat="48.2695" lon="7.16753">
        <ele>874.9</ele>
        <time>2021-05-29T12:26:45.000Z</time>
      </trkpt>
      <trkpt lat="48.26955" lon="7.16766">
        <ele>874.7</ele>
        <time>2021-05-29T12:26:52.000Z</time>
      </trkpt>
      <trkpt lat="48.26957" lon="7.16779">
        <ele>876.4</ele>
        <time>2021-05-29T12:27:01.000Z</time>
      </trkpt>
      <trkpt lat="48.26961" lon="7.16793">
        <ele>876.7</ele>
        <time>2021-05-29T12:27:09.000Z</time>
      </trkpt>
      <trkpt lat="48.26968" lon="7.16804">
        <ele>875.9</ele>
        <time>2021-05-29T12:27:17.000Z</time>
      </trkpt>
      <trkpt lat="48.26974" lon="7.16816">
        <ele>875.1</ele>
        <time>2021-05-29T12:27:24.000Z</time>
      </trkpt>
      <trkpt lat="48.26979" lon="7.16828">
        <ele>875</ele>
        <time>2021-05-29T12:27:31.000Z</time>
      </trkpt>
      <trkpt lat="48.26983" lon="7.16841">
        <ele>874.9</ele>
        <time>2021-05-29T12:27:38.000Z</time>
      </trkpt>
      <trkpt lat="48.26988" lon="7.16854">
        <ele>875</ele>
        <time>2021-05-29T12:27:45.000Z</time>
      </trkpt>
      <trkpt lat="48.2699" lon="7.16869">
        <ele>875.8</ele>
        <time>2021-05-29T12:27:54.000Z</time>
      </trkpt>
      <trkpt lat="48.26995" lon="7.16882">
        <ele>875.8</ele>
        <time>2021-05-29T12:28:01.000Z</time>
      </trkpt>
      <trkpt lat="48.26998" lon="7.16899">
        <ele>877.2</ele>
        <time>2021-05-29T12:28:10.000Z</time>
      </trkpt>
      <trkpt lat="48.27001" lon="7.16914">
        <ele>878.3</ele>
        <time>2021-05-29T12:28:16.000Z</time>
      </trkpt>
      <trkpt lat="48.27005" lon="7.16928">
        <ele>878.7</ele>
        <time>2021-05-29T12:28:23.000Z</time>
      </trkpt>
      <trkpt lat="48.27012" lon="7.16946">
        <ele>879</ele>
        <time>2021-05-29T12:28:35.000Z</time>
      </trkpt>
      <trkpt lat="48.27018" lon="7.16957">
        <ele>878.5</ele>
        <time>2021-05-29T12:28:40.000Z</time>
      </trkpt>
      <trkpt lat="48.27025" lon="7.16965">
        <ele>877.2</ele>
        <time>2021-05-29T12:28:46.000Z</time>
      </trkpt>
      <trkpt lat="48.27033" lon="7.16972">
        <ele>875.8</ele>
        <time>2021-05-29T12:28:53.000Z</time>
      </trkpt>
      <trkpt lat="48.2704" lon="7.16981">
        <ele>874.8</ele>
        <time>2021-05-29T12:28:59.000Z</time>
      </trkpt>
      <trkpt lat="48.27049" lon="7.1699">
        <ele>873.1</ele>
        <time>2021-05-29T12:29:06.000Z</time>
      </trkpt>
      <trkpt lat="48.27058" lon="7.16998">
        <ele>871.5</ele>
        <time>2021-05-29T12:29:13.000Z</time>
      </trkpt>
      <trkpt lat="48.27065" lon="7.17007">
        <ele>869.7</ele>
        <time>2021-05-29T12:29:20.000Z</time>
      </trkpt>
      <trkpt lat="48.27073" lon="7.17015">
        <ele>867.9</ele>
        <time>2021-05-29T12:29:27.000Z</time>
      </trkpt>
      <trkpt lat="48.27078" lon="7.17026">
        <ele>867.1</ele>
        <time>2021-05-29T12:29:35.000Z</time>
      </trkpt>
      <trkpt lat="48.27084" lon="7.17037">
        <ele>866.2</ele>
        <time>2021-05-29T12:29:42.000Z</time>
      </trkpt>
      <trkpt lat="48.27091" lon="7.17048">
        <ele>865.6</ele>
        <time>2021-05-29T12:29:50.000Z</time>
      </trkpt>
      <trkpt lat="48.27097" lon="7.1706">
        <ele>865.6</ele>
        <time>2021-05-29T12:29:57.000Z</time>
      </trkpt>
      <trkpt lat="48.27103" lon="7.17071">
        <ele>865.5</ele>
        <time>2021-05-29T12:30:03.000Z</time>
      </trkpt>
      <trkpt lat="48.27108" lon="7.17084">
        <ele>865.8</ele>
        <time>2021-05-29T12:30:10.000Z</time>
      </trkpt>
      <trkpt lat="48.2711" lon="7.17098">
        <ele>865.3</ele>
        <time>2021-05-29T12:30:18.000Z</time>
      </trkpt>
      <trkpt lat="48.27107" lon="7.17111">
        <ele>865.4</ele>
        <time>2021-05-29T12:30:26.000Z</time>
      </trkpt>
      <trkpt lat="48.27102" lon="7.17124">
        <ele>865.9</ele>
        <time>2021-05-29T12:30:34.000Z</time>
      </trkpt>
      <trkpt lat="48.27099" lon="7.17137">
        <ele>866.4</ele>
        <time>2021-05-29T12:30:42.000Z</time>
      </trkpt>
      <trkpt lat="48.27095" lon="7.17151">
        <ele>866.9</ele>
        <time>2021-05-29T12:30:50.000Z</time>
      </trkpt>
      <trkpt lat="48.27092" lon="7.17163">
        <ele>867.5</ele>
        <time>2021-05-29T12:30:57.000Z</time>
      </trkpt>
      <trkpt lat="48.27087" lon="7.17176">
        <ele>867.6</ele>
        <time>2021-05-29T12:31:05.000Z</time>
      </trkpt>
      <trkpt lat="48.27083" lon="7.1719">
        <ele>867.4</ele>
        <time>2021-05-29T12:31:13.000Z</time>
      </trkpt>
      <trkpt lat="48.27076" lon="7.17201">
        <ele>866.9</ele>
        <time>2021-05-29T12:31:20.000Z</time>
      </trkpt>
      <trkpt lat="48.2707" lon="7.17213">
        <ele>866.1</ele>
        <time>2021-05-29T12:31:28.000Z</time>
      </trkpt>
      <trkpt lat="48.27065" lon="7.17225">
        <ele>865.3</ele>
        <time>2021-05-29T12:31:35.000Z</time>
      </trkpt>
      <trkpt lat="48.27059" lon="7.17236">
        <ele>864.3</ele>
        <time>2021-05-29T12:31:43.000Z</time>
      </trkpt>
      <trkpt lat="48.27052" lon="7.17247">
        <ele>863.3</ele>
        <time>2021-05-29T12:31:51.000Z</time>
      </trkpt>
      <trkpt lat="48.27044" lon="7.17257">
        <ele>861.9</ele>
        <time>2021-05-29T12:31:58.000Z</time>
      </trkpt>
      <trkpt lat="48.27036" lon="7.17264">
        <ele>860.5</ele>
        <time>2021-05-29T12:32:05.000Z</time>
      </trkpt>
      <trkpt lat="48.27028" lon="7.17273">
        <ele>858.7</ele>
        <time>2021-05-29T12:32:32.000Z</time>
      </trkpt>
      <trkpt lat="48.27018" lon="7.17269">
        <ele>859.2</ele>
        <time>2021-05-29T12:32:41.000Z</time>
      </trkpt>
      <trkpt lat="48.27005" lon="7.17256">
        <ele>861.7</ele>
        <time>2021-05-29T12:33:07.000Z</time>
      </trkpt>
      <trkpt lat="48.26995" lon="7.17249">
        <ele>861.7</ele>
        <time>2021-05-29T12:33:17.000Z</time>
      </trkpt>
      <trkpt lat="48.26984" lon="7.1724">
        <ele>860.8</ele>
        <time>2021-05-29T12:33:29.000Z</time>
      </trkpt>
      <trkpt lat="48.26973" lon="7.17232">
        <ele>859.4</ele>
        <time>2021-05-29T12:33:42.000Z</time>
      </trkpt>
      <trkpt lat="48.26958" lon="7.17223">
        <ele>858.1</ele>
        <time>2021-05-29T12:33:56.000Z</time>
      </trkpt>
      <trkpt lat="48.26945" lon="7.17221">
        <ele>856.1</ele>
        <time>2021-05-29T12:34:08.000Z</time>
      </trkpt>
      <trkpt lat="48.26934" lon="7.17219">
        <ele>854.4</ele>
        <time>2021-05-29T12:34:20.000Z</time>
      </trkpt>
      <trkpt lat="48.26921" lon="7.17215">
        <ele>852.7</ele>
        <time>2021-05-29T12:34:32.000Z</time>
      </trkpt>
      <trkpt lat="48.26909" lon="7.17212">
        <ele>852.4</ele>
        <time>2021-05-29T12:34:43.000Z</time>
      </trkpt>
      <trkpt lat="48.26896" lon="7.1721">
        <ele>852.5</ele>
        <time>2021-05-29T12:34:57.000Z</time>
      </trkpt>
      <trkpt lat="48.26882" lon="7.17212">
        <ele>851</ele>
        <time>2021-05-29T12:35:10.000Z</time>
      </trkpt>
      <trkpt lat="48.26871" lon="7.17214">
        <ele>849.4</ele>
        <time>2021-05-29T12:35:19.000Z</time>
      </trkpt>
      <trkpt lat="48.26859" lon="7.17221">
        <ele>846.1</ele>
        <time>2021-05-29T12:35:30.000Z</time>
      </trkpt>
      <trkpt lat="48.2685" lon="7.17227">
        <ele>843.3</ele>
        <time>2021-05-29T12:35:36.000Z</time>
      </trkpt>
      <trkpt lat="48.26842" lon="7.17233">
        <ele>840.3</ele>
        <time>2021-05-29T12:35:45.000Z</time>
      </trkpt>
      <trkpt lat="48.26829" lon="7.17238">
        <ele>837.5</ele>
        <time>2021-05-29T12:35:57.000Z</time>
      </trkpt>
      <trkpt lat="48.26817" lon="7.17247">
        <ele>833.5</ele>
        <time>2021-05-29T12:36:07.000Z</time>
      </trkpt>
      <trkpt lat="48.26809" lon="7.17242">
        <ele>834.8</ele>
        <time>2021-05-29T12:36:14.000Z</time>
      </trkpt>
      <trkpt lat="48.26797" lon="7.1725">
        <ele>831.3</ele>
        <time>2021-05-29T12:36:25.000Z</time>
      </trkpt>
      <trkpt lat="48.26787" lon="7.17258">
        <ele>828.1</ele>
        <time>2021-05-29T12:36:32.000Z</time>
      </trkpt>
      <trkpt lat="48.26774" lon="7.17268">
        <ele>824.7</ele>
        <time>2021-05-29T12:36:42.000Z</time>
      </trkpt>
      <trkpt lat="48.26761" lon="7.17273">
        <ele>823</ele>
        <time>2021-05-29T12:36:53.000Z</time>
      </trkpt>
      <trkpt lat="48.26747" lon="7.17279">
        <ele>821</ele>
        <time>2021-05-29T12:37:04.000Z</time>
      </trkpt>
      <trkpt lat="48.26736" lon="7.17277">
        <ele>820</ele>
        <time>2021-05-29T12:37:17.000Z</time>
      </trkpt>
      <trkpt lat="48.26725" lon="7.17271">
        <ele>820</ele>
        <time>2021-05-29T12:37:27.000Z</time>
      </trkpt>
      <trkpt lat="48.26711" lon="7.17263">
        <ele>819.8</ele>
        <time>2021-05-29T12:37:35.000Z</time>
      </trkpt>
      <trkpt lat="48.26697" lon="7.1726">
        <ele>818.5</ele>
        <time>2021-05-29T12:37:45.000Z</time>
      </trkpt>
      <trkpt lat="48.26685" lon="7.17252">
        <ele>818.4</ele>
        <time>2021-05-29T12:37:55.000Z</time>
      </trkpt>
      <trkpt lat="48.26672" lon="7.17249">
        <ele>817.1</ele>
        <time>2021-05-29T12:38:05.000Z</time>
      </trkpt>
      <trkpt lat="48.2666" lon="7.17244">
        <ele>817.5</ele>
        <time>2021-05-29T12:38:15.000Z</time>
      </trkpt>
      <trkpt lat="48.2665" lon="7.17246">
        <ele>816.7</ele>
        <time>2021-05-29T12:38:22.000Z</time>
      </trkpt>
      <trkpt lat="48.2664" lon="7.1725">
        <ele>815.5</ele>
        <time>2021-05-29T12:38:28.000Z</time>
      </trkpt>
      <trkpt lat="48.2663" lon="7.17253">
        <ele>814.6</ele>
        <time>2021-05-29T12:38:35.000Z</time>
      </trkpt>
      <trkpt lat="48.26622" lon="7.17261">
        <ele>812.7</ele>
        <time>2021-05-29T12:38:46.000Z</time>
      </trkpt>
      <trkpt lat="48.26613" lon="7.17273">
        <ele>810</ele>
        <time>2021-05-29T12:39:00.000Z</time>
      </trkpt>
      <trkpt lat="48.26604" lon="7.17287">
        <ele>807</ele>
        <time>2021-05-29T12:39:11.000Z</time>
      </trkpt>
      <trkpt lat="48.26598" lon="7.17299">
        <ele>804.3</ele>
        <time>2021-05-29T12:39:16.000Z</time>
      </trkpt>
      <trkpt lat="48.26591" lon="7.17309">
        <ele>802.2</ele>
        <time>2021-05-29T12:39:21.000Z</time>
      </trkpt>
      <trkpt lat="48.26585" lon="7.17321">
        <ele>799.6</ele>
        <time>2021-05-29T12:39:28.000Z</time>
      </trkpt>
      <trkpt lat="48.26579" lon="7.1734">
        <ele>797</ele>
        <time>2021-05-29T12:39:43.000Z</time>
      </trkpt>
      <trkpt lat="48.26575" lon="7.17358">
        <ele>794.7</ele>
        <time>2021-05-29T12:39:54.000Z</time>
      </trkpt>
      <trkpt lat="48.2657" lon="7.17377">
        <ele>792.4</ele>
        <time>2021-05-29T12:40:06.000Z</time>
      </trkpt>
      <trkpt lat="48.26565" lon="7.17395">
        <ele>790.2</ele>
        <time>2021-05-29T12:40:17.000Z</time>
      </trkpt>
      <trkpt lat="48.26559" lon="7.17413">
        <ele>788.7</ele>
        <time>2021-05-29T12:40:28.000Z</time>
      </trkpt>
      <trkpt lat="48.26552" lon="7.17424">
        <ele>787.8</ele>
        <time>2021-05-29T12:40:35.000Z</time>
      </trkpt>
      <trkpt lat="48.26548" lon="7.17438">
        <ele>785</ele>
        <time>2021-05-29T12:40:43.000Z</time>
      </trkpt>
      <trkpt lat="48.26543" lon="7.1745">
        <ele>783.1</ele>
        <time>2021-05-29T12:40:49.000Z</time>
      </trkpt>
      <trkpt lat="48.26539" lon="7.17463">
        <ele>780.5</ele>
        <time>2021-05-29T12:40:57.000Z</time>
      </trkpt>
      <trkpt lat="48.26525" lon="7.17484">
        <ele>779.7</ele>
        <time>2021-05-29T12:41:02.000Z</time>
      </trkpt>
      <trkpt lat="48.2652" lon="7.17498">
        <ele>777.6</ele>
        <time>2021-05-29T12:41:20.000Z</time>
      </trkpt>
      <trkpt lat="48.26518" lon="7.17517">
        <ele>775</ele>
        <time>2021-05-29T12:41:31.000Z</time>
      </trkpt>
      <trkpt lat="48.26517" lon="7.17532">
        <ele>772.7</ele>
        <time>2021-05-29T12:41:38.000Z</time>
      </trkpt>
      <trkpt lat="48.26515" lon="7.17548">
        <ele>770.4</ele>
        <time>2021-05-29T12:41:44.000Z</time>
      </trkpt>
      <trkpt lat="48.26515" lon="7.17562">
        <ele>768</ele>
        <time>2021-05-29T12:41:49.000Z</time>
      </trkpt>
      <trkpt lat="48.26513" lon="7.17576">
        <ele>766.3</ele>
        <time>2021-05-29T12:41:55.000Z</time>
      </trkpt>
      <trkpt lat="48.26511" lon="7.1759">
        <ele>764.8</ele>
        <time>2021-05-29T12:42:03.000Z</time>
      </trkpt>
      <trkpt lat="48.26507" lon="7.17605">
        <ele>763.8</ele>
        <time>2021-05-29T12:42:15.000Z</time>
      </trkpt>
      <trkpt lat="48.26505" lon="7.17619">
        <ele>762.7</ele>
        <time>2021-05-29T12:42:21.000Z</time>
      </trkpt>
      <trkpt lat="48.26501" lon="7.17633">
        <ele>761.9</ele>
        <time>2021-05-29T12:42:29.000Z</time>
      </trkpt>
      <trkpt lat="48.26494" lon="7.17643">
        <ele>759.5</ele>
        <time>2021-05-29T12:42:36.000Z</time>
      </trkpt>
      <trkpt lat="48.26489" lon="7.17655">
        <ele>756.7</ele>
        <time>2021-05-29T12:42:44.000Z</time>
      </trkpt>
      <trkpt lat="48.26481" lon="7.17665">
        <ele>753.4</ele>
        <time>2021-05-29T12:42:55.000Z</time>
      </trkpt>
      <trkpt lat="48.26469" lon="7.17676">
        <ele>749.5</ele>
        <time>2021-05-29T12:43:09.000Z</time>
      </trkpt>
      <trkpt lat="48.26458" lon="7.17681">
        <ele>746.5</ele>
        <time>2021-05-29T12:43:21.000Z</time>
      </trkpt>
      <trkpt lat="48.26449" lon="7.17677">
        <ele>745.2</ele>
        <time>2021-05-29T12:43:31.000Z</time>
      </trkpt>
      <trkpt lat="48.26441" lon="7.17668">
        <ele>744.9</ele>
        <time>2021-05-29T12:43:42.000Z</time>
      </trkpt>
      <trkpt lat="48.26433" lon="7.1765">
        <ele>746.6</ele>
        <time>2021-05-29T12:43:58.000Z</time>
      </trkpt>
      <trkpt lat="48.26427" lon="7.17633">
        <ele>748.6</ele>
        <time>2021-05-29T12:44:09.000Z</time>
      </trkpt>
      <trkpt lat="48.2642" lon="7.17621">
        <ele>749.9</ele>
        <time>2021-05-29T12:44:16.000Z</time>
      </trkpt>
      <trkpt lat="48.26408" lon="7.17603">
        <ele>749.3</ele>
        <time>2021-05-29T12:44:34.000Z</time>
      </trkpt>
      <trkpt lat="48.26395" lon="7.17595">
        <ele>745.6</ele>
        <time>2021-05-29T12:44:44.000Z</time>
      </trkpt>
      <trkpt lat="48.26383" lon="7.17587">
        <ele>742.3</ele>
        <time>2021-05-29T12:44:56.000Z</time>
      </trkpt>
      <trkpt lat="48.26372" lon="7.17575">
        <ele>741.3</ele>
        <time>2021-05-29T12:45:08.000Z</time>
      </trkpt>
      <trkpt lat="48.26361" lon="7.17561">
        <ele>740.7</ele>
        <time>2021-05-29T12:45:19.000Z</time>
      </trkpt>
      <trkpt lat="48.26351" lon="7.17552">
        <ele>739.2</ele>
        <time>2021-05-29T12:45:30.000Z</time>
      </trkpt>
      <trkpt lat="48.26337" lon="7.17548">
        <ele>735.1</ele>
        <time>2021-05-29T12:45:39.000Z</time>
      </trkpt>
      <trkpt lat="48.26319" lon="7.17538">
        <ele>732.1</ele>
        <time>2021-05-29T12:45:44.000Z</time>
      </trkpt>
      <trkpt lat="48.26311" lon="7.17531">
        <ele>732</ele>
        <time>2021-05-29T12:45:49.000Z</time>
      </trkpt>
      <trkpt lat="48.263" lon="7.1752">
        <ele>732.1</ele>
        <time>2021-05-29T12:46:00.000Z</time>
      </trkpt>
      <trkpt lat="48.26284" lon="7.17508">
        <ele>731.7</ele>
        <time>2021-05-29T12:46:16.000Z</time>
      </trkpt>
      <trkpt lat="48.26273" lon="7.17496">
        <ele>732.6</ele>
        <time>2021-05-29T12:46:26.000Z</time>
      </trkpt>
      <trkpt lat="48.26264" lon="7.17483">
        <ele>735.3</ele>
        <time>2021-05-29T12:46:39.000Z</time>
      </trkpt>
      <trkpt lat="48.26254" lon="7.17471">
        <ele>736.7</ele>
        <time>2021-05-29T12:46:50.000Z</time>
      </trkpt>
      <trkpt lat="48.26242" lon="7.17461">
        <ele>739.3</ele>
        <time>2021-05-29T12:47:01.000Z</time>
      </trkpt>
      <trkpt lat="48.2623" lon="7.17459">
        <ele>739.6</ele>
        <time>2021-05-29T12:47:10.000Z</time>
      </trkpt>
      <trkpt lat="48.26216" lon="7.1746">
        <ele>738.3</ele>
        <time>2021-05-29T12:47:21.000Z</time>
      </trkpt>
      <trkpt lat="48.26203" lon="7.17468">
        <ele>735.1</ele>
        <time>2021-05-29T12:47:26.000Z</time>
      </trkpt>
      <trkpt lat="48.26192" lon="7.17474">
        <ele>732.8</ele>
        <time>2021-05-29T12:47:31.000Z</time>
      </trkpt>
      <trkpt lat="48.26183" lon="7.17478">
        <ele>730.9</ele>
        <time>2021-05-29T12:47:37.000Z</time>
      </trkpt>
      <trkpt lat="48.26173" lon="7.17484">
        <ele>728.6</ele>
        <time>2021-05-29T12:47:43.000Z</time>
      </trkpt>
      <trkpt lat="48.26163" lon="7.17489">
        <ele>726.8</ele>
        <time>2021-05-29T12:47:48.000Z</time>
      </trkpt>
      <trkpt lat="48.26154" lon="7.17494">
        <ele>725.3</ele>
        <time>2021-05-29T12:47:55.000Z</time>
      </trkpt>
      <trkpt lat="48.26146" lon="7.17502">
        <ele>722.9</ele>
        <time>2021-05-29T12:48:02.000Z</time>
      </trkpt>
      <trkpt lat="48.26134" lon="7.17512">
        <ele>718.6</ele>
        <time>2021-05-29T12:48:15.000Z</time>
      </trkpt>
      <trkpt lat="48.26123" lon="7.17516">
        <ele>717.4</ele>
        <time>2021-05-29T12:48:28.000Z</time>
      </trkpt>
      <trkpt lat="48.2611" lon="7.17519">
        <ele>716.7</ele>
        <time>2021-05-29T12:48:41.000Z</time>
      </trkpt>
      <trkpt lat="48.261" lon="7.17526">
        <ele>714.4</ele>
        <time>2021-05-29T12:49:17.000Z</time>
      </trkpt>
      <trkpt lat="48.26091" lon="7.1753">
        <ele>713.6</ele>
        <time>2021-05-29T12:49:25.000Z</time>
      </trkpt>
      <trkpt lat="48.26081" lon="7.17533">
        <ele>712.3</ele>
        <time>2021-05-29T12:49:35.000Z</time>
      </trkpt>
      <trkpt lat="48.26068" lon="7.17536">
        <ele>710</ele>
        <time>2021-05-29T12:49:48.000Z</time>
      </trkpt>
      <trkpt lat="48.26055" lon="7.17538">
        <ele>707.8</ele>
        <time>2021-05-29T12:49:58.000Z</time>
      </trkpt>
      <trkpt lat="48.26042" lon="7.17536">
        <ele>706.9</ele>
        <time>2021-05-29T12:50:08.000Z</time>
      </trkpt>
      <trkpt lat="48.26029" lon="7.17535">
        <ele>705.8</ele>
        <time>2021-05-29T12:50:19.000Z</time>
      </trkpt>
      <trkpt lat="48.26015" lon="7.17537">
        <ele>703.6</ele>
        <time>2021-05-29T12:50:30.000Z</time>
      </trkpt>
      <trkpt lat="48.26001" lon="7.17535">
        <ele>702.4</ele>
        <time>2021-05-29T12:50:40.000Z</time>
      </trkpt>
      <trkpt lat="48.25989" lon="7.17531">
        <ele>699.3</ele>
        <time>2021-05-29T12:50:51.000Z</time>
      </trkpt>
      <trkpt lat="48.25976" lon="7.17526">
        <ele>696.2</ele>
        <time>2021-05-29T12:51:02.000Z</time>
      </trkpt>
      <trkpt lat="48.25964" lon="7.1752">
        <ele>693.9</ele>
        <time>2021-05-29T12:51:13.000Z</time>
      </trkpt>
      <trkpt lat="48.25951" lon="7.17512">
        <ele>691.4</ele>
        <time>2021-05-29T12:51:23.000Z</time>
      </trkpt>
      <trkpt lat="48.25936" lon="7.17503">
        <ele>689</ele>
        <time>2021-05-29T12:51:33.000Z</time>
      </trkpt>
      <trkpt lat="48.25912" lon="7.17499">
        <ele>682.6</ele>
        <time>2021-05-29T12:51:38.000Z</time>
      </trkpt>
      <trkpt lat="48.25903" lon="7.17494">
        <ele>680.1</ele>
        <time>2021-05-29T12:51:43.000Z</time>
      </trkpt>
      <trkpt lat="48.2591" lon="7.17505">
        <ele>680</ele>
        <time>2021-05-29T12:52:07.000Z</time>
      </trkpt>
      <trkpt lat="48.25914" lon="7.17517">
        <ele>678.4</ele>
        <time>2021-05-29T12:52:14.000Z</time>
      </trkpt>
      <trkpt lat="48.25923" lon="7.17527">
        <ele>678.5</ele>
        <time>2021-05-29T12:52:24.000Z</time>
      </trkpt>
      <trkpt lat="48.25933" lon="7.17545">
        <ele>677.2</ele>
        <time>2021-05-29T12:52:43.000Z</time>
      </trkpt>
      <trkpt lat="48.25941" lon="7.17559">
        <ele>676.7</ele>
        <time>2021-05-29T12:52:55.000Z</time>
      </trkpt>
      <trkpt lat="48.25947" lon="7.1757">
        <ele>675.9</ele>
        <time>2021-05-29T12:53:01.000Z</time>
      </trkpt>
      <trkpt lat="48.25932" lon="7.17565">
        <ele>671.6</ele>
        <time>2021-05-29T12:53:39.000Z</time>
      </trkpt>
      <trkpt lat="48.2593" lon="7.1758">
        <ele>667</ele>
        <time>2021-05-29T12:54:02.000Z</time>
      </trkpt>
      <trkpt lat="48.25932" lon="7.17593">
        <ele>663.8</ele>
        <time>2021-05-29T12:54:12.000Z</time>
      </trkpt>
      <trkpt lat="48.25939" lon="7.17604">
        <ele>662.9</ele>
        <time>2021-05-29T12:54:19.000Z</time>
      </trkpt>
      <trkpt lat="48.25944" lon="7.17616">
        <ele>660.4</ele>
        <time>2021-05-29T12:54:26.000Z</time>
      </trkpt>
      <trkpt lat="48.25935" lon="7.17613">
        <ele>658.3</ele>
        <time>2021-05-29T12:55:07.000Z</time>
      </trkpt>
      <trkpt lat="48.25927" lon="7.17607">
        <ele>657.6</ele>
        <time>2021-05-29T12:55:14.000Z</time>
      </trkpt>
      <trkpt lat="48.25919" lon="7.176">
        <ele>657.2</ele>
        <time>2021-05-29T12:55:25.000Z</time>
      </trkpt>
      <trkpt lat="48.2591" lon="7.17591">
        <ele>656.2</ele>
        <time>2021-05-29T12:55:33.000Z</time>
      </trkpt>
      <trkpt lat="48.25898" lon="7.1758">
        <ele>654.8</ele>
        <time>2021-05-29T12:55:46.000Z</time>
      </trkpt>
      <trkpt lat="48.25888" lon="7.17572">
        <ele>653.7</ele>
        <time>2021-05-29T12:55:59.000Z</time>
      </trkpt>
      <trkpt lat="48.2588" lon="7.17562">
        <ele>653.2</ele>
        <time>2021-05-29T12:56:04.000Z</time>
      </trkpt>
      <trkpt lat="48.25872" lon="7.17555">
        <ele>652.3</ele>
        <time>2021-05-29T12:56:10.000Z</time>
      </trkpt>
      <trkpt lat="48.2586" lon="7.17556">
        <ele>647.4</ele>
        <time>2021-05-29T12:56:24.000Z</time>
      </trkpt>
      <trkpt lat="48.25848" lon="7.17558">
        <ele>642.5</ele>
        <time>2021-05-29T12:56:35.000Z</time>
      </trkpt>
      <trkpt lat="48.25836" lon="7.17558">
        <ele>638.1</ele>
        <time>2021-05-29T12:56:45.000Z</time>
      </trkpt>
      <trkpt lat="48.25822" lon="7.17552">
        <ele>636.9</ele>
        <time>2021-05-29T12:56:56.000Z</time>
      </trkpt>
      <trkpt lat="48.25809" lon="7.17547">
        <ele>635.9</ele>
        <time>2021-05-29T12:57:06.000Z</time>
      </trkpt>
      <trkpt lat="48.25796" lon="7.17546">
        <ele>633.9</ele>
        <time>2021-05-29T12:57:16.000Z</time>
      </trkpt>
      <trkpt lat="48.25783" lon="7.17543">
        <ele>632.5</ele>
        <time>2021-05-29T12:57:26.000Z</time>
      </trkpt>
      <trkpt lat="48.25769" lon="7.17536">
        <ele>631.6</ele>
        <time>2021-05-29T12:57:36.000Z</time>
      </trkpt>
      <trkpt lat="48.25749" lon="7.17534">
        <ele>628.4</ele>
        <time>2021-05-29T12:57:41.000Z</time>
      </trkpt>
      <trkpt lat="48.2574" lon="7.1753">
        <ele>628.6</ele>
        <time>2021-05-29T12:58:32.000Z</time>
      </trkpt>
      <trkpt lat="48.25731" lon="7.17535">
        <ele>627.2</ele>
        <time>2021-05-29T13:00:35.000Z</time>
      </trkpt>
      <trkpt lat="48.25721" lon="7.1753">
        <ele>627.6</ele>
        <time>2021-05-29T13:00:48.000Z</time>
      </trkpt>
      <trkpt lat="48.25712" lon="7.17525">
        <ele>628.2</ele>
        <time>2021-05-29T13:01:02.000Z</time>
      </trkpt>
      <trkpt lat="48.25704" lon="7.17533">
        <ele>626</ele>
        <time>2021-05-29T13:01:09.000Z</time>
      </trkpt>
      <trkpt lat="48.25698" lon="7.17544">
        <ele>623</ele>
        <time>2021-05-29T13:01:16.000Z</time>
      </trkpt>
      <trkpt lat="48.25686" lon="7.17555">
        <ele>619.7</ele>
        <time>2021-05-29T13:01:36.000Z</time>
      </trkpt>
      <trkpt lat="48.25673" lon="7.17559">
        <ele>617.7</ele>
        <time>2021-05-29T13:01:48.000Z</time>
      </trkpt>
      <trkpt lat="48.2566" lon="7.17566">
        <ele>615.5</ele>
        <time>2021-05-29T13:02:01.000Z</time>
      </trkpt>
      <trkpt lat="48.25652" lon="7.17575">
        <ele>613</ele>
        <time>2021-05-29T13:02:07.000Z</time>
      </trkpt>
      <trkpt lat="48.25644" lon="7.17582">
        <ele>611.4</ele>
        <time>2021-05-29T13:02:13.000Z</time>
      </trkpt>
      <trkpt lat="48.25634" lon="7.17587">
        <ele>609.9</ele>
        <time>2021-05-29T13:02:20.000Z</time>
      </trkpt>
      <trkpt lat="48.25626" lon="7.17595">
        <ele>607.9</ele>
        <time>2021-05-29T13:02:27.000Z</time>
      </trkpt>
      <trkpt lat="48.25617" lon="7.17605">
        <ele>605.4</ele>
        <time>2021-05-29T13:02:41.000Z</time>
      </trkpt>
      <trkpt lat="48.25606" lon="7.17614">
        <ele>603.2</ele>
        <time>2021-05-29T13:02:54.000Z</time>
      </trkpt>
      <trkpt lat="48.25596" lon="7.17626">
        <ele>600.5</ele>
        <time>2021-05-29T13:03:06.000Z</time>
      </trkpt>
      <trkpt lat="48.25585" lon="7.17636">
        <ele>598.3</ele>
        <time>2021-05-29T13:03:16.000Z</time>
      </trkpt>
      <trkpt lat="48.25573" lon="7.17639">
        <ele>596.7</ele>
        <time>2021-05-29T13:03:29.000Z</time>
      </trkpt>
      <trkpt lat="48.25562" lon="7.17648">
        <ele>594</ele>
        <time>2021-05-29T13:03:39.000Z</time>
      </trkpt>
      <trkpt lat="48.2555" lon="7.17657">
        <ele>591.2</ele>
        <time>2021-05-29T13:03:48.000Z</time>
      </trkpt>
      <trkpt lat="48.25539" lon="7.17665">
        <ele>589.2</ele>
        <time>2021-05-29T13:04:00.000Z</time>
      </trkpt>
      <trkpt lat="48.25526" lon="7.17668">
        <ele>588.1</ele>
        <time>2021-05-29T13:04:12.000Z</time>
      </trkpt>
      <trkpt lat="48.25512" lon="7.17672">
        <ele>587</ele>
        <time>2021-05-29T13:04:22.000Z</time>
      </trkpt>
      <trkpt lat="48.25498" lon="7.17677">
        <ele>586.1</ele>
        <time>2021-05-29T13:04:39.000Z</time>
      </trkpt>
      <trkpt lat="48.25486" lon="7.17673">
        <ele>585</ele>
        <time>2021-05-29T13:04:57.000Z</time>
      </trkpt>
      <trkpt lat="48.25475" lon="7.17676">
        <ele>583.5</ele>
        <time>2021-05-29T13:05:35.000Z</time>
      </trkpt>
      <trkpt lat="48.25464" lon="7.17677">
        <ele>582.3</ele>
        <time>2021-05-29T13:05:45.000Z</time>
      </trkpt>
      <trkpt lat="48.2545" lon="7.17685">
        <ele>580.6</ele>
        <time>2021-05-29T13:06:10.000Z</time>
      </trkpt>
      <trkpt lat="48.25459" lon="7.17701">
        <ele>581</ele>
        <time>2021-05-29T13:06:23.000Z</time>
      </trkpt>
      <trkpt lat="48.25452" lon="7.17684">
        <ele>580.8</ele>
        <time>2021-05-29T13:06:28.000Z</time>
      </trkpt>
      <trkpt lat="48.25442" lon="7.17685">
        <ele>579.8</ele>
        <time>2021-05-29T13:07:00.000Z</time>
      </trkpt>
      <trkpt lat="48.25433" lon="7.17686">
        <ele>578.9</ele>
        <time>2021-05-29T13:07:07.000Z</time>
      </trkpt>
      <trkpt lat="48.25423" lon="7.17683">
        <ele>577.9</ele>
        <time>2021-05-29T13:07:12.000Z</time>
      </trkpt>
      <trkpt lat="48.25413" lon="7.17685">
        <ele>576.8</ele>
        <time>2021-05-29T13:07:19.000Z</time>
      </trkpt>
      <trkpt lat="48.25404" lon="7.17687">
        <ele>575.8</ele>
        <time>2021-05-29T13:07:29.000Z</time>
      </trkpt>
      <trkpt lat="48.25393" lon="7.17693">
        <ele>574.6</ele>
        <time>2021-05-29T13:07:41.000Z</time>
      </trkpt>
      <trkpt lat="48.25381" lon="7.1769">
        <ele>573.3</ele>
        <time>2021-05-29T13:07:56.000Z</time>
      </trkpt>
      <trkpt lat="48.25372" lon="7.17687">
        <ele>572.2</ele>
        <time>2021-05-29T13:08:06.000Z</time>
      </trkpt>
      <trkpt lat="48.25362" lon="7.17684">
        <ele>571.3</ele>
        <time>2021-05-29T13:08:15.000Z</time>
      </trkpt>
      <trkpt lat="48.25354" lon="7.1768">
        <ele>570.5</ele>
        <time>2021-05-29T13:08:21.000Z</time>
      </trkpt>
      <trkpt lat="48.25345" lon="7.17672">
        <ele>569.9</ele>
        <time>2021-05-29T13:08:28.000Z</time>
      </trkpt>
      <trkpt lat="48.25337" lon="7.17668">
        <ele>569.3</ele>
        <time>2021-05-29T13:08:36.000Z</time>
      </trkpt>
      <trkpt lat="48.25328" lon="7.17662">
        <ele>567.6</ele>
        <time>2021-05-29T13:08:47.000Z</time>
      </trkpt>
      <trkpt lat="48.2532" lon="7.17652">
        <ele>565.1</ele>
        <time>2021-05-29T13:08:56.000Z</time>
      </trkpt>
      <trkpt lat="48.25312" lon="7.17644">
        <ele>563</ele>
        <time>2021-05-29T13:09:07.000Z</time>
      </trkpt>
      <trkpt lat="48.25305" lon="7.17633">
        <ele>560.8</ele>
        <time>2021-05-29T13:09:13.000Z</time>
      </trkpt>
      <trkpt lat="48.25305" lon="7.17619">
        <ele>559.2</ele>
        <time>2021-05-29T13:09:42.000Z</time>
      </trkpt>
      <trkpt lat="48.25309" lon="7.17606">
        <ele>558.2</ele>
        <time>2021-05-29T13:09:53.000Z</time>
      </trkpt>
      <trkpt lat="48.25305" lon="7.17593">
        <ele>556.4</ele>
        <time>2021-05-29T13:10:01.000Z</time>
      </trkpt>
      <trkpt lat="48.253" lon="7.17582">
        <ele>554.2</ele>
        <time>2021-05-29T13:10:10.000Z</time>
      </trkpt>
      <trkpt lat="48.25293" lon="7.17571">
        <ele>550.5</ele>
        <time>2021-05-29T13:10:21.000Z</time>
      </trkpt>
      <trkpt lat="48.25283" lon="7.17568">
        <ele>548.6</ele>
        <time>2021-05-29T13:10:31.000Z</time>
      </trkpt>
      <trkpt lat="48.25273" lon="7.17573">
        <ele>549.1</ele>
        <time>2021-05-29T13:11:02.000Z</time>
      </trkpt>
      <trkpt lat="48.25261" lon="7.17575">
        <ele>548.6</ele>
        <time>2021-05-29T13:11:13.000Z</time>
      </trkpt>
      <trkpt lat="48.25252" lon="7.17576">
        <ele>548.1</ele>
        <time>2021-05-29T13:11:18.000Z</time>
      </trkpt>
      <trkpt lat="48.25242" lon="7.17582">
        <ele>546.8</ele>
        <time>2021-05-29T13:11:25.000Z</time>
      </trkpt>
      <trkpt lat="48.25234" lon="7.17591">
        <ele>545</ele>
        <time>2021-05-29T13:11:32.000Z</time>
      </trkpt>
      <trkpt lat="48.25228" lon="7.176">
        <ele>543.4</ele>
        <time>2021-05-29T13:11:40.000Z</time>
      </trkpt>
      <trkpt lat="48.2522" lon="7.17609">
        <ele>541.9</ele>
        <time>2021-05-29T13:11:48.000Z</time>
      </trkpt>
      <trkpt lat="48.25212" lon="7.17616">
        <ele>539.9</ele>
        <time>2021-05-29T13:11:56.000Z</time>
      </trkpt>
      <trkpt lat="48.25204" lon="7.17624">
        <ele>538.3</ele>
        <time>2021-05-29T13:12:08.000Z</time>
      </trkpt>
      <trkpt lat="48.25196" lon="7.17631">
        <ele>536.6</ele>
        <time>2021-05-29T13:12:16.000Z</time>
      </trkpt>
      <trkpt lat="48.2519" lon="7.17642">
        <ele>536.1</ele>
        <time>2021-05-29T13:12:22.000Z</time>
      </trkpt>
      <trkpt lat="48.25184" lon="7.17654">
        <ele>536.1</ele>
        <time>2021-05-29T13:12:30.000Z</time>
      </trkpt>
      <trkpt lat="48.25181" lon="7.17667">
        <ele>536.9</ele>
        <time>2021-05-29T13:12:39.000Z</time>
      </trkpt>
      <trkpt lat="48.25178" lon="7.17681">
        <ele>536.3</ele>
        <time>2021-05-29T13:12:46.000Z</time>
      </trkpt>
      <trkpt lat="48.25173" lon="7.17704">
        <ele>535.5</ele>
        <time>2021-05-29T13:13:01.000Z</time>
      </trkpt>
      <trkpt lat="48.25168" lon="7.17715">
        <ele>534.4</ele>
        <time>2021-05-29T13:13:08.000Z</time>
      </trkpt>
      <trkpt lat="48.2516" lon="7.17732">
        <ele>533.2</ele>
        <time>2021-05-29T13:13:50.000Z</time>
      </trkpt>
      <trkpt lat="48.25151" lon="7.17734">
        <ele>531.7</ele>
        <time>2021-05-29T13:13:55.000Z</time>
      </trkpt>
      <trkpt lat="48.25141" lon="7.17735">
        <ele>530</ele>
        <time>2021-05-29T13:14:05.000Z</time>
      </trkpt>
      <trkpt lat="48.25132" lon="7.17736">
        <ele>528.5</ele>
        <time>2021-05-29T13:14:11.000Z</time>
      </trkpt>
      <trkpt lat="48.25123" lon="7.17738">
        <ele>527</ele>
        <time>2021-05-29T13:14:17.000Z</time>
      </trkpt>
      <trkpt lat="48.25115" lon="7.17743">
        <ele>526</ele>
        <time>2021-05-29T13:14:24.000Z</time>
      </trkpt>
      <trkpt lat="48.25106" lon="7.17746">
        <ele>524.9</ele>
        <time>2021-05-29T13:14:31.000Z</time>
      </trkpt>
      <trkpt lat="48.25096" lon="7.1775">
        <ele>524</ele>
        <time>2021-05-29T13:14:38.000Z</time>
      </trkpt>
      <trkpt lat="48.25087" lon="7.17753">
        <ele>522.3</ele>
        <time>2021-05-29T13:14:46.000Z</time>
      </trkpt>
      <trkpt lat="48.25077" lon="7.17756">
        <ele>521</ele>
        <time>2021-05-29T13:14:53.000Z</time>
      </trkpt>
      <trkpt lat="48.25068" lon="7.17759">
        <ele>519.8</ele>
        <time>2021-05-29T13:15:00.000Z</time>
      </trkpt>
      <trkpt lat="48.25059" lon="7.17762">
        <ele>518.7</ele>
        <time>2021-05-29T13:15:07.000Z</time>
      </trkpt>
      <trkpt lat="48.25056" lon="7.17749">
        <ele>519.1</ele>
        <time>2021-05-29T13:15:25.000Z</time>
      </trkpt>
      <trkpt lat="48.25048" lon="7.17759">
        <ele>518</ele>
        <time>2021-05-29T13:15:38.000Z</time>
      </trkpt>
      <trkpt lat="48.25039" lon="7.17763">
        <ele>516.7</ele>
        <time>2021-05-29T13:15:45.000Z</time>
      </trkpt>
      <trkpt lat="48.2503" lon="7.17762">
        <ele>515.9</ele>
        <time>2021-05-29T13:15:52.000Z</time>
      </trkpt>
      <trkpt lat="48.25021" lon="7.17764">
        <ele>514.8</ele>
        <time>2021-05-29T13:16:00.000Z</time>
      </trkpt>
      <trkpt lat="48.25011" lon="7.17767">
        <ele>513.6</ele>
        <time>2021-05-29T13:16:08.000Z</time>
      </trkpt>
      <trkpt lat="48.24994" lon="7.17765">
        <ele>511.6</ele>
        <time>2021-05-29T13:16:26.000Z</time>
      </trkpt>
      <trkpt lat="48.24984" lon="7.17765">
        <ele>510</ele>
        <time>2021-05-29T13:16:35.000Z</time>
      </trkpt>
      <trkpt lat="48.24975" lon="7.17762">
        <ele>508.6</ele>
        <time>2021-05-29T13:16:44.000Z</time>
      </trkpt>
      <trkpt lat="48.24961" lon="7.17761">
        <ele>506.2</ele>
        <time>2021-05-29T13:17:00.000Z</time>
      </trkpt>
      <trkpt lat="48.24949" lon="7.17757">
        <ele>504.6</ele>
        <time>2021-05-29T13:17:13.000Z</time>
      </trkpt>
      <trkpt lat="48.24937" lon="7.17753">
        <ele>503</ele>
        <time>2021-05-29T13:17:28.000Z</time>
      </trkpt>
      <trkpt lat="48.24924" lon="7.1775">
        <ele>501.2</ele>
        <time>2021-05-29T13:17:40.000Z</time>
      </trkpt>
      <trkpt lat="48.24913" lon="7.17747">
        <ele>498.9</ele>
        <time>2021-05-29T13:17:52.000Z</time>
      </trkpt>
      <trkpt lat="48.24904" lon="7.17743">
        <ele>496.6</ele>
        <time>2021-05-29T13:18:00.000Z</time>
      </trkpt>
      <trkpt lat="48.24893" lon="7.17742">
        <ele>494.3</ele>
        <time>2021-05-29T13:18:07.000Z</time>
      </trkpt>
      <trkpt lat="48.24884" lon="7.17741">
        <ele>492.3</ele>
        <time>2021-05-29T13:18:12.000Z</time>
      </trkpt>
      <trkpt lat="48.24874" lon="7.17741">
        <ele>490.2</ele>
        <time>2021-05-29T13:18:18.000Z</time>
      </trkpt>
      <trkpt lat="48.24864" lon="7.17743">
        <ele>488</ele>
        <time>2021-05-29T13:18:25.000Z</time>
      </trkpt>
      <trkpt lat="48.24847" lon="7.17742">
        <ele>484.3</ele>
        <time>2021-05-29T13:18:42.000Z</time>
      </trkpt>
      <trkpt lat="48.24834" lon="7.17745">
        <ele>481.5</ele>
        <time>2021-05-29T13:18:54.000Z</time>
      </trkpt>
      <trkpt lat="48.24821" lon="7.17744">
        <ele>480.3</ele>
        <time>2021-05-29T13:19:05.000Z</time>
      </trkpt>
      <trkpt lat="48.24798" lon="7.17751">
        <ele>478.3</ele>
        <time>2021-05-29T13:19:15.000Z</time>
      </trkpt>
      <trkpt lat="48.24781" lon="7.17756">
        <ele>476</ele>
        <time>2021-05-29T13:19:57.000Z</time>
      </trkpt>
      <trkpt lat="48.24771" lon="7.17767">
        <ele>473.1</ele>
        <time>2021-05-29T13:20:14.000Z</time>
      </trkpt>
      <trkpt lat="48.24763" lon="7.17782">
        <ele>469.5</ele>
        <time>2021-05-29T13:20:27.000Z</time>
      </trkpt>
      <trkpt lat="48.24755" lon="7.17797">
        <ele>465.9</ele>
        <time>2021-05-29T13:20:38.000Z</time>
      </trkpt>
      <trkpt lat="48.24747" lon="7.17816">
        <ele>461.7</ele>
        <time>2021-05-29T13:20:48.000Z</time>
      </trkpt>
      <trkpt lat="48.24741" lon="7.17832">
        <ele>458.8</ele>
        <time>2021-05-29T13:21:02.000Z</time>
      </trkpt>
      <trkpt lat="48.24736" lon="7.17848">
        <ele>454.4</ele>
        <time>2021-05-29T13:21:14.000Z</time>
      </trkpt>
      <trkpt lat="48.24731" lon="7.17866">
        <ele>449.3</ele>
        <time>2021-05-29T13:21:24.000Z</time>
      </trkpt>
      <trkpt lat="48.24727" lon="7.17883">
        <ele>444.8</ele>
        <time>2021-05-29T13:21:29.000Z</time>
      </trkpt>
      <trkpt lat="48.24723" lon="7.17898">
        <ele>440.9</ele>
        <time>2021-05-29T13:21:35.000Z</time>
      </trkpt>
      <trkpt lat="48.24721" lon="7.17912">
        <ele>437.3</ele>
        <time>2021-05-29T13:21:43.000Z</time>
      </trkpt>
      <trkpt lat="48.24721" lon="7.17926">
        <ele>434.1</ele>
        <time>2021-05-29T13:21:51.000Z</time>
      </trkpt>
      <trkpt lat="48.24721" lon="7.1794">
        <ele>431.4</ele>
        <time>2021-05-29T13:21:59.000Z</time>
      </trkpt>
      <trkpt lat="48.24719" lon="7.17955">
        <ele>428.6</ele>
        <time>2021-05-29T13:22:07.000Z</time>
      </trkpt>
      <trkpt lat="48.24716" lon="7.17968">
        <ele>426.1</ele>
        <time>2021-05-29T13:22:15.000Z</time>
      </trkpt>
      <trkpt lat="48.2472" lon="7.17981">
        <ele>423.4</ele>
        <time>2021-05-29T13:22:24.000Z</time>
      </trkpt>
      <trkpt lat="48.24715" lon="7.17993">
        <ele>421.1</ele>
        <time>2021-05-29T13:22:36.000Z</time>
      </trkpt>
      <trkpt lat="48.24706" lon="7.17989">
        <ele>422</ele>
        <time>2021-05-29T13:22:42.000Z</time>
      </trkpt>
      <trkpt lat="48.24695" lon="7.17983">
        <ele>423.7</ele>
        <time>2021-05-29T13:23:36.000Z</time>
      </trkpt>
      <trkpt lat="48.24684" lon="7.17977">
        <ele>425.5</ele>
        <time>2021-05-29T13:23:50.000Z</time>
      </trkpt>
      <trkpt lat="48.24671" lon="7.17974">
        <ele>426.9</ele>
        <time>2021-05-29T13:24:03.000Z</time>
      </trkpt>
      <trkpt lat="48.24658" lon="7.17975">
        <ele>424.5</ele>
        <time>2021-05-29T13:24:14.000Z</time>
      </trkpt>
      <trkpt lat="48.24646" lon="7.17977">
        <ele>420.9</ele>
        <time>2021-05-29T13:24:27.000Z</time>
      </trkpt>
      <trkpt lat="48.24633" lon="7.17979">
        <ele>416.7</ele>
        <time>2021-05-29T13:24:42.000Z</time>
      </trkpt>
      <trkpt lat="48.24619" lon="7.17982">
        <ele>412.3</ele>
        <time>2021-05-29T13:24:55.000Z</time>
      </trkpt>
      <trkpt lat="48.24607" lon="7.17982">
        <ele>408.9</ele>
        <time>2021-05-29T13:25:11.000Z</time>
      </trkpt>
      <trkpt lat="48.24598" lon="7.1797">
        <ele>410.7</ele>
        <time>2021-05-29T13:25:25.000Z</time>
      </trkpt>
      <trkpt lat="48.24587" lon="7.17962">
        <ele>410.2</ele>
        <time>2021-05-29T13:25:38.000Z</time>
      </trkpt>
      <trkpt lat="48.24574" lon="7.1796">
        <ele>407.7</ele>
        <time>2021-05-29T13:25:48.000Z</time>
      </trkpt>
      <trkpt lat="48.24563" lon="7.17953">
        <ele>406.6</ele>
        <time>2021-05-29T13:26:00.000Z</time>
      </trkpt>
      <trkpt lat="48.24553" lon="7.17949">
        <ele>405.1</ele>
        <time>2021-05-29T13:26:06.000Z</time>
      </trkpt>
      <trkpt lat="48.24537" lon="7.17942">
        <ele>401.7</ele>
        <time>2021-05-29T13:26:20.000Z</time>
      </trkpt>
      <trkpt lat="48.24525" lon="7.17935">
        <ele>399.4</ele>
        <time>2021-05-29T13:26:33.000Z</time>
      </trkpt>
      <trkpt lat="48.24515" lon="7.17926">
        <ele>397.5</ele>
        <time>2021-05-29T13:26:45.000Z</time>
      </trkpt>
      <trkpt lat="48.24504" lon="7.17927">
        <ele>393.2</ele>
        <time>2021-05-29T13:26:56.000Z</time>
      </trkpt>
      <trkpt lat="48.24497" lon="7.17936">
        <ele>391</ele>
        <time>2021-05-29T13:27:01.000Z</time>
      </trkpt>
      <trkpt lat="48.24488" lon="7.17942">
        <ele>390</ele>
        <time>2021-05-29T13:27:06.000Z</time>
      </trkpt>
      <trkpt lat="48.24484" lon="7.17965">
        <ele>388</ele>
        <time>2021-05-29T13:27:20.000Z</time>
      </trkpt>
      <trkpt lat="48.24477" lon="7.17976">
        <ele>386.9</ele>
        <time>2021-05-29T13:27:27.000Z</time>
      </trkpt>
      <trkpt lat="48.24469" lon="7.17984">
        <ele>386.2</ele>
        <time>2021-05-29T13:27:35.000Z</time>
      </trkpt>
      <trkpt lat="48.24459" lon="7.17989">
        <ele>385.8</ele>
        <time>2021-05-29T13:27:45.000Z</time>
      </trkpt>
      <trkpt lat="48.24451" lon="7.17995">
        <ele>385.3</ele>
        <time>2021-05-29T13:27:53.000Z</time>
      </trkpt>
      <trkpt lat="48.24441" lon="7.18001">
        <ele>384.9</ele>
        <time>2021-05-29T13:28:10.000Z</time>
      </trkpt>
      <trkpt lat="48.2443" lon="7.17999">
        <ele>385</ele>
        <time>2021-05-29T13:28:17.000Z</time>
      </trkpt>
      <trkpt lat="48.24416" lon="7.17995">
        <ele>385.2</ele>
        <time>2021-05-29T13:28:27.000Z</time>
      </trkpt>
      <trkpt lat="48.24404" lon="7.17999">
        <ele>384.6</ele>
        <time>2021-05-29T13:28:33.000Z</time>
      </trkpt>
      <trkpt lat="48.24394" lon="7.17999">
        <ele>384.2</ele>
        <time>2021-05-29T13:28:45.000Z</time>
      </trkpt>
      <trkpt lat="48.24385" lon="7.18005">
        <ele>383.7</ele>
        <time>2021-05-29T13:28:52.000Z</time>
      </trkpt>
      <trkpt lat="48.24384" lon="7.18004">
        <ele>383.7</ele>
        <time>2021-05-29T13:28:57.000Z</time>
      </trkpt>
    </trkseg>
  </trk>
</gpx>